[[{"header":{"parameterUnit":"m.s-1","parameterCategory":1,"la1":31.0,"la2":29.5877,"lo1":-88.7671,"lo2":-86.6584,"dy":0.0162,"dx":0.0185,"nx":115,"ny":88,"refTime":"2023-09-20T06:00:00:Z","depth":0,"parameterNumber":2,"parameterNumberName":"U-component_of_WINDS"},"data":[0.0,0.0,0.0,0.0,0.0,0.0,0.0,0.0,0.0,0.0,0.0,0.0,0.0,0.0,0.0,0.0,0.0,0.0,0.0,0.0,0.0,0.0,0.0,0.0,0.0,0.0,0.0,0.0,0.0,0.0,0.0,0.0,0.0,0.0,0.0,0.0,0.0,0.0,0.0,0.0,0.0,0.0,0.0,0.0,0.0,0.0,0.0,0.0,0.0,0.0,0.0,0.0,0.0,0.0,0.0,0.0,0.0,0.0,0.0,0.0,0.0,0.0,0.0,0.0,0.0,0.0,0.0,0.0,0.0,0.0,0.0,0.0,0.0,0.0,0.0,0.0,0.0,0.0,0.0,0.0,0.0,0.0,0.0,0.0,0.0,0.0,0.0,0.0,0.0,0.0,0.0,0.0,0.0,0.0,0.0,0.0,0.0,0.0,0.0,0.0,0.0,0.0,0.0,0.0,0.0,0.0,0.0,0.0,0.0,0.0,0.0,0.0,0.0,0.0,0.0,0.0,0.0,0.0,0.0,0.0,0.0,0.0,0.0,0.0,0.0,0.0,0.0,0.0,0.0,0.0,0.0,0.0,0.0,0.0,0.0,0.0,0.0,0.0,0.0,0.0,0.0,0.0,0.0,0.0,0.0,0.0,0.0,0.0,0.0,0.0,0.0,0.0,0.0,0.0,0.0,0.0,0.0,0.0,0.0,0.0,0.0,0.0,0.0,0.0,0.0,0.0,0.0,0.0,0.0,0.0,0.0,0.0,0.0,0.0,0.0,0.0,0.0,0.0,0.0,0.0,0.0,0.0,0.0,0.0,0.0,0.0,0.0,0.0,0.0,0.0,0.0,0.0,0.0,0.0,0.0,0.0,0.0,0.0,0.0,0.0,0.0,0.0,0.0,0.0,0.0,0.0,0.0,0.0,0.0,0.0,0.0,0.0,0.0,0.0,0.0,0.0,0.0,0.0,0.0,0.0,0.0,0.0,0.0,0.0,0.0,0.0,0.0,0.0,0.0,0.0,0.0,0.0,0.0,0.0,0.0,0.0,0.0,0.0,0.0,0.0,0.0,0.0,0.0,0.0,0.0,0.0,0.0,0.0,0.0,0.0,0.0,0.0,0.0,0.0,0.0,0.0,0.0,0.0,0.0,0.0,0.0,0.0,0.0,0.0,0.0,0.0,0.0,0.0,0.0,0.0,0.0,0.0,0.0,0.0,0.0,0.0,0.0,0.0,0.0,0.0,0.0,0.0,0.0,0.0,0.0,0.0,0.0,0.0,0.0,0.0,0.0,0.0,0.0,0.0,0.0,0.0,0.0,0.0,0.0,0.0,0.0,0.0,0.0,0.0,0.0,0.0,0.0,0.0,0.0,0.0,0.0,0.0,0.0,0.0,0.0,0.0,0.0,0.0,0.0,0.0,0.0,0.0,0.0,0.0,0.0,0.0,0.0,0.0,0.0,0.0,0.0,0.0,0.0,0.0,0.0,0.0,0.0,0.0,0.0,0.0,0.0,0.0,0.0,0.0,0.0,0.0,0.0,0.0,0.0,0.0,0.0,0.0,0.0,0.0,0.0,0.0,0.0,0.0,0.0,0.0,0.0,0.0,0.0,0.0,0.0,0.0,0.0,0.0,0.0,0.0,0.0,0.0,0.0,0.0,0.0,0.0,0.0,0.0,0.0,0.0,0.0,0.0,0.0,0.0,0.0,0.0,0.0,0.0,0.0,0.0,0.0,0.0,0.0,0.0,0.0,0.0,0.0,0.0,0.0,0.0,0.0,0.0,0.0,0.0,0.0,0.0,0.0,0.0,0.0,0.0,0.0,0.0,0.0,0.0,0.0,0.0,0.0,0.0,0.0,0.0,0.0,0.0,0.0,0.0,0.0,0.0,0.0,0.0,0.0,0.0,0.0,0.0,0.0,0.0,0.0,0.0,0.0,0.0,0.0,0.0,0.0,0.0,0.0,0.0,0.0,0.0,0.0,0.0,0.0,0.0,0.0,0.0,0.0,0.0,0.0,0.0,0.0,0.0,0.0,0.0,0.0,0.0,0.0,0.0,0.0,0.0,0.0,0.0,0.0,0.0,0.0,0.0,0.0,0.0,0.0,0.0,0.0,0.0,0.0,0.0,0.0,0.0,0.0,0.0,0.0,0.0,0.0,0.0,0.0,0.0,0.0,0.0,0.0,0.0,0.0,0.0,0.0,0.0,0.0,0.0,0.0,0.0,0.0,0.0,0.0,0.0,0.0,0.0,0.0,0.0,0.0,0.0,0.0,0.0,0.0,0.0,0.0,0.0,0.0,0.0,0.0,0.0,0.0,0.0,0.0,0.0,0.0,0.0,0.0,0.0,0.0,0.0,0.0,0.0,0.0,0.0,0.0,0.0,0.0,0.0,0.0,0.0,0.0,0.0,0.0,0.0,0.0,0.0,0.0,0.0,0.0,0.0,0.0,0.0,0.0,0.0,0.0,0.0,0.0,0.0,0.0,0.0,0.0,0.0,0.0,0.0,0.0,0.0,0.0,0.0,0.0,0.0,0.0,0.0,0.0,0.0,0.0,0.0,0.0,0.0,0.0,0.0,0.0,0.0,0.0,0.0,0.0,0.0,0.0,0.0,0.0,0.0,0.0,0.0,0.0,0.0,0.0,0.0,0.0,0.0,0.0,0.0,0.0,0.0,0.0,0.0,0.0,0.0,0.0,0.0,0.0,0.0,0.0,0.0,0.0,0.0,0.0,0.0,0.0,0.0,0.0,0.0,0.0,0.0,0.0,0.0,0.0,0.0,0.0,0.0,0.0,0.0,0.0,0.0,0.0,0.0,0.0,0.0,0.0,0.0,0.0,0.0,0.0,0.0,0.0,0.0,0.0,0.0,0.0,0.0,0.0,0.0,0.0,0.0,0.0,0.0,0.0,0.0,0.0,0.0,0.0,0.0,0.0,0.0,0.0,0.0,0.0,0.0,0.0,0.0,0.0,0.0,0.0,0.0,0.0,0.0,0.0,0.0,0.0,0.0,0.0,0.0,0.0,0.0,0.0,0.0,0.0,0.0,0.0,0.0,0.0,0.0,0.0,0.0,0.0,0.0,0.0,0.0,0.0,0.0,0.0,0.0,0.0,0.0,0.0,0.0,0.0,0.0,0.0,0.0,0.0,0.0,0.0,0.0,0.0,0.0,0.0,0.0,0.0,0.0,0.0,0.0,0.0,0.0,0.0,0.0,0.0,0.0,0.0,0.0,0.0,0.0,0.0,0.0,0.0,0.0,0.0,0.0,0.0,0.0,0.0,0.0,0.0,0.0,0.0,0.0,0.0,0.0,0.0,0.0,0.0,0.0,0.0,0.0,0.0,0.0,0.0,0.0,0.0,0.0,0.0,0.0,0.0,0.0,0.0,0.0,0.0,0.0,0.0,0.0,0.0,0.0,0.0,0.0,0.0,0.0,0.0,0.0,0.0,0.0,0.0,0.0,0.0,0.0,0.0,0.0,0.0,0.0,0.0,0.0,0.0,0.0,0.0,0.0,0.0,0.0,0.0,0.0,0.0,0.0,0.0,0.0,0.0,0.0,0.0,0.0,0.0,0.0,0.0,0.0,0.0,0.0,0.0,0.0,0.0,0.0,0.0,0.0,0.0,0.0,0.0,0.0,0.0,0.0,0.0,0.0,0.0,0.0,0.0,0.0,0.0,0.0,0.0,0.0,0.0,0.0,0.0,0.0,0.0,0.0,0.0,0.0,0.0,0.0,0.0,0.0,0.0,0.0,0.0,0.0,0.0,0.0,0.0,0.0,0.0,0.0,0.0,0.0,0.0,0.0,0.0,0.0,0.0,0.0,0.0,0.0,0.0,0.0,0.0,0.0,0.0,0.0,0.0,0.0,0.0,0.0,0.0,0.0,0.0,0.0,0.0,0.0,0.0,0.0,0.0,0.0,0.0,0.0,0.0,0.0,0.0,0.0,0.0,0.0,0.0,0.0,0.0,0.0,0.0,0.0,0.0,0.0,0.0,0.0,0.0,0.0,0.0,0.0,0.0,0.0,0.0,0.0,0.0,0.0,0.0,0.0,0.0,0.0,0.0,0.0,0.0,0.0,0.0,0.0,0.0,0.0,0.0,0.0,0.0,0.0,0.0,0.0,0.0,0.0,0.0,0.0,0.0,0.0,0.0,0.0,0.0,0.0,0.0,0.0,0.0,0.0,0.0,0.0,0.0,0.0,0.0,0.0,0.0,0.0,0.0,0.0,0.0,0.0,0.0,0.0,0.0,0.0,0.0,0.0,0.0,0.0,2.0685,0.0,0.0,0.0,0.0,0.0,0.0,0.0,0.0,0.0,0.0,0.0,0.0,0.0,0.0,0.0,0.0,0.0,0.0,0.0,0.0,0.0,0.0,0.0,0.0,0.0,0.0,0.0,0.0,0.0,0.0,0.0,0.0,0.0,0.0,0.0,0.0,0.0,0.0,0.0,0.0,0.0,0.0,0.0,0.0,0.0,0.0,0.0,0.0,0.0,0.0,0.0,0.0,0.0,0.0,0.0,0.0,0.0,0.0,0.0,0.0,0.0,0.0,0.0,0.0,0.0,0.0,0.0,0.0,0.0,0.0,0.0,0.0,0.0,0.0,0.0,0.0,0.0,0.0,0.0,0.0,0.0,0.0,0.0,0.0,0.0,0.0,0.0,0.0,0.0,0.0,0.0,0.0,0.0,0.0,0.0,0.0,0.0,0.0,0.0,0.0,0.0,0.0,0.0,0.0,0.0,0.0,0.0,0.0,0.0,0.0,2.141,2.123,2.095,2.0719,2.055,0.0,0.0,0.0,0.0,0.0,0.0,0.0,0.0,0.0,0.0,0.0,0.0,0.0,0.0,0.0,0.0,0.0,0.0,0.0,0.0,0.0,0.0,0.0,0.0,0.0,0.0,0.0,0.0,0.0,0.0,0.0,0.0,0.0,0.0,0.0,0.0,0.0,0.0,0.0,0.0,0.0,0.0,0.0,0.0,0.0,0.0,0.0,0.0,0.0,0.0,0.0,0.0,0.0,0.0,0.0,0.0,0.0,0.0,0.0,0.0,0.0,0.0,0.0,0.0,0.0,0.0,0.0,0.0,0.0,0.0,0.0,0.0,0.0,0.0,0.0,0.0,0.0,0.0,0.0,0.0,0.0,0.0,0.0,0.0,0.0,0.0,0.0,0.0,0.0,0.0,0.0,0.0,0.0,0.0,0.0,0.0,0.0,0.0,0.0,0.0,0.0,0.0,0.0,0.0,0.0,0.0,0.0,0.0,0.0,0.0,0.0,0.0,2.0835,2.0585,2.0397,0.0,0.0,0.0,0.0,0.0,0.0,0.0,0.0,0.0,0.0,0.0,0.0,0.0,0.0,0.0,0.0,0.0,0.0,0.0,0.0,0.0,0.0,0.0,0.0,0.0,0.0,0.0,0.0,0.0,0.0,0.0,0.0,0.0,0.0,0.0,0.0,0.0,0.0,0.0,0.0,0.0,0.0,0.0,0.0,0.0,0.0,0.0,0.0,0.0,0.0,0.0,0.0,0.0,0.0,0.0,0.0,0.0,0.0,0.0,0.0,0.0,0.0,0.0,0.0,0.0,0.0,0.0,0.0,0.0,0.0,0.0,0.0,0.0,0.0,0.0,0.0,0.0,0.0,0.0,0.0,0.0,0.0,0.0,0.0,0.0,0.0,0.0,0.0,0.0,0.0,0.0,0.0,0.0,0.0,0.0,0.0,0.0,0.0,0.0,0.0,0.0,0.0,0.0,0.0,0.0,0.0,0.0,0.0,0.0,0.0,2.1293,2.1095,2.0851,0.0,2.033,0.0,0.0,0.0,0.0,0.0,0.0,0.0,0.0,0.0,0.0,0.0,0.0,0.0,0.0,0.0,0.0,0.0,0.0,0.0,0.0,0.0,0.0,0.0,0.0,0.0,0.0,0.0,0.0,0.0,0.0,0.0,0.0,0.0,0.0,0.0,0.0,0.0,0.0,0.0,0.0,0.0,0.0,0.0,0.0,0.0,0.0,0.0,0.0,0.0,0.0,0.0,0.0,0.0,0.0,0.0,0.0,0.0,0.0,0.0,0.0,0.0,0.0,0.0,0.0,0.0,0.0,0.0,0.0,0.0,0.0,0.0,0.0,0.0,0.0,0.0,0.0,0.0,0.0,0.0,0.0,0.0,0.0,0.0,0.0,0.0,0.0,0.0,0.0,0.0,0.0,0.0,0.0,0.0,0.0,0.0,0.0,0.0,0.0,0.0,0.0,0.0,0.0,0.0,0.0,0.0,0.0,0.0,0.0,0.0,0.0,2.1262,2.1087,2.0769,2.0509,0.0,0.0,0.0,0.0,0.0,0.0,0.0,0.0,0.0,0.0,0.0,0.0,0.0,0.0,0.0,0.0,0.0,0.0,0.0,0.0,0.0,0.0,0.0,0.0,0.0,0.0,0.0,0.0,0.0,0.0,0.0,0.0,0.0,0.0,0.0,0.0,0.0,0.0,0.0,0.0,0.0,0.0,0.0,0.0,0.0,0.0,0.0,0.0,0.0,0.0,0.0,0.0,0.0,0.0,0.0,0.0,0.0,0.0,0.0,0.0,0.0,0.0,0.0,0.0,0.0,0.0,0.0,0.0,0.0,0.0,0.0,0.0,0.0,0.0,0.0,0.0,0.0,0.0,0.0,0.0,0.0,0.0,0.0,0.0,0.0,0.0,0.0,0.0,0.0,0.0,0.0,0.0,0.0,0.0,0.0,0.0,0.0,0.0,0.0,0.0,0.0,0.0,0.0,0.0,0.0,0.0,0.0,0.0,0.0,0.0,2.1426,2.1238,2.1039,2.0728,2.0494,2.039,0.0,0.0,0.0,0.0,0.0,0.0,0.0,0.0,0.0,0.0,0.0,0.0,0.0,0.0,0.0,0.0,0.0,0.0,0.0,0.0,0.0,0.0,0.0,0.0,0.0,0.0,0.0,0.0,0.0,0.0,0.0,0.0,0.0,0.0,0.0,0.0,0.0,0.0,0.0,0.0,0.0,0.0,0.0,0.0,0.0,0.0,0.0,0.0,0.0,0.0,0.0,0.0,0.0,0.0,0.0,0.0,0.0,0.0,0.0,0.0,0.0,0.0,0.0,0.0,0.0,0.0,0.0,0.0,0.0,0.0,0.0,0.0,0.0,0.0,0.0,0.0,0.0,0.0,0.0,0.0,0.0,0.0,0.0,0.0,0.0,0.0,0.0,0.0,0.0,0.0,0.0,0.0,0.0,0.0,0.0,0.0,0.0,0.0,0.0,0.0,0.0,0.0,0.0,0.0,0.0,0.0,0.0,0.0,2.1597,2.1464,2.1246,2.091,2.0753,2.0609,0.0,0.0,0.0,0.0,0.0,0.0,0.0,0.0,0.0,0.0,0.0,0.0,0.0,0.0,0.0,0.0,0.0,0.0,0.0,0.0,0.0,0.0,0.0,0.0,0.0,0.0,0.0,0.0,0.0,0.0,0.0,0.0,0.0,0.0,0.0,0.0,0.0,0.0,0.0,0.0,0.0,0.0,0.0,0.0,0.0,0.0,0.0,0.0,0.0,0.0,0.0,0.0,0.0,0.0,0.0,0.0,0.0,0.0,0.0,0.0,0.0,0.0,0.0,0.0,0.0,0.0,0.0,0.0,0.0,0.0,0.0,0.0,0.0,0.0,0.0,0.0,0.0,0.0,0.0,0.0,0.0,0.0,0.0,0.0,0.0,0.0,0.0,0.0,0.0,0.0,0.0,0.0,0.0,0.0,0.0,0.0,0.0,0.0,0.0,0.0,0.0,0.0,0.0,0.0,0.0,0.0,0.0,0.0,0.0,2.148,2.1387,2.1206,2.0926,2.0795,2.0652,0.0,0.0,0.0,0.0,0.0,0.0,0.0,0.0,0.0,0.0,0.0,0.0,0.0,0.0,0.0,0.0,0.0,0.0,0.0,0.0,0.0,0.0,0.0,0.0,0.0,0.0,0.0,0.0,0.0,0.0,0.0,0.0,0.0,0.0,0.0,0.0,0.0,0.0,0.0,0.0,0.0,0.0,0.0,0.0,0.0,0.0,0.0,0.0,0.0,0.0,0.0,0.0,0.0,0.0,0.0,0.0,0.0,0.0,0.0,0.0,0.0,0.0,0.0,0.0,0.0,0.0,0.0,0.0,0.0,0.0,0.0,0.0,0.0,0.0,0.0,0.0,0.0,0.0,0.0,0.0,0.0,0.0,0.0,0.0,0.0,0.0,0.0,0.0,0.0,0.0,0.0,0.0,0.0,0.0,0.0,0.0,0.0,0.0,0.0,0.0,0.0,0.0,0.0,0.0,0.0,0.0,0.0,0.0,0.0,2.1363,0.0,2.1175,2.091,2.0836,2.0687,0.0,0.0,0.0,0.0,0.0,0.0,0.0,0.0,0.0,0.0,0.0,0.0,0.0,0.0,0.0,0.0,0.0,0.0,0.0,0.0,0.0,0.0,0.0,0.0,0.0,0.0,0.0,0.0,0.0,0.0,0.0,0.0,0.0,0.0,0.0,0.0,0.0,0.0,0.0,0.0,0.0,0.0,0.0,0.0,0.0,0.0,0.0,0.0,0.0,0.0,0.0,0.0,0.0,0.0,0.0,0.0,0.0,0.0,0.0,0.0,0.0,0.0,0.0,0.0,0.0,0.0,0.0,0.0,0.0,0.0,0.0,0.0,0.0,0.0,0.0,0.0,0.0,0.0,0.0,0.0,0.0,0.0,0.0,0.0,0.0,0.0,0.0,0.0,0.0,0.0,0.0,0.0,0.0,0.0,0.0,0.0,0.0,0.0,0.0,0.0,0.0,0.0,0.0,0.0,0.0,0.0,0.0,0.0,2.1363,2.1301,2.1309,2.1167,2.091,2.0901,2.0704,0.0,0.0,0.0,0.0,0.0,0.0,0.0,0.0,0.0,0.0,0.0,0.0,0.0,0.0,0.0,0.0,0.0,0.0,0.0,0.0,0.0,0.0,0.0,0.0,0.0,0.0,0.0,0.0,0.0,0.0,0.0,0.0,0.0,0.0,0.0,0.0,0.0,0.0,0.0,0.0,0.0,0.0,0.0,0.0,0.0,0.0,0.0,0.0,0.0,0.0,0.0,0.0,0.0,0.0,0.0,0.0,0.0,0.0,0.0,0.0,0.0,0.0,0.0,0.0,0.0,0.0,0.0,0.0,0.0,0.0,0.0,0.0,0.0,0.0,0.0,0.0,0.0,0.0,0.0,0.0,0.0,0.0,0.0,0.0,0.0,0.0,0.0,0.0,0.0,0.0,0.0,0.0,0.0,0.0,0.0,0.0,0.0,0.0,0.0,0.0,0.0,0.0,0.0,0.0,0.0,0.0,0.0,0.0,0.0,2.1309,2.1254,2.1127,2.0917,2.0795,2.0611,0.0,0.0,0.0,0.0,0.0,0.0,0.0,0.0,0.0,0.0,0.0,0.0,0.0,0.0,0.0,0.0,0.0,0.0,0.0,0.0,0.0,0.0,0.0,0.0,0.0,0.0,0.0,0.0,0.0,0.0,0.0,0.0,0.0,0.0,0.0,0.0,0.0,0.0,0.0,0.0,0.0,0.0,0.0,0.0,0.0,0.0,0.0,0.0,0.0,0.0,0.0,0.0,0.0,0.0,0.0,0.0,0.0,0.0,0.0,0.0,0.0,0.0,0.0,0.0,0.0,0.0,0.0,0.0,0.0,0.0,0.0,0.0,0.0,0.0,0.0,0.0,0.0,0.0,0.0,0.0,0.0,0.0,0.0,0.0,0.0,0.0,0.0,0.0,0.0,0.0,0.0,0.0,0.0,0.0,0.0,0.0,0.0,0.0,0.0,0.0,0.0,0.0,0.0,0.0,0.0,0.0,0.0,0.0,0.0,2.1585,2.1344,2.1095,2.0884,2.0769,2.0543,2.0244,0.0,0.0,0.0,0.0,0.0,0.0,0.0,0.0,0.0,0.0,0.0,0.0,0.0,0.0,0.0,0.0,0.0,0.0,0.0,0.0,0.0,0.0,0.0,0.0,0.0,0.0,0.0,0.0,0.0,0.0,0.0,0.0,0.0,0.0,0.0,0.0,0.0,0.0,0.0,0.0,0.0,0.0,0.0,0.0,0.0,0.0,0.0,0.0,0.0,0.0,0.0,0.0,0.0,0.0,0.0,0.0,0.0,0.0,0.0,0.0,0.0,0.0,0.0,0.0,0.0,0.0,0.0,0.0,0.0,0.0,0.0,0.0,0.0,0.0,0.0,0.0,0.0,0.0,0.0,0.0,0.0,0.0,0.0,0.0,0.0,0.0,0.0,0.0,0.0,0.0,0.0,0.0,0.0,0.0,0.0,0.0,0.0,0.0,0.0,0.0,0.0,0.0,0.0,0.0,0.0,0.0,0.0,0.0,2.2149,2.1592,2.1207,2.0945,2.0869,2.0618,0.0,0.0,0.0,0.0,0.0,0.0,0.0,0.0,0.0,0.0,0.0,0.0,0.0,0.0,0.0,0.0,0.0,0.0,0.0,0.0,0.0,0.0,0.0,0.0,0.0,0.0,0.0,0.0,0.0,0.0,0.0,0.0,0.0,0.0,0.0,0.0,0.0,0.0,0.0,0.0,0.0,0.0,0.0,0.0,0.0,0.0,0.0,0.0,0.0,0.0,0.0,0.0,0.0,0.0,0.0,0.0,0.0,0.0,0.0,0.0,0.0,0.0,0.0,0.0,0.0,0.0,0.0,0.0,0.0,0.0,0.0,0.0,0.0,0.0,0.0,0.0,0.0,0.0,0.0,0.0,0.0,0.0,0.0,0.0,0.0,0.0,0.0,0.0,0.0,0.0,0.0,0.0,0.0,0.0,0.0,0.0,0.0,0.0,0.0,0.0,0.0,0.0,0.0,0.0,0.0,0.0,0.0,0.0,0.0,2.2725,2.26,2.2503,2.2417,2.2202,2.1744,0.0,0.0,0.0,0.0,0.0,0.0,0.0,0.0,0.0,0.0,0.0,0.0,0.0,0.0,0.0,0.0,0.0,0.0,0.0,0.0,0.0,0.0,0.0,0.0,0.0,0.0,0.0,0.0,0.0,0.0,0.0,0.0,0.0,0.0,0.0,0.0,0.0,0.0,0.0,0.0,0.0,0.0,0.0,0.0,0.0,0.0,0.0,0.0,0.0,0.0,0.0,0.0,0.0,0.0,0.0,0.0,0.0,0.0,0.0,0.0,0.0,0.0,0.0,0.0,0.0,0.0,0.0,0.0,0.0,0.0,0.0,0.0,0.0,0.0,0.0,0.0,0.0,0.0,0.0,0.0,0.0,0.0,0.0,0.0,0.0,0.0,0.0,0.0,0.0,0.0,0.0,0.0,0.0,0.0,0.0,0.0,0.0,0.0,0.0,0.0,0.0,0.0,0.0,0.0,0.0,0.0,0.0,0.0,2.2917,2.3827,2.3802,2.3866,2.4128,2.308,2.2139,0.0,0.0,0.0,0.0,0.0,0.0,0.0,0.0,0.0,0.0,0.0,0.0,0.0,0.0,0.0,0.0,0.0,0.0,0.0,0.0,0.0,0.0,0.0,0.0,0.0,0.0,0.0,0.0,0.0,0.0,0.0,0.0,0.0,0.0,0.0,0.0,0.0,0.0,0.0,0.0,0.0,0.0,0.0,0.0,0.0,0.0,0.0,0.0,0.0,0.0,0.0,0.0,0.0,0.0,0.0,0.0,0.0,0.0,0.0,0.0,0.0,0.0,0.0,0.0,0.0,0.0,0.0,0.0,0.0,0.0,0.0,0.0,0.0,0.0,0.0,0.0,0.0,0.0,0.0,0.0,0.0,0.0,0.0,0.0,0.0,0.0,0.0,0.0,0.0,0.0,0.0,0.0,0.0,0.0,0.0,0.0,0.0,0.0,0.0,0.0,0.0,0.0,0.0,0.0,0.0,0.0,0.0,0.0,2.3609,2.4914,2.4816,2.5019,2.5472,2.3639,2.2247,0.0,0.0,0.0,0.0,0.0,0.0,0.0,0.0,0.0,0.0,0.0,0.0,0.0,0.0,0.0,0.0,0.0,0.0,0.0,0.0,0.0,0.0,0.0,0.0,0.0,0.0,0.0,0.0,0.0,0.0,0.0,0.0,0.0,0.0,0.0,0.0,0.0,0.0,0.0,0.0,0.0,0.0,0.0,0.0,0.0,0.0,0.0,0.0,0.0,0.0,0.0,0.0,0.0,0.0,0.0,0.0,0.0,0.0,0.0,0.0,0.0,0.0,0.0,0.0,0.0,0.0,0.0,0.0,0.0,0.0,0.0,0.0,0.0,0.0,0.0,0.0,0.0,0.0,0.0,0.0,0.0,0.0,0.0,0.0,0.0,0.0,0.0,0.0,0.0,0.0,0.0,0.0,0.0,0.0,0.0,0.0,0.0,0.0,0.0,0.0,0.0,0.0,0.0,0.0,0.0,0.0,0.0,0.0,2.3359,2.4574,2.459,2.457,2.4575,2.4143,2.3498,0.0,0.0,0.0,0.0,0.0,0.0,0.0,0.0,0.0,0.0,0.0,0.0,0.0,0.0,0.0,0.0,0.0,0.0,0.0,0.0,0.0,0.0,0.0,0.0,0.0,0.0,0.0,0.0,0.0,0.0,0.0,0.0,0.0,0.0,0.0,0.0,0.0,0.0,0.0,0.0,0.0,0.0,0.0,0.0,0.0,0.0,0.0,0.0,2.1879,0.0,0.0,0.0,0.0,0.0,0.0,0.0,0.0,0.0,0.0,0.0,0.0,0.0,0.0,0.0,0.0,0.0,0.0,0.0,0.0,0.0,0.0,0.0,0.0,0.0,0.0,0.0,0.0,0.0,0.0,0.0,0.0,0.0,0.0,0.0,0.0,0.0,0.0,0.0,0.0,0.0,0.0,0.0,0.0,0.0,0.0,0.0,0.0,0.0,0.0,0.0,0.0,0.0,0.0,0.0,0.0,0.0,0.0,0.0,2.3651,2.4906,2.4596,2.4482,2.46,2.4314,2.3804,0.0,0.0,0.0,0.0,0.0,0.0,0.0,0.0,0.0,0.0,0.0,0.0,0.0,0.0,0.0,0.0,0.0,0.0,0.0,0.0,0.0,0.0,0.0,0.0,0.0,0.0,0.0,0.0,0.0,0.0,0.0,0.0,0.0,0.0,0.0,0.0,0.0,0.0,0.0,0.0,0.0,0.0,0.0,0.0,0.0,0.0,0.0,0.0,0.0,0.0,0.0,0.0,0.0,0.0,0.0,0.0,0.0,0.0,0.0,0.0,0.0,0.0,0.0,0.0,0.0,0.0,0.0,0.0,0.0,0.0,0.0,0.0,0.0,0.0,0.0,0.0,0.0,0.0,0.0,0.0,0.0,0.0,0.0,0.0,0.0,0.0,0.0,0.0,0.0,0.0,0.0,0.0,0.0,0.0,0.0,0.0,0.0,0.0,0.0,0.0,0.0,0.0,0.0,0.0,0.0,0.0,0.0,2.3117,2.4003,2.5173,2.4631,2.4442,2.4802,2.426,2.3703,2.3122,0.0,0.0,0.0,0.0,0.0,0.0,0.0,0.0,0.0,0.0,0.0,0.0,0.0,0.0,0.0,0.0,0.0,0.0,0.0,0.0,0.0,0.0,0.0,0.0,0.0,0.0,0.0,0.0,0.0,0.0,0.0,0.0,0.0,0.0,0.0,0.0,0.0,0.0,2.0903,2.1278,0.0,0.0,0.0,0.0,0.0,0.0,0.0,0.0,2.3409,0.0,0.0,0.0,0.0,0.0,0.0,0.0,0.0,0.0,0.0,0.0,0.0,0.0,0.0,0.0,0.0,0.0,0.0,0.0,0.0,0.0,0.0,0.0,0.0,0.0,0.0,0.0,0.0,0.0,0.0,0.0,0.0,0.0,0.0,0.0,0.0,0.0,0.0,0.0,0.0,0.0,0.0,0.0,0.0,0.0,0.0,0.0,0.0,0.0,0.0,0.0,0.0,0.0,0.0,0.0,0.0,2.2352,2.3039,2.3691,2.4225,2.4238,2.4149,2.4001,2.39,2.3726,2.3494,0.0,0.0,0.0,0.0,0.0,0.0,0.0,0.0,0.0,0.0,0.0,0.0,0.0,0.0,0.0,0.0,0.0,0.0,0.0,0.0,0.0,0.0,0.0,0.0,0.0,0.0,0.0,0.0,0.0,0.0,0.0,0.0,0.0,0.0,0.0,0.0,0.0,0.0,0.0,2.1838,2.2461,0.0,0.0,0.0,0.0,0.0,0.0,0.0,0.0,2.3567,0.0,0.0,0.0,0.0,0.0,0.0,0.0,0.0,0.0,0.0,0.0,0.0,0.0,0.0,0.0,0.0,0.0,0.0,0.0,0.0,0.0,0.0,0.0,0.0,0.0,0.0,0.0,0.0,0.0,0.0,0.0,0.0,0.0,0.0,0.0,0.0,0.0,0.0,0.0,0.0,0.0,0.0,0.0,0.0,0.0,0.0,0.0,0.0,0.0,0.0,0.0,0.0,0.0,0.0,0.0,2.2225,2.3121,2.3706,2.3888,2.3961,2.3903,2.3707,2.375,2.3739,0.0,0.0,0.0,0.0,0.0,0.0,0.0,0.0,0.0,0.0,0.0,0.0,0.0,0.0,0.0,0.0,0.0,0.0,0.0,0.0,0.0,0.0,0.0,0.0,0.0,0.0,0.0,0.0,0.0,0.0,0.0,0.0,0.0,0.0,0.0,0.0,0.0,0.0,0.0,0.0,2.2661,2.3079,2.3687,0.0,0.0,0.0,0.0,0.0,0.0,2.4144,2.4242,0.0,0.0,0.0,0.0,0.0,0.0,0.0,0.0,0.0,0.0,0.0,0.0,0.0,0.0,0.0,0.0,0.0,0.0,0.0,0.0,0.0,0.0,0.0,0.0,0.0,0.0,0.0,0.0,0.0,0.0,0.0,0.0,0.0,0.0,0.0,0.0,0.0,0.0,0.0,0.0,0.0,0.0,0.0,0.0,0.0,0.0,0.0,0.0,0.0,0.0,0.0,0.0,0.0,0.0,0.0,2.2314,2.3339,2.3871,2.385,2.3861,2.3818,2.3685,2.3771,2.376,0.0,0.0,0.0,0.0,0.0,0.0,0.0,0.0,0.0,0.0,0.0,0.0,0.0,0.0,0.0,0.0,0.0,0.0,0.0,0.0,0.0,0.0,0.0,0.0,0.0,0.0,0.0,0.0,0.0,0.0,0.0,0.0,0.0,0.0,0.0,0.0,0.0,0.0,0.0,0.0,0.0,2.3641,2.409,2.4231,0.0,0.0,0.0,0.0,2.4747,2.4799,0.0,0.0,0.0,0.0,0.0,0.0,0.0,0.0,0.0,0.0,0.0,0.0,0.0,0.0,0.0,0.0,0.0,0.0,0.0,0.0,0.0,0.0,0.0,0.0,0.0,0.0,0.0,0.0,0.0,0.0,0.0,0.0,0.0,0.0,0.0,0.0,0.0,0.0,0.0,0.0,0.0,0.0,0.0,0.0,0.0,0.0,0.0,0.0,0.0,0.0,0.0,0.0,0.0,0.0,0.0,0.0,2.2899,2.3722,2.4092,2.3993,2.4092,2.4103,2.3961,2.3972,2.3861,0.0,0.0,0.0,0.0,0.0,0.0,0.0,0.0,0.0,0.0,0.0,0.0,0.0,0.0,0.0,0.0,0.0,0.0,0.0,0.0,0.0,0.0,0.0,0.0,0.0,0.0,0.0,0.0,0.0,0.0,0.0,0.0,0.0,0.0,0.0,0.0,0.0,0.0,0.0,0.0,0.0,2.409,2.4046,2.4422,2.4712,0.0,0.0,2.5402,2.5495,2.5483,0.0,0.0,0.0,0.0,0.0,0.0,0.0,0.0,0.0,0.0,0.0,0.0,0.0,0.0,0.0,0.0,0.0,0.0,0.0,0.0,0.0,0.0,0.0,0.0,0.0,0.0,0.0,0.0,0.0,0.0,0.0,0.0,0.0,0.0,0.0,0.0,0.0,0.0,0.0,0.0,0.0,0.0,0.0,0.0,0.0,0.0,0.0,0.0,0.0,0.0,0.0,0.0,0.0,0.0,0.0,2.2642,2.2904,2.3513,2.3839,2.3771,2.3903,2.3914,2.3782,2.3919,2.3871,0.0,0.0,0.0,0.0,0.0,0.0,0.0,0.0,0.0,0.0,0.0,0.0,0.0,0.0,0.0,0.0,0.0,0.0,0.0,0.0,0.0,0.0,0.0,0.0,0.0,0.0,0.0,0.0,0.0,0.0,0.0,0.0,0.0,0.0,0.0,0.0,0.0,0.0,0.0,0.0,0.0,0.0,2.4472,2.4957,0.0,0.0,0.0,2.5699,2.6015,0.0,0.0,0.0,0.0,0.0,0.0,0.0,0.0,0.0,0.0,0.0,0.0,0.0,0.0,0.0,0.0,0.0,0.0,0.0,0.0,0.0,0.0,0.0,0.0,0.0,0.0,0.0,0.0,0.0,0.0,0.0,0.0,0.0,0.0,0.0,0.0,0.0,0.0,0.0,0.0,0.0,0.0,0.0,0.0,0.0,0.0,0.0,0.0,0.0,0.0,0.0,0.0,0.0,0.0,0.0,0.0,0.0,2.311,2.3494,2.3707,2.375,2.385,2.3839,2.3717,2.3882,0.0,0.0,0.0,0.0,0.0,0.0,0.0,0.0,0.0,0.0,0.0,0.0,0.0,0.0,0.0,0.0,0.0,0.0,0.0,0.0,0.0,0.0,0.0,0.0,0.0,0.0,0.0,2.1238,0.0,0.0,0.0,0.0,0.0,0.0,0.0,0.0,0.0,0.0,0.0,0.0,0.0,0.0,2.5093,2.4972,2.5497,2.5857,0.0,0.0,2.6094,2.65,2.6421,2.6507,0.0,0.0,0.0,0.0,0.0,0.0,0.0,0.0,0.0,0.0,0.0,0.0,0.0,0.0,0.0,0.0,0.0,0.0,0.0,0.0,0.0,0.0,0.0,0.0,0.0,0.0,0.0,0.0,0.0,0.0,0.0,0.0,0.0,0.0,0.0,0.0,0.0,0.0,0.0,0.0,0.0,0.0,0.0,0.0,0.0,0.0,0.0,0.0,0.0,0.0,0.0,0.0,0.0,0.0,2.3351,2.3891,2.3941,2.4029,2.4145,2.4166,2.4103,2.3982,2.3993,2.3887,0.0,0.0,0.0,0.0,0.0,0.0,0.0,0.0,0.0,0.0,0.0,0.0,0.0,0.0,0.0,0.0,0.0,0.0,0.0,0.0,0.0,0.0,0.0,0.0,0.0,0.0,0.0,0.0,0.0,0.0,0.0,0.0,0.0,0.0,0.0,0.0,0.0,0.0,0.0,0.0,0.0,2.5505,2.5372,2.5831,2.6162,0.0,2.6577,2.6927,2.6943,2.6811,2.6678,2.6723,0.0,0.0,0.0,0.0,0.0,0.0,0.0,0.0,0.0,0.0,0.0,0.0,0.0,0.0,0.0,0.0,0.0,0.0,0.0,0.0,0.0,0.0,0.0,0.0,0.0,0.0,0.0,0.0,0.0,0.0,0.0,0.0,0.0,0.0,0.0,0.0,0.0,0.0,0.0,0.0,0.0,0.0,0.0,0.0,0.0,0.0,0.0,0.0,0.0,0.0,0.0,0.0,0.0,2.3646,2.3856,2.4219,2.4397,2.4456,2.4937,2.5126,2.4987,2.5126,2.4907,0.0,0.0,0.0,0.0,0.0,0.0,0.0,0.0,0.0,0.0,0.0,0.0,0.0,0.0,0.0,0.0,0.0,0.0,0.0,0.0,0.0,0.0,0.0,0.0,0.0,0.0,0.0,0.0,2.2431,2.2813,2.3224,0.0,0.0,0.0,0.0,0.0,0.0,0.0,0.0,0.0,0.0,2.6455,2.6239,2.7117,0.0,0.0,2.7753,2.7774,2.7692,2.7483,2.7314,2.7329,2.7088,0.0,0.0,0.0,0.0,0.0,0.0,0.0,0.0,0.0,0.0,0.0,0.0,0.0,0.0,0.0,0.0,0.0,0.0,0.0,0.0,0.0,0.0,0.0,0.0,0.0,0.0,0.0,0.0,0.0,0.0,0.0,0.0,0.0,0.0,0.0,0.0,0.0,0.0,0.0,0.0,0.0,0.0,0.0,0.0,0.0,0.0,0.0,0.0,0.0,0.0,0.0,0.0,2.4135,2.4163,2.4694,2.4983,2.5006,2.5579,2.5805,2.5673,2.5839,2.5617,0.0,0.0,0.0,0.0,0.0,0.0,0.0,0.0,0.0,0.0,0.0,0.0,0.0,0.0,0.0,0.0,0.0,0.0,0.0,0.0,0.0,0.0,0.0,0.0,0.0,0.0,0.0,0.0,2.2945,2.3438,2.4059,0.0,0.0,0.0,0.0,0.0,0.0,0.0,0.0,0.0,0.0,2.6848,2.6797,2.7603,2.8223,2.8311,2.8183,2.8025,2.7923,2.7719,2.7544,2.7556,0.0,0.0,0.0,0.0,0.0,0.0,0.0,0.0,0.0,0.0,0.0,0.0,0.0,0.0,0.0,0.0,0.0,0.0,0.0,0.0,0.0,0.0,0.0,0.0,0.0,0.0,0.0,2.4048,0.0,0.0,2.3628,0.0,0.0,0.0,0.0,0.0,0.0,0.0,0.0,0.0,0.0,0.0,0.0,0.0,0.0,0.0,0.0,0.0,0.0,0.0,0.0,0.0,0.0,2.4836,2.4969,2.55,2.5824,2.5966,2.6008,2.5954,2.585,2.582,2.5746,2.5573,0.0,0.0,0.0,0.0,0.0,0.0,0.0,0.0,0.0,0.0,0.0,0.0,0.0,0.0,0.0,0.0,0.0,0.0,0.0,0.0,0.0,0.0,0.0,0.0,0.0,0.0,2.3921,2.3745,2.3805,0.0,0.0,0.0,0.0,0.0,0.0,0.0,0.0,0.0,2.5789,2.6094,2.6485,2.6918,2.6933,2.7172,2.769,2.7643,2.7539,2.7553,2.7363,2.7204,0.0,0.0,0.0,0.0,0.0,0.0,0.0,0.0,0.0,0.0,0.0,0.0,0.0,0.0,0.0,0.0,0.0,0.0,0.0,0.0,0.0,0.0,0.0,0.0,0.0,0.0,0.0,2.3852,2.3869,0.0,0.0,0.0,0.0,0.0,0.0,0.0,0.0,0.0,0.0,0.0,2.632,2.633,0.0,0.0,0.0,0.0,0.0,0.0,0.0,0.0,0.0,0.0,0.0,0.0,2.5496,2.5546,2.6062,2.6342,2.6408,2.6853,2.7054,2.7002,2.699,2.6783,2.6273,0.0,0.0,0.0,0.0,0.0,0.0,0.0,0.0,0.0,0.0,0.0,0.0,0.0,0.0,0.0,0.0,0.0,0.0,0.0,0.0,0.0,0.0,0.0,0.0,0.0,2.3876,0.0,0.0,0.0,0.0,0.0,0.0,0.0,0.0,0.0,0.0,2.5392,2.5486,2.5701,2.6608,2.7172,2.702,2.7769,2.8318,0.0,0.0,0.0,0.0,0.0,0.0,0.0,0.0,0.0,0.0,0.0,0.0,0.0,0.0,2.7638,2.7157,2.7111,2.72,2.7337,0.0,0.0,0.0,0.0,0.0,0.0,0.0,0.0,0.0,0.0,0.0,0.0,0.0,0.0,2.5127,2.5136,2.4915,0.0,0.0,0.0,0.0,0.0,0.0,0.0,0.0,2.6818,2.7174,2.7156,2.7391,2.7417,0.0,2.6966,2.6259,0.0,0.0,0.0,0.0,0.0,0.0,0.0,0.0,2.6104,2.6154,2.6675,2.6944,2.6958,2.7375,2.7585,2.7585,2.7585,2.739,2.6958,2.6539,2.6303,0.0,0.0,0.0,0.0,0.0,0.0,0.0,0.0,0.0,0.0,0.0,0.0,0.0,0.0,0.0,0.0,0.0,0.0,0.0,0.0,0.0,0.0,0.0,2.4339,0.0,0.0,0.0,0.0,0.0,0.0,0.0,0.0,0.0,2.5606,2.5578,2.5576,2.5757,2.6641,2.7227,2.7082,0.0,0.0,0.0,0.0,0.0,0.0,0.0,2.8112,2.8112,2.8033,2.7967,2.7885,2.7898,2.7951,2.8166,0.0,0.0,2.7483,2.7387,2.7403,2.7484,2.7515,2.753,2.7578,2.758,2.7525,0.0,0.0,0.0,0.0,0.0,0.0,0.0,0.0,2.776,2.7652,0.0,2.7377,0.0,0.0,0.0,0.0,2.6718,2.6743,0.0,0.0,2.733,2.7566,2.7561,2.8165,2.8397,2.8241,2.7617,2.7216,2.697,2.6352,0.0,0.0,0.0,0.0,0.0,0.0,2.672,2.6889,2.7395,2.766,2.7687,2.7675,2.766,2.7645,2.763,2.763,2.7612,2.7555,2.757,2.7585,2.757,0.0,0.0,0.0,0.0,0.0,0.0,0.0,0.0,0.0,0.0,0.0,0.0,0.0,0.0,0.0,0.0,0.0,0.0,0.0,0.0,2.5485,0.0,0.0,0.0,0.0,0.0,0.0,0.0,0.0,0.0,2.5397,2.5854,2.6091,2.6178,2.5943,0.0,0.0,0.0,0.0,2.748,2.7999,2.8119,2.8146,2.8119,2.8146,2.8159,2.8143,0.0,0.0,2.7618,2.7572,2.7798,2.8324,2.8446,2.8361,2.8189,2.8149,2.8149,2.8165,2.8182,2.8215,2.8322,2.8357,2.8241,3.0778,0.0,0.0,0.0,0.0,2.8363,2.8502,2.847,2.8292,2.8153,2.8014,2.7386,0.0,0.0,0.0,0.0,0.0,0.0,2.816,2.8602,2.9252,2.9548,2.9538,2.9633,2.9661,2.9623,2.9234,2.9016,2.8962,2.869,2.761,2.585,0.0,0.0,0.0,0.0,2.8051,2.812,2.8693,2.9037,2.9037,2.9022,2.8785,2.8336,2.8321,2.8081,2.7615,2.7585,2.7585,2.7585,2.7585,0.0,0.0,0.0,0.0,0.0,0.0,0.0,0.0,0.0,0.0,0.0,0.0,0.0,0.0,0.0,0.0,0.0,0.0,0.0,2.5334,2.5697,2.5879,0.0,0.0,0.0,0.0,0.0,0.0,0.0,0.0,0.0,2.6123,2.5873,2.5798,0.0,0.0,2.7,2.6985,2.7709,2.8139,2.7742,2.8409,0.0,2.8373,2.8676,2.8952,2.8952,2.89,2.8847,2.8795,2.8778,2.883,2.9018,2.9031,2.9031,2.8969,2.9021,2.9142,2.9266,2.9318,2.9318,2.9356,2.936,2.932,3.2886,3.123,3.0082,2.967,2.9853,3.0134,3.0369,3.0545,3.0386,3.0073,2.9682,2.914,2.8677,2.8299,2.8202,0.0,0.0,0.0,2.9713,3.0155,3.0995,3.1396,3.1413,3.1572,3.1638,3.1554,3.0918,3.0552,3.0468,2.9888,2.8826,2.736,0.0,2.7797,2.7812,2.859,2.9009,2.8996,2.9383,2.9608,2.9608,2.9608,2.9413,2.9024,2.8996,2.868,2.8021,2.8004,2.7884,2.7615,2.7585,2.7585,0.0,0.0,0.0,0.0,0.0,0.0,0.0,0.0,0.0,0.0,0.0,2.6378,2.6393,0.0,0.0,0.0,2.6186,2.6051,2.5843,2.6195,0.0,0.0,0.0,0.0,0.0,0.0,0.0,2.5595,2.5682,2.594,2.6389,2.6146,2.6067,2.6413,2.7164,2.7631,2.7519,0.0,2.8738,2.8178,2.8708,2.9015,2.8568,2.8784,2.903,2.9017,2.903,2.903,2.903,2.903,2.9108,2.9315,2.9367,2.9458,2.9684,2.9796,2.9789,2.9636,2.9597,2.9597,2.9597,2.9614,2.9614,3.4787,3.455,3.2887,3.2373,3.2655,3.2678,3.2988,3.3406,3.3261,3.2785,3.2086,3.1888,3.1412,3.0696,3.0555,0.0,3.0584,3.1094,3.1345,3.1451,3.2498,3.2971,3.3016,3.3591,3.3819,3.3668,3.2493,3.1849,3.163,3.0492,2.9891,2.9817,2.9832,2.9743,2.9608,2.9651,2.9668,2.9681,2.9728,2.9744,2.9758,2.9743,2.9728,2.9681,2.9668,2.9368,2.8712,2.8682,2.8395,2.7794,2.7764,2.775,2.775,0.0,0.0,0.0,0.0,0.0,0.0,0.0,0.0,0.0,0.0,0.0,0.0,0.0,0.0,2.7435,2.7366,0.0,2.6952,2.6899,0.0,0.0,0.0,2.6463,2.6319,2.6398,2.643,2.633,0.0,0.0,2.669,2.6739,2.6723,2.672,2.7676,2.8386,2.8369,2.8886,2.9251,2.8951,2.9044,2.9029,2.879,2.8787,2.8895,2.8908,2.8738,2.8825,2.8838,2.8825,2.8999,2.951,2.9581,2.9728,3.0304,3.0367,3.018,2.955,2.9422,2.9422,2.9448,2.9474,2.9505,3.5328,3.4584,3.4171,3.3616,3.3101,3.3497,3.3677,3.3683,3.3406,3.3117,3.2807,3.2287,3.1855,3.1565,3.1286,3.1444,3.1939,3.2221,3.2627,3.311,3.3486,3.3667,3.3667,3.3728,3.3744,3.3668,3.3291,3.3066,3.3006,3.2721,3.2302,3.1839,3.1809,3.1061,2.9681,3.0057,3.0283,3.0296,3.0792,3.1061,3.1032,3.1047,3.0792,3.0283,3.0298,3.0012,2.9398,2.9355,2.9294,2.9142,2.9127,2.9127,2.9127,2.9142,0.0,0.0,0.0,0.0,0.0,0.0,0.0,0.0,0.0,2.7297,2.731,0.0,2.7425,0.0,2.8061,2.8201,2.8049,2.7698,0.0,0.0,2.6957,2.667,2.6339,2.6337,2.6405,2.6588,2.6429,2.6521,2.7096,2.7024,2.6937,2.6949,2.7648,2.8127,2.8001,2.8828,2.9286,2.8892,2.9463,2.9861,2.9396,2.9689,2.9939,2.9977,2.9964,2.9977,2.9945,2.9964,3.0047,3.0157,3.0182,3.0246,3.0349,3.0387,3.0348,3.0173,3.014,3.014,3.014,3.0127,3.0114,3.6306,3.5722,3.5385,3.4816,3.4198,3.4435,3.4637,3.4753,3.4484,3.4106,3.3638,3.2974,3.2628,3.2555,3.2392,3.2557,3.2991,3.3245,3.3604,3.4026,3.4327,3.4463,3.4478,3.4493,3.4508,3.4477,3.4115,3.3933,3.3934,3.3649,3.3305,3.2946,3.2931,3.2407,3.1374,3.1091,3.0957,3.0942,3.1301,3.1496,3.1496,3.1496,3.1331,3.0957,3.0942,3.0643,3.0042,3.0012,2.9877,2.9636,2.9608,2.9608,2.9608,2.9512,2.947,0.0,0.0,0.0,0.0,0.0,0.0,0.0,0.0,0.0,0.0,0.0,2.7995,2.8209,2.8266,2.8197,2.801,2.769,2.7366,2.7082,2.7011,2.6881,2.6602,2.6715,2.6864,2.6961,2.6868,2.6886,2.7142,2.7075,2.696,2.6892,2.7464,2.7964,2.8228,2.8953,2.9429,2.9342,2.9826,3.0139,2.9682,2.991,3.0133,3.0133,3.0133,3.0133,3.0133,3.0133,3.0133,3.0133,3.0133,3.0133,3.0133,3.0145,3.0133,3.0133,3.0133,3.0209,3.0349,3.0387,3.0387,3.7263,3.7086,3.6394,3.5895,3.556,3.5437,3.5594,3.5878,3.5687,3.5179,3.4435,3.3791,3.3553,3.3599,3.3553,3.363,3.3814,3.4099,3.4335,3.4462,3.4962,3.5195,3.5164,3.5374,3.5455,3.5393,3.4827,3.4575,3.4576,3.4007,3.3693,3.3619,3.3649,3.3574,3.3455,3.2347,3.1765,3.175,3.1765,3.172,3.163,3.1645,3.1585,3.1511,3.1496,3.1227,3.0658,3.0627,3.0373,2.9865,2.9834,2.9834,2.9793,2.9612,2.9502,0.0,2.9377,0.0,0.0,0.0,0.0,0.0,0.0,0.0,0.0,2.8709,2.8711,2.864,2.8281,2.7958,2.7749,2.7496,2.7165,2.6766,2.6974,2.7104,2.6999,2.7269,2.7419,2.7298,2.7235,2.7163,2.6994,2.6956,2.6858,2.6747,2.7186,2.7802,2.8474,2.9054,2.9528,2.9999,3.0068,2.9985,2.9819,2.9786,2.983,2.9798,2.9818,2.9779,2.9798,2.9811,2.9798,2.9798,2.9818,2.9811,2.9811,2.9798,2.9798,2.9818,2.9818,2.9934,3.0209,3.0286,3.0324,3.7039,3.6867,3.6699,3.6618,3.652,3.6399,3.5959,3.5344,3.5133,3.496,3.4776,3.4378,3.4383,3.4583,3.4336,3.4234,3.4268,3.4499,3.4607,3.4672,3.5023,3.5115,3.4984,3.5164,3.5149,3.5003,3.4884,3.4906,3.5053,3.4934,3.4687,3.4323,3.4324,3.4039,3.3514,0.0,0.0,0.0,3.3125,3.2871,3.2347,3.2318,3.2063,3.1525,3.1496,0.0,3.1316,3.1301,3.1213,3.1008,3.1094,0.0,0.0,0.0,0.0,0.0,0.0,0.0,0.0,0.0,0.0,0.0,2.9285,2.8879,2.8153,2.8317,2.8583,2.8834,2.8865,2.8896,2.8931,2.833,2.7895,2.7811,2.7581,2.7383,2.7246,2.7287,2.7268,2.7092,2.6914,2.6811,2.676,2.6658,2.6602,2.6618,2.7012,2.7553,2.8156,2.871,2.9233,2.9724,2.9856,2.985,2.9811,2.9779,2.9779,2.9779,2.9779,2.9779,2.9779,2.9792,2.9779,2.9779,2.9779,2.9792,2.9779,2.9779,2.9779,2.9779,2.9779,2.983,2.9908,2.9927,2.9914,3.7337,3.7163,3.6822,3.6638,0.0,3.6475,3.6181,3.571,3.5317,3.4976,3.465,3.4467,3.4498,3.4652,3.4481,3.4465,3.4563,3.4563,3.4614,3.4698,3.4881,3.49,3.4831,3.4951,3.5016,3.4918,3.4918,3.4937,3.5034,3.5065,3.4921,3.4708,3.4708,3.4514,3.4202,3.4282,3.4064,3.3514,3.3499,3.3335,3.3021,3.3006,3.2691,3.2019,3.2004,0.0,0.0,0.0,0.0,0.0,0.0,0.0,0.0,3.0851,0.0,3.0553,3.0341,3.0114,2.996,2.9793,2.956,2.923,2.8976,2.8717,2.8506,2.8651,2.8771,2.8833,2.8763,2.8718,2.8702,2.8249,2.7918,2.7802,2.7583,2.7369,2.7302,2.7214,2.7079,2.6909,2.6777,2.6675,2.6607,2.6568,2.6642,2.6864,2.7123,2.7613,2.8329,2.8731,2.9107,2.9691,2.9779,2.9779,2.9779,2.9779,2.9779,2.9779,2.9779,2.9779,2.9779,2.9689,2.9599,2.958,2.9534,2.9475,2.958,2.9599,2.9611,2.9611,2.9611,2.9573,2.9495,2.9534,2.9573,3.7802,3.766,3.7116,3.6793,3.6635,3.6635,3.6591,3.6446,3.581,0.0,0.0,3.4731,3.4748,3.4731,3.4731,3.4816,3.4966,3.4816,3.4816,3.4983,3.5017,3.5017,3.4983,3.5137,3.5173,3.514,3.5156,3.5173,3.519,3.519,3.5165,3.5064,3.5078,3.5005,3.4918,3.505,3.4679,3.381,3.3781,3.3737,3.3648,3.3633,3.3304,3.2632,3.2632,3.2273,3.153,3.1544,3.1397,3.1043,3.1146,3.1029,3.0702,3.0567,3.0475,3.0332,3.0039,2.9848,2.9769,2.9597,2.9327,2.8988,2.8725,2.8676,2.8919,2.8938,2.8862,2.8709,2.8401,2.817,2.8096,2.7901,2.7673,2.7486,2.7369,2.7268,2.7201,2.7062,2.6875,2.6696,2.6645,2.6624,2.6533,2.6617,2.6771,2.7211,2.7494,2.7921,2.8812,2.9095,2.927,2.9691,2.9779,2.9779,2.9779,2.9779,2.9779,2.9779,2.974,2.9721,2.9689,2.9521,2.9341,2.9353,2.9197,2.9189,2.9314,2.9353,2.9341,2.9341,2.9341,2.9282,2.9131,2.9177,2.9255,3.8132,3.8109,3.8007,3.7945,3.7941,3.7926,3.7618,3.7114,3.6443,3.6127,3.604,3.604,3.6022,3.6022,3.6025,3.6054,3.6075,3.604,3.604,3.6093,3.6248,3.6248,3.6075,3.6266,3.6283,3.6128,3.611,3.6181,3.6353,3.6356,3.6148,3.5802,3.576,3.5463,3.4946,3.4935,3.4863,3.4704,3.4866,3.4681,3.4117,3.4101,3.3774,3.3149,3.3105,3.2808,3.2198,3.2004,3.1543,3.0731,3.0806,3.0657,3.0233,3.0216,3.0261,3.0429,3.0275,3.0241,3.0423,3.029,3.0021,2.9709,2.9623,2.9226,2.8334,2.8243,2.8278,2.8349,2.8125,2.7924,2.8046,2.7779,2.7512,2.7365,2.7315,2.7184,2.6833,2.6803,2.673,2.6593,2.6533,2.6571,2.6642,2.6939,2.7223,2.7419,2.8097,2.8894,2.9415,2.9679,2.9704,2.9767,2.9779,2.9779,2.976,2.9779,2.976,2.9779,2.9592,2.947,2.947,2.9294,2.9138,2.9131,2.9091,2.9091,2.915,2.915,2.915,2.915,2.9138,2.9072,2.8882,2.8882,2.8941,3.8202,3.8202,3.8202,3.8202,3.8202,3.8202,3.8024,3.7767,3.7476,3.6939,3.6315,3.6286,3.6286,3.6286,3.6286,3.6286,3.6286,3.6286,3.6286,3.6301,3.6387,3.6387,3.6315,3.6404,3.6404,3.6301,3.6286,3.6351,3.644,3.6422,3.633,3.6126,3.6111,3.5824,3.5311,3.5267,3.5156,3.4916,3.4999,3.4886,3.459,3.4576,3.4281,3.3631,3.3646,3.3242,3.2435,3.2406,3.2058,3.133,3.1471,3.1346,3.0855,3.0807,3.0775,3.0715,3.0427,3.0302,3.044,3.0071,2.9789,2.9632,2.9561,2.9328,2.8801,2.8803,2.8855,2.8841,2.8701,2.8615,2.8581,2.8121,2.7755,2.7589,2.7225,2.6914,2.6781,2.6897,2.7009,2.6982,2.7198,2.7374,2.7374,2.7587,2.7871,2.816,2.8894,2.9503,2.9773,2.9792,2.9779,2.9779,2.9779,2.9733,2.9631,2.9592,2.9553,2.9456,2.9326,2.9255,2.9236,2.9059,2.8961,2.8922,2.8843,2.8835,2.8914,2.8922,2.8941,2.8941,2.8922,2.8843,2.8697,2.8637,2.8677,3.8202,3.8202,3.8202,3.8202,3.8202,3.8202,3.8202,3.8202,3.8188,3.7651,3.6809,3.6736,3.6718,3.6718,3.6736,3.6736,3.6718,3.6718,3.6736,3.6718,3.6718,3.6751,3.6718,3.6718,3.6736,3.6736,3.6718,3.6718,3.6718,3.6736,3.6646,3.6515,3.637,3.6125,3.5769,3.5755,3.5517,3.5049,3.5022,3.4965,3.4852,3.4852,3.4618,3.4193,3.4117,3.3631,3.279,3.2733,3.2452,3.1852,3.1934,3.1772,3.1327,3.126,3.1132,3.0955,3.0623,3.0466,3.0496,3.0086,2.9833,2.9833,2.9702,2.9613,2.9613,2.9684,2.9572,2.9286,2.9182,2.9111,2.885,2.8487,2.8146,2.7915,2.7443,2.7153,2.7071,2.7306,2.7487,2.7519,2.7846,2.8084,2.8122,2.8222,2.8511,2.9019,2.9528,2.9767,2.9779,2.9753,2.9702,2.9702,2.9721,2.9631,2.9419,2.936,2.9275,2.9123,2.9072,2.904,2.9,2.8863,2.8744,2.8705,2.8578,2.8518,2.8637,2.8618,2.8605,2.8605,2.8645,2.8593,2.855,2.851,2.851,3.8202,3.8202,3.8202,3.8202,3.8202,3.8202,3.8202,3.8202,3.8202,3.8159,3.797,3.8014,3.7984,3.8028,3.7999,3.797,3.797,3.8028,3.7999,3.797,3.8028,3.8028,3.797,3.7999,3.8043,3.7984,3.797,3.7912,3.7912,3.7955,3.7738,3.7201,3.6606,3.6315,3.6231,3.6246,3.5944,3.5371,3.5371,3.5149,3.4758,3.4714,3.4702,3.4658,3.4445,3.4041,3.332,3.3044,3.2438,3.1549,3.1504,3.1324,3.1006,3.0787,3.0832,3.1141,3.0953,3.0931,3.1151,3.1003,3.0815,3.0848,3.0628,3.0497,3.0497,3.0384,2.9934,2.929,2.9054,2.899,2.8682,2.8595,2.8497,2.8361,2.8205,2.8189,2.795,2.7984,2.8016,2.8021,2.8141,2.8122,2.8285,2.858,2.9045,2.949,2.9672,2.9753,2.9702,2.9611,2.947,2.945,2.9419,2.9419,2.9353,2.9236,2.9099,2.9072,2.8941,2.8843,2.8764,2.8657,2.853,2.8451,2.8359,2.8259,2.8231,2.8131,2.8102,2.8271,2.8299,2.8299,2.8451,2.8451,2.8451,3.8202,3.8202,3.8202,3.8202,3.8202,3.8202,3.8202,3.8202,3.8202,3.8202,3.8202,3.8202,3.8202,3.8202,3.8202,3.8202,3.8202,3.8202,3.8202,3.8202,3.8202,3.8202,3.8202,3.8202,3.8202,3.8202,3.8202,3.8202,3.8202,3.8202,3.8072,3.7839,3.7564,3.7259,3.6939,3.6896,3.6577,3.5956,3.5581,3.5296,3.5085,3.4736,3.4465,3.4346,3.4247,3.401,3.3562,3.3277,3.2892,3.2398,3.2218,3.2024,3.1684,3.1578,3.1495,3.1432,3.1246,3.1119,3.1129,3.093,3.083,3.0811,3.0628,3.052,3.0533,3.0444,3.0169,2.9767,2.9758,2.9745,2.947,2.9153,2.8888,2.8691,2.8415,2.8195,2.8109,2.8392,2.858,2.8593,2.8881,2.9089,2.9126,2.9289,2.9458,2.9613,2.967,2.9714,2.9436,2.9373,2.936,2.9236,2.9118,2.9047,2.9047,2.8981,2.8863,2.8756,2.8677,2.8598,2.8447,2.8399,2.8279,2.8195,2.8082,2.801,2.8022,2.7982,2.7941,2.801,2.8022,2.8062,2.8131,2.8143,2.8143,3.8202,3.8202,3.8202,3.8202,3.8202,3.8202,3.8202,3.8202,3.8202,3.8202,3.8202,3.8202,3.8202,3.8202,3.8202,3.8202,3.8202,3.8202,3.8202,3.8202,3.8202,3.8202,3.8202,3.8202,3.8202,3.8202,3.8202,3.8202,3.8202,3.8202,3.8202,3.8202,3.8202,3.7984,3.7607,3.7549,3.7244,3.6591,3.6144,3.572,3.5323,3.4839,3.4452,3.414,3.4023,3.3833,3.3536,3.3329,3.3072,3.2807,3.2632,3.2408,3.2055,3.2,3.1817,3.1466,3.1304,3.1123,3.093,3.0792,3.0679,3.0622,3.0425,3.0311,3.0324,3.0286,3.0171,3.0018,3.0139,3.0114,2.9986,2.9631,2.9309,2.9139,2.8775,2.8561,2.8624,2.8944,2.9145,2.9195,2.9465,2.9779,2.9779,2.9754,2.9677,2.9509,2.956,2.9566,2.9209,2.9177,2.9145,2.902,2.8843,2.8764,2.8784,2.8744,2.8625,2.8486,2.8399,2.8351,2.8159,2.8119,2.8099,2.8034,2.7841,2.7687,2.7615,2.7635,2.7626,2.7708,2.778,2.7841,2.7941,2.7901,2.7901,3.8202,3.8202,3.8202,3.8202,3.8202,3.8202,3.8202,3.8202,3.8202,3.8202,3.8202,3.8202,3.8202,3.8202,3.8202,3.8202,3.8202,3.8202,3.8202,3.8202,3.8231,3.8217,3.8202,3.8202,3.8217,3.8217,3.8202,3.8202,3.8202,3.8202,3.8202,3.8202,3.8202,3.8188,3.8115,3.8101,3.7854,3.7302,3.7143,3.6534,3.535,3.5116,3.4736,3.4143,3.3796,3.3536,3.3312,3.3122,3.2771,3.2259,3.2223,3.2036,3.1669,3.1471,3.1272,3.1048,3.1005,3.093,3.0755,3.0666,3.059,3.0438,3.0228,3.0126,3.0107,2.9972,2.9856,2.9798,2.9856,2.985,2.983,2.9762,2.9705,2.971,2.9691,2.9628,2.9654,2.9591,2.9729,2.9704,2.9741,2.976,2.9779,2.9779,2.9631,2.945,2.9399,2.9334,2.9091,2.8922,2.8882,2.8803,2.8677,2.859,2.8724,2.8625,2.8439,2.8319,2.8239,2.8139,2.801,2.7901,2.7881,2.778,2.7464,2.7237,2.7165,2.7083,2.7033,2.7167,2.7525,2.7647,2.7566,2.78,2.776,3.8202,3.8202,3.8202,3.8202,3.8202,3.8202,3.8202,3.8202,3.8202,3.8202,3.8202,3.8202,3.8202,3.8202,3.8202,3.8202,3.8202,3.8202,3.8202,3.826,3.8638,3.8623,3.826,3.8609,3.8594,3.8246,3.8202,3.8202,3.8202,3.8202,3.8202,3.8202,3.8202,3.8202,3.8202,3.8202,3.8067,3.7854,3.752,3.6979,3.6245,3.5407,3.4654,3.4179,3.3667,3.3312,3.3125,3.27,3.2372,3.2205,3.1963,3.1701,3.1434,3.1211,3.1005,3.0849,3.0798,3.0704,3.0533,3.0381,3.0286,3.0209,3.003,2.9914,2.9895,2.9837,2.9779,2.9779,2.9779,2.9779,2.9779,2.9779,2.9779,2.9779,2.9779,2.9779,2.9779,2.9779,2.9779,2.9779,2.9779,2.974,2.9599,2.9528,2.9392,2.9106,2.9126,2.9052,2.8816,2.8744,2.8764,2.8637,2.855,2.849,2.8387,2.8347,2.8259,2.8199,2.8111,2.7817,2.7615,2.7493,2.7432,2.7147,2.6889,2.6787,2.6704,2.6672,2.6601,2.6695,2.7044,2.7117,2.7056,2.7199,2.7158,3.8202,3.8202,3.8202,3.8202,3.8202,3.8202,3.8202,3.8202,3.8202,3.8202,3.8202,3.8202,3.8202,3.8202,3.8202,3.8202,3.8246,3.842,3.8522,3.8565,3.9,3.9059,3.8899,3.9088,3.8971,3.8551,3.8289,3.8202,3.8202,3.8202,3.8202,3.8202,3.8202,3.8202,3.8202,3.8202,3.8183,3.8036,3.7713,3.728,3.6741,3.5766,3.483,3.4143,3.3517,3.3036,3.2767,3.2386,3.2078,3.1908,3.1638,3.1392,3.1123,3.0986,3.0817,3.0628,3.059,3.0514,3.0343,3.0171,3.0088,3.0011,2.9888,2.9779,2.9779,2.9779,2.9779,2.9779,2.9779,2.9779,2.9779,2.9779,2.9779,2.9779,2.9779,2.9779,2.9779,2.9779,2.9779,2.9792,2.9702,2.958,2.9431,2.9341,2.9177,2.8843,2.8934,2.8855,2.863,2.8598,2.8677,2.853,2.8451,2.8339,2.8207,2.8099,2.7946,2.7878,2.7777,2.7482,2.7217,2.7094,2.6878,2.656,2.6385,2.6302,2.626,2.6239,2.626,2.6281,2.6385,2.6488,2.6488,2.653,2.6571,3.8202,3.8202,3.8202,3.8202,3.8202,3.8202,3.8202,3.8202,3.8202,3.8202,3.8202,3.8202,3.8202,3.8202,3.8202,3.8202,3.8304,3.8812,3.9059,3.9015,3.9126,3.9436,3.9712,3.9363,3.9131,3.8971,3.8492,3.8217,3.8202,3.8202,3.8202,3.8202,3.8202,3.8202,3.8202,3.8179,3.8085,3.7953,3.7853,3.7391,3.6505,3.6151,3.5307,3.4047,3.3349,3.2753,3.2232,3.215,3.1895,3.144,3.131,3.1118,3.0798,3.0717,3.0609,3.0425,3.0406,3.0292,3.0133,3.0088,2.9991,2.9856,2.9811,2.9779,2.9779,2.9779,2.9779,2.9779,2.9779,2.9779,2.9779,2.9779,2.9779,2.9779,2.9779,2.9779,2.9779,2.9779,2.9792,2.9753,2.958,2.9419,2.9341,2.9216,2.9,2.8843,2.8784,2.8724,2.855,2.8498,2.849,2.8451,2.8331,2.8139,2.7998,2.7857,2.7644,2.7482,2.7348,2.7144,2.6839,2.6633,2.6404,2.6124,2.5936,2.5843,2.5706,2.5685,2.5706,2.5727,2.5822,2.5926,2.5978,2.6041,2.6186,3.8202,3.8202,3.8202,3.8202,3.8202,3.8202,3.8202,3.8202,3.8202,3.8202,3.8202,3.8202,3.8202,3.8202,3.8202,3.8202,3.826,3.887,3.8971,3.8667,3.8986,3.9073,3.8928,3.9088,3.8957,3.8551,3.8318,3.8217,3.8231,3.8231,3.8202,3.8202,3.8217,3.8202,3.8212,3.8066,3.7948,3.7891,3.7758,3.7381,3.6824,3.6333,3.5408,3.4094,3.3334,3.2572,3.1646,3.1582,3.1477,3.131,3.1161,3.0968,3.0736,3.0571,3.0406,3.0228,3.019,3.0126,2.9934,2.9888,2.9876,2.9798,2.9779,2.9779,2.9779,2.9779,2.9779,2.9779,2.9779,2.9779,2.9779,2.9779,2.9779,2.9779,2.9779,2.9779,2.9779,2.9779,2.9702,2.956,2.945,2.9314,2.9067,2.8922,2.8823,2.8657,2.8598,2.857,2.851,2.8391,2.8299,2.8279,2.8099,2.7898,2.7736,2.7502,2.7269,2.7053,2.691,2.6766,2.6467,2.6177,2.5936,2.5706,2.5517,2.5369,2.5221,2.5179,2.5221,2.5264,2.539,2.5454,2.5506,2.559,2.5748,3.8202,3.8202,3.8202,3.8202,3.8202,3.8202,3.8202,3.8202,3.8202,3.8202,3.8202,3.8202,3.8202,3.8202,3.8202,3.8202,3.8227,3.8652,3.8609,3.8347,3.8899,3.9044,3.8884,3.9073,3.916,3.8913,3.8681,3.8696,3.8913,3.8913,3.8928,3.8899,3.8681,3.8556,3.8422,3.8083,3.7834,3.7682,3.7457,3.7206,3.6844,3.627,3.543,3.4362,3.3451,3.2551,3.1661,3.1335,3.1198,3.1142,3.0986,3.0773,3.0495,3.0343,3.019,3.0049,2.9991,2.9946,2.9798,2.9798,2.9779,2.9779,2.9779,2.9779,2.9779,2.9779,2.9779,2.9779,2.9779,2.9779,2.9779,2.9779,2.9779,2.9779,2.9779,2.9779,2.9779,2.9702,2.958,2.9399,2.9263,2.9067,2.887,2.8724,2.8645,2.853,2.851,2.8451,2.8379,2.8279,2.8199,2.8027,2.7765,2.7583,2.7421,2.7156,2.686,2.6654,2.6467,2.6333,2.6104,2.5801,2.5538,2.5285,2.5084,2.4956,2.4828,2.4839,2.4882,2.4924,2.4967,2.5031,2.5094,2.5158,2.5264,3.8183,3.8165,3.8202,3.8202,3.8202,3.8202,3.8202,3.8202,3.8202,3.8202,3.8202,3.8202,3.8202,3.8202,3.8202,3.8202,3.8217,3.8246,3.8304,3.8376,3.8797,3.9233,3.9639,3.9363,3.9436,3.9784,3.9465,3.9523,3.9857,3.9886,4.0075,3.977,3.9354,3.9016,3.8659,3.8179,3.773,3.7336,3.7109,3.6889,3.6609,3.6071,3.5344,3.4663,3.358,3.2683,3.2001,3.1337,3.0986,3.0949,3.0773,3.0489,3.0203,3.0094,3.0011,2.985,2.9811,2.9811,2.9779,2.9779,2.9779,2.9779,2.9779,2.9779,2.9779,2.9779,2.9779,2.9779,2.9779,2.9779,2.9779,2.9779,2.9779,2.976,2.974,2.974,2.974,2.9541,2.9373,2.9282,2.9047,2.8803,2.8784,2.8618,2.853,2.849,2.849,2.8359,2.8259,2.8159,2.805,2.7797,2.7461,2.7196,2.6992,2.6715,2.6437,2.6166,2.5968,2.5791,2.5665,2.538,2.5137,2.4914,2.47,2.4583,2.4497,2.4508,2.4529,2.4583,2.4615,2.4658,2.4722,2.4828,2.4871,3.8028,3.7801,3.8071,3.8202,3.8202,3.8202,3.8202,3.8202,3.8202,3.8202,3.8202,3.8202,3.8202,3.8202,3.8202,3.8202,3.8202,3.8202,3.8202,3.8231,3.8347,3.8826,3.932,3.9305,3.9523,4.0002,3.9973,3.9944,4.0089,4.0205,3.9973,3.9465,3.9671,3.9154,3.8294,3.8162,3.7747,3.7146,3.687,3.6496,3.6038,3.5804,3.5197,3.4173,3.3397,3.2653,3.192,3.1167,3.0792,3.0755,3.0451,3.0222,3.0107,2.9972,2.9856,2.9811,2.9779,2.9779,2.9779,2.9779,2.9779,2.9779,2.9779,2.9779,2.9779,2.9779,2.9779,2.9779,2.9779,2.9779,2.9779,2.9779,2.9721,2.9541,2.9502,2.9489,2.947,2.9326,2.9118,2.8969,2.887,2.8744,2.8618,2.8538,2.849,2.8471,2.8379,2.8227,2.8119,2.7866,2.7684,2.7421,2.7124,2.6828,2.6539,2.6271,2.5979,2.5685,2.5454,2.519,2.5084,2.4914,2.4743,2.4583,2.4433,2.4282,2.4196,2.4164,2.4196,2.4261,2.4304,2.4358,2.4497,2.4594,2.4583,3.7653,3.7591,3.7672,3.7801,3.7938,3.7938,3.7938,3.7976,3.8127,3.8202,3.8202,3.8202,3.8202,3.8202,3.8202,3.8202,3.8202,3.8202,3.8202,3.826,3.8522,3.8884,3.916,3.9204,3.9654,4.0452,4.0525,4.0684,4.0916,4.0951,4.0673,4.0365,4.0201,3.9587,3.8562,3.8136,3.769,3.6962,3.6516,3.6045,3.5723,3.544,3.5028,3.4242,3.3614,3.2791,3.1746,3.0887,3.0451,3.0394,3.0222,3.0068,2.9972,2.9856,2.9779,2.9779,2.9779,2.9779,2.9779,2.9779,2.9779,2.9779,2.9779,2.9779,2.9779,2.9779,2.9779,2.9779,2.9779,2.974,2.9631,2.9553,2.9456,2.9294,2.9197,2.9184,2.9263,2.9079,2.8941,2.8823,2.8724,2.8637,2.851,2.851,2.8451,2.8391,2.8279,2.8099,2.7886,2.7571,2.7267,2.7033,2.6725,2.6394,2.6124,2.5864,2.558,2.5264,2.5041,2.4764,2.4636,2.4529,2.4444,2.4325,2.4153,2.4024,2.3959,2.3927,2.397,2.4013,2.4024,2.4067,2.4186,2.4304,2.4304,3.7201,3.7452,3.7134,3.7206,3.7515,3.7572,3.7644,3.7687,3.8033,3.8202,3.8202,3.8202,3.8202,3.8202,3.8202,3.8202,3.8202,3.8202,3.8304,3.8507,3.887,3.9276,3.9596,3.9639,4.022,4.1062,4.1207,4.1482,4.1744,4.1926,4.1788,4.1283,4.0898,4.0173,3.9066,3.8352,3.7544,3.6745,3.612,3.5723,3.548,3.5113,3.4806,3.453,3.3682,3.2657,3.1545,3.0624,3.0126,3.0068,3.0088,2.9972,2.983,2.9792,2.9779,2.9779,2.9779,2.9779,2.9779,2.9779,2.9779,2.9779,2.9779,2.9779,2.9779,2.9779,2.9779,2.9779,2.9779,2.9682,2.947,2.9236,2.9111,2.9032,2.8902,2.8863,2.8954,2.8895,2.8784,2.8752,2.8598,2.853,2.851,2.8471,2.8411,2.8279,2.8119,2.7846,2.7623,2.7339,2.7012,2.6695,2.6343,2.5958,2.5696,2.5443,2.5168,2.4871,2.4679,2.4475,2.4379,2.4272,2.4218,2.4088,2.3916,2.3829,2.3786,2.3764,2.3732,2.3776,2.3797,2.3797,2.3841,2.397,2.4002,3.6875,3.6654,3.6895,3.707,3.7187,3.7457,3.7591,3.7629,3.8028,3.8202,3.8202,3.8202,3.8202,3.8202,3.8202,3.8202,3.8202,3.8231,3.8463,3.9,3.9083,3.9842,4.0452,4.0655,4.1105,4.1715,4.1874,4.1961,4.2057,4.1854,4.1499,4.1056,4.0925,4.0264,3.9056,3.853,3.7764,3.675,3.6015,3.548,3.5093,3.49,3.4694,3.4423,3.334,3.2183,3.118,3.0425,3.0043,2.9927,2.9869,2.985,2.9798,2.9779,2.9779,2.9779,2.9779,2.9779,2.9779,2.9779,2.9779,2.9779,2.9779,2.9779,2.9779,2.9779,2.9779,2.9779,2.9779,2.9663,2.9373,2.9067,2.8902,2.8803,2.8697,2.8578,2.8618,2.8578,2.8578,2.8558,2.853,2.851,2.849,2.8359,2.8259,2.8159,2.7906,2.7592,2.7319,2.7074,2.6715,2.6354,2.5968,2.5591,2.5338,2.5105,2.4828,2.4572,2.439,2.4175,2.4088,2.4067,2.4002,2.3872,2.3699,2.3612,2.3547,2.3438,2.3363,2.3472,2.3559,2.3602,2.3624,2.3711,2.3801,3.6383,3.6391,3.6403,3.6626,3.6998,3.7226,3.7438,3.7649,3.8014,3.8202,3.8202,3.8202,3.8202,3.8202,3.8202,3.8202,3.8202,3.8231,3.8739,3.9421,3.9683,4.035,4.1337,4.157,4.1787,4.2078,4.2078,4.2036,4.1897,4.1729,4.144,4.0924,4.0894,4.0252,3.9159,3.8643,3.7784,3.6721,3.597,3.5379,3.4891,3.4673,3.4507,3.4113,3.3132,3.2087,3.1378,3.0707,3.0217,2.9906,2.9792,2.9779,2.9779,2.9779,2.9779,2.9779,2.9779,2.9779,2.9779,2.9779,2.9779,2.9779,2.9779,2.9779,2.9779,2.9779,2.9779,2.976,2.9682,2.9482,2.9145,2.8863,2.8697,2.8637,2.857,2.851,2.851,2.851,2.851,2.851,2.851,2.851,2.8451,2.8279,2.8119,2.803,2.7623,2.7307,2.7003,2.6727,2.6364,2.5989,2.5612,2.5264,2.4988,2.4743,2.4518,2.4304,2.4153,2.3937,2.3764,2.3786,2.3807,2.3655,2.3503,2.3363,2.3276,2.3144,2.3123,2.3232,2.3341,2.3385,2.3416,2.3426,2.3594,3.5884,3.6212,3.5844,3.6131,3.6744,3.694,3.7134,3.7433,3.7901,3.8052,3.8071,3.8052,3.7938,3.8104,3.8071,3.8089,3.8108,3.8256,3.8793,3.9729,3.9968,4.0731,4.1639,4.1893,4.1881,4.1995,4.1995,4.1877,4.1702,4.1583,4.1289,4.0965,4.0738,4.0164,3.9383,3.8583,3.7776,3.6826,3.5864,3.5312,3.4891,3.4565,3.4243,3.3812,3.3107,3.2382,3.1739,3.1042,3.0394,2.9955,2.9842,2.9792,2.9779,2.9779,2.9779,2.9779,2.9779,2.9779,2.9779,2.9779,2.9779,2.9779,2.9779,2.9779,2.9779,2.9779,2.9753,2.9611,2.9463,2.9165,2.8811,2.8657,2.855,2.851,2.851,2.851,2.851,2.851,2.851,2.851,2.849,2.849,2.8391,2.8219,2.805,2.7829,2.7432,2.7033,2.6715,2.6375,2.6021,2.5654,2.5285,2.4956,2.4679,2.4529,2.4292,2.4024,2.3872,2.3699,2.3503,2.3482,2.3472,2.3428,2.3297,2.3188,2.3144,2.3123,2.3123,2.3101,2.3144,2.3232,2.323,2.3171,2.346,3.5514,3.5562,3.5663,3.579,3.6031,3.6685,3.6856,3.6766,3.7419,3.7706,3.7649,3.738,3.7443,3.7629,3.7706,3.7706,3.7763,3.8049,3.8712,3.9583,3.9973,4.0767,4.1598,4.1779,4.1675,4.1606,4.1647,4.1612,4.1423,4.1241,4.0993,4.0752,4.0501,3.9994,3.9207,3.8288,3.7671,3.7052,3.5889,3.5186,3.4976,3.4456,3.3949,3.3594,3.2967,3.2511,3.2004,3.1193,3.057,3.0444,3.0043,2.9842,2.9779,2.9779,2.9779,2.9779,2.9779,2.9779,2.9779,2.9779,2.9779,2.9779,2.9779,2.9779,2.9779,2.976,2.9663,2.9424,2.9157,2.887,2.8811,2.8618,2.853,2.851,2.851,2.851,2.851,2.851,2.851,2.851,2.849,2.8431,2.8311,2.8119,2.7909,2.7606,2.7208,2.6787,2.6394,2.6052,2.5707,2.5338,2.4988,2.4658,2.4347,2.4261,2.4099,2.3786,2.359,2.3472,2.3297,2.3188,2.3144,2.321,2.321,2.3144,2.3123,2.3101,2.3101,2.3101,2.3101,2.3101,2.3249,2.3386,2.3672,3.5318,3.5399,3.5501,3.5743,3.6085,3.6496,3.6713,3.6758,3.7109,3.7284,3.7226,3.709,3.7109,3.7264,3.7303,3.7303,3.7451,3.7957,3.8625,3.9336,3.9995,4.0676,4.1478,4.1549,4.1388,4.1241,4.1198,4.1156,4.1022,4.0923,4.0645,4.0314,4.0023,3.9615,3.9188,3.8407,3.7745,3.7171,3.6165,3.5276,3.5007,3.4225,3.3649,3.3373,3.3026,3.2668,3.2194,3.1838,3.114,3.0676,3.0349,3.008,2.9892,2.9779,2.9779,2.9779,2.9779,2.9779,2.9779,2.9779,2.9779,2.9779,2.9779,2.9779,2.976,2.967,2.945,2.9157,2.8988,2.8764,2.8657,2.857,2.851,2.851,2.851,2.851,2.851,2.851,2.849,2.849,2.8471,2.8391,2.8251,2.8018,2.7748,2.7391,2.6983,2.655,2.6103,2.5727,2.538,2.5062,2.4722,2.4444,2.4153,2.3991,2.3882,2.359,2.3394,2.3254,2.3188,2.3123,2.3101,2.3123,2.3101,2.3101,2.3101,2.3101,2.3101,2.3101,2.313,2.323,2.3435,2.3662,2.3997,3.5052,3.5216,3.5297,3.5676,3.6152,3.6312,3.6443,3.6705,3.6836,3.6875,3.6856,3.6764,3.6758,3.6842,3.6889,3.6951,3.7091,3.7882,3.8595,3.9324,4.003,4.0718,4.1098,4.1213,4.1086,4.0738,4.0666,4.058,4.0637,4.0494,4.0213,3.9865,3.9438,3.9149,3.8881,3.8247,3.7822,3.7366,3.6493,3.5652,3.4736,3.3909,3.3377,3.3347,3.3197,3.2851,3.2491,3.219,3.175,3.1173,3.0733,3.0387,3.003,2.9874,2.9811,2.9779,2.9779,2.9779,2.9779,2.9779,2.9779,2.9779,2.9779,2.976,2.9611,2.9411,2.9145,2.887,2.8744,2.8677,2.857,2.851,2.851,2.851,2.851,2.851,2.851,2.849,2.8463,2.8463,2.8451,2.8311,2.8111,2.7765,2.7461,2.7126,2.6715,2.626,2.5822,2.5432,2.5084,2.4764,2.4465,2.4239,2.398,2.3742,2.3612,2.3416,2.3254,2.3166,2.3144,2.3101,2.3101,2.3101,2.3101,2.3101,2.3101,2.3101,2.3101,2.312,2.3201,2.3347,2.3594,2.4014,2.4447,3.4481,3.4564,3.497,3.529,3.5562,3.5884,3.5965,3.5911,3.6298,3.6451,3.6437,3.6105,3.6145,3.6377,3.6451,3.6741,3.7276,3.7842,3.8546,3.934,4.0025,4.0491,4.0745,4.0787,4.0537,4.0243,4.0126,4.0219,4.0219,3.9916,3.9631,3.9358,3.9078,3.8787,3.8445,3.7977,3.7626,3.7553,3.6523,3.5375,3.4414,3.375,3.3393,3.3176,3.3111,3.3052,3.2851,3.2528,3.2114,3.1893,3.1065,3.0638,3.0425,3.005,2.9842,2.9779,2.9779,2.9779,2.9779,2.9779,2.9779,2.9779,2.9772,2.965,2.9424,2.9126,2.889,2.8831,2.8645,2.857,2.851,2.851,2.851,2.851,2.851,2.851,2.851,2.849,2.8451,2.8311,2.8291,2.8111,2.7889,2.7522,2.7165,2.6818,2.6437,2.5989,2.5528,2.5126,2.4828,2.4529,2.4207,2.3959,2.3807,2.3569,2.3416,2.3242,2.3166,2.3101,2.3101,2.3101,2.3101,2.3101,2.3101,2.3181,2.3249,2.324,2.314,2.323,2.3418,2.3574,2.374,2.4271,2.4828,3.3747,3.4264,3.4598,3.4812,3.5038,3.5358,3.5501,3.5548,3.5723,3.5898,3.5978,3.5804,3.5824,3.5978,3.5898,3.6245,3.6907,3.7552,3.8277,3.9107,3.9765,4.0215,4.0273,4.0278,4.0083,3.9807,3.9645,3.9499,3.9535,3.9504,3.9269,3.8904,3.863,3.8427,3.8145,3.783,3.7701,3.7335,3.6473,3.5312,3.4413,3.3864,3.3491,3.3128,3.3115,3.3102,3.3027,3.2893,3.2503,3.2244,3.1662,3.1373,3.1022,3.0595,3.0236,3.0231,2.9955,2.9817,2.9779,2.9804,2.9779,2.974,2.9643,2.9424,2.9126,2.891,2.8712,2.8625,2.8538,2.851,2.851,2.851,2.851,2.851,2.851,2.851,2.849,2.849,2.8439,2.8271,2.8091,2.7849,2.7606,2.7258,2.6878,2.6498,2.6135,2.5738,2.5232,2.4732,2.4497,2.4304,2.4002,2.3699,2.3569,2.3394,2.3276,2.3166,2.3166,2.3101,2.3101,2.3101,2.3101,2.3101,2.3101,2.321,2.3357,2.3347,2.3259,2.3457,2.3684,2.3958,2.4232,2.4564,2.5082,3.297,3.3696,3.4,3.428,3.4564,3.4825,3.5052,3.5202,3.5318,3.5419,3.5521,3.5541,3.5528,3.5541,3.548,3.5824,3.657,3.7153,3.7834,3.864,3.9325,3.9692,3.9645,3.9601,3.9513,3.9353,3.9091,3.8957,3.8877,3.8854,3.8814,3.8476,3.8294,3.8076,3.7985,3.7799,3.7595,3.7171,3.6358,3.5466,3.4698,3.4123,3.3727,3.3391,3.319,3.3102,3.3102,3.3077,3.278,3.2554,3.2194,3.188,3.1574,3.1122,3.0821,3.0746,3.0507,3.0376,3.0226,3.0068,2.9835,2.9631,2.9424,2.9106,2.8902,2.8764,2.8677,2.8518,2.851,2.851,2.851,2.851,2.851,2.851,2.851,2.851,2.849,2.8419,2.8299,2.807,2.7829,2.7513,2.7249,2.696,2.661,2.6207,2.5811,2.5443,2.4956,2.4454,2.4239,2.4088,2.3829,2.3547,2.3363,2.3232,2.3144,2.3101,2.3101,2.3101,2.3101,2.3101,2.3101,2.3101,2.313,2.3149,2.3279,2.3327,2.3415,2.3799,2.416,2.4496,2.4789,2.5063,2.5278,3.2235,3.2562,3.3206,3.3717,3.4139,3.4356,3.4564,3.4758,3.5011,3.5093,3.5147,3.5113,3.5134,3.5113,3.5146,3.5495,3.6321,3.6955,3.7402,3.8081,3.8829,3.8831,3.8666,3.8546,3.8621,3.8567,3.8436,3.8327,3.8281,3.8291,3.8281,3.819,3.8011,3.7759,3.7621,3.7515,3.7261,3.6856,3.624,3.58,3.5143,3.4562,3.396,3.3746,3.3391,3.3102,3.3102,3.3102,3.3065,3.2901,3.2554,3.2319,3.2102,3.1637,3.1373,3.1298,3.1094,3.0969,3.0869,3.036,2.98,2.9461,2.9236,2.9102,2.9035,2.8706,2.8566,2.8691,2.8823,2.8679,2.8619,2.8522,2.8631,2.851,2.851,2.851,2.8451,2.8319,2.8159,2.7909,2.7606,2.729,2.6901,2.6622,2.6321,2.5936,2.5432,2.5041,2.4732,2.4282,2.4067,2.3872,2.3646,2.3406,2.3188,2.3101,2.3101,2.3101,2.3101,2.3101,2.3101,2.3101,2.3101,2.324,2.3288,2.3218,2.3296,2.3698,2.4072,2.4332,2.4639,2.4853,2.5088,2.5332,2.5464,3.1959,3.2191,3.2441,3.2905,3.3518,3.3696,3.3979,3.4314,3.4431,3.4577,3.4681,3.4647,3.4667,3.4639,3.4562,3.4921,3.5624,3.5742,3.6278,3.6748,3.7206,3.7175,3.7046,3.7236,3.738,3.752,3.7616,3.7897,3.8024,3.7861,3.7792,3.7723,3.7667,3.7621,3.7459,3.7191,3.6898,3.673,3.6353,3.6001,3.5479,3.5157,3.4565,3.3884,3.3771,3.3391,3.3178,3.3115,3.3102,3.304,3.2817,3.2729,3.2608,3.2152,3.1918,3.183,3.158,3.1347,3.1277,3.0812,3.0434,3.0098,2.9886,2.9691,2.9516,2.9477,2.9493,2.9496,2.9433,2.9268,2.9027,2.8991,2.8943,2.8655,2.8534,2.8558,2.8447,2.8331,2.8059,2.7809,2.7473,2.7115,2.6695,2.6271,2.5968,2.5654,2.5115,2.4658,2.4411,2.4153,2.3937,2.3689,2.3493,2.3341,2.3144,2.3101,2.3101,2.3101,2.3101,2.314,2.3159,2.3101,2.314,2.3308,2.3581,2.3728,2.3994,2.4398,2.4633,2.4697,2.4893,2.5117,2.5371,2.5571,2.5689,3.1783,3.1893,3.1915,3.2288,3.2887,3.3099,3.3364,3.3675,3.3823,3.4,3.4189,3.4189,3.4147,3.4097,3.4004,3.4125,3.4585,3.4745,3.5033,3.5434,3.5675,3.5578,3.5663,3.5939,3.6408,3.6586,3.6939,3.7284,3.7598,3.7446,3.7353,3.7284,3.7273,3.7237,3.7132,3.6875,3.6592,3.6557,3.6449,3.6256,3.5794,3.5531,3.528,3.4389,3.411,3.3721,3.3404,3.3253,3.3102,3.3081,3.2988,3.3013,3.2875,3.2687,3.244,3.2222,3.1963,3.1555,3.1497,3.1034,3.079,3.0361,3.024,3.0148,3.0128,3.0098,2.9929,2.9977,3.0001,2.9929,2.9544,2.952,2.9472,2.9268,2.8919,2.8851,2.857,2.8393,2.8052,2.7728,2.731,2.6828,2.6362,2.5926,2.5549,2.5274,2.4956,2.4551,2.4304,2.4045,2.3797,2.3559,2.3319,2.321,2.3101,2.3101,2.3101,2.3101,2.313,2.3269,2.3279,2.3247,2.3432,2.3786,2.4092,2.4307,2.4505,2.4672,2.4785,2.4912,2.5146,2.54,2.5464,2.5669,2.5825,3.1705,3.1717,3.1717,3.2003,3.241,3.2636,3.2745,3.2905,3.324,3.3492,3.3641,3.3649,3.3556,3.3441,3.3377,3.3474,3.3567,3.3792,3.3979,3.4114,3.4445,3.4547,3.4677,3.4953,3.5508,3.6162,3.65,3.6781,3.7121,3.7121,3.6968,3.6828,3.6828,3.6769,3.6698,3.651,3.6416,3.6405,3.6417,3.6355,3.6205,3.582,3.5531,3.5117,3.4552,3.4126,3.3872,3.3401,3.3238,3.3222,3.2912,3.2909,3.3009,3.2855,3.2759,3.2853,3.266,3.2519,3.2497,3.1204,3.0688,3.0625,3.0619,3.0462,3.0239,3.0182,3.0302,3.0494,3.0347,3.0239,3.0119,3.0062,3.0034,2.9773,2.9412,2.9174,2.8935,2.8502,2.8183,2.774,2.7072,2.6488,2.6009,2.5569,2.5158,2.4871,2.4658,2.4433,2.4175,2.3916,2.3646,2.345,2.32,2.3157,2.3101,2.3101,2.3101,2.3101,2.3218,2.3435,2.361,2.3718,2.3962,2.4316,2.4492,2.4639,2.4717,2.4795,2.5029,2.5249,2.5435,2.563,2.5698,2.5747,2.5884,3.1705,3.1705,3.1705,3.1793,3.1947,3.2157,3.2344,3.2497,3.2671,3.2801,3.2831,3.2853,3.281,3.2757,3.2745,3.2779,3.2773,3.2776,3.29,3.2971,3.3206,3.3261,3.3484,3.4024,3.4627,3.529,3.5785,3.6287,3.664,3.6734,3.6711,3.657,3.6499,3.6523,3.6499,3.6428,3.6405,3.6417,3.6417,3.6405,3.6392,3.618,3.5918,3.5545,3.5082,3.4718,3.4392,3.379,3.348,3.3433,3.3084,3.2881,3.305,3.2939,3.2896,3.2844,3.2615,3.2354,3.2133,3.1438,3.131,3.1204,3.1122,3.1045,3.1129,3.1141,3.1153,3.1105,3.1009,3.0901,3.0732,3.0648,3.0516,3.0119,2.98,2.9675,2.941,2.8834,2.8383,2.7822,2.7209,2.6362,2.574,2.5349,2.4945,2.474,2.4578,2.427,2.3991,2.3742,2.3493,2.3297,2.3144,2.3123,2.311,2.322,2.3415,2.3552,2.364,2.3776,2.3965,2.417,2.4443,2.4756,2.4844,2.4932,2.5088,2.523,2.5435,2.565,2.5689,2.5684,2.5693,2.5776,2.5893,3.125,3.144,3.1418,3.1548,3.1693,3.1827,3.2025,3.2235,3.2257,3.23,3.2422,3.2422,3.2378,3.2313,3.2269,3.2191,3.2169,3.2169,3.2147,3.2169,3.2181,3.2449,3.2798,3.3285,3.4202,3.482,3.5395,3.5883,3.625,3.6405,3.637,3.6299,3.6288,3.6264,3.6275,3.6323,3.6417,3.6417,3.6417,3.6417,3.6405,3.6318,3.6205,3.5893,3.5545,3.5272,3.4805,3.429,3.3774,3.3641,3.3345,3.2953,3.3073,3.2943,3.2844,3.2671,3.241,3.2113,3.1791,3.1703,3.1595,3.1597,3.1705,3.1705,3.1705,3.1597,3.1609,3.1633,3.1705,3.1524,3.1214,3.1141,3.0973,3.0576,3.0389,3.0283,2.9851,2.9284,2.8694,2.8113,2.7459,2.6546,2.5626,2.5136,2.4752,2.4641,2.4527,2.4218,2.3919,2.3712,2.3513,2.3337,2.3259,2.3288,2.3347,2.3435,2.3672,2.3965,2.4082,2.417,2.4434,2.4681,2.4955,2.5166,2.5244,2.5337,2.5532,2.5698,2.5689,2.5679,2.5698,2.5684,2.5693,2.5825,2.5962,3.0456,3.0886,3.0913,3.1271,3.1657,3.1727,3.1827,3.1981,3.1994,3.2113,3.2356,3.2335,3.2213,3.2038,3.2016,3.1915,3.1805,3.1783,3.1783,3.1809,3.1948,3.2209,3.2656,3.3221,3.408,3.4813,3.5301,3.5548,3.5918,3.5967,3.5955,3.6015,3.6063,3.6039,3.6062,3.6228,3.637,3.6417,3.6417,3.6417,3.6417,3.6405,3.6367,3.6143,3.5906,3.5601,3.5208,3.4744,3.4224,3.3869,3.3462,3.3279,3.3028,3.2686,3.2652,3.2497,3.2201,3.1925,3.1749,3.1705,3.1705,3.1705,3.1705,3.1705,3.1705,3.1705,3.1705,3.1705,3.1705,3.1705,3.1633,3.1609,3.1585,3.132,3.1103,3.0757,3.0278,2.9736,2.9119,2.8537,2.7916,2.7064,2.6086,2.546,2.5008,2.4944,2.4825,2.4513,2.4211,2.3902,2.3713,2.355,2.3493,2.3503,2.3591,2.3757,2.4043,2.4375,2.4463,2.457,2.4877,2.5112,2.5273,2.5425,2.5601,2.5708,2.5708,2.5708,2.5708,2.5718,2.5776,2.5893,2.5962,2.5971,2.6118,3.0756,3.0925,3.131,3.1551,3.1693,3.1705,3.1739,3.1783,3.1783,3.1849,3.1881,3.1915,3.1893,3.1771,3.1771,3.1749,3.1727,3.1705,3.1717,3.1791,3.2044,3.2551,3.3044,3.3537,3.4256,3.4738,3.5102,3.5199,3.5211,3.5356,3.5596,3.5692,3.5896,3.586,3.5931,3.6157,3.6299,3.6417,3.6417,3.6417,3.6417,3.6417,3.6417,3.6293,3.6171,3.5962,3.579,3.5265,3.4844,3.4824,3.4313,3.3936,3.3369,3.3216,3.3088,3.2237,3.1937,3.1727,3.1705,3.1705,3.1739,3.1761,3.1727,3.1705,3.1705,3.1705,3.1717,3.1705,3.1705,3.1705,3.1705,3.1705,3.1705,3.1585,3.1384,3.1139,3.0667,3.0225,2.9604,2.8798,2.8188,2.7292,2.6337,2.5855,2.5459,2.5358,2.5183,2.4887,2.4541,2.4249,2.3995,2.3818,2.3854,2.3893,2.4049,2.4215,2.4502,2.4779,2.4853,2.5,2.5273,2.5464,2.5581,2.5615,2.5689,2.5708,2.5708,2.5708,2.5718,2.5854,2.5932,2.6103,2.623,2.6328,2.6465,3.0407,3.0648,3.1153,3.1512,3.1705,3.1705,3.1705,3.1705,3.1705,3.1705,3.1705,3.1705,3.1705,3.1705,3.1705,3.1705,3.1705,3.1705,3.1717,3.1827,3.2309,3.2743,3.3284,3.3802,3.4366,3.4776,3.4981,3.503,3.4981,3.5078,3.532,3.544,3.5716,3.574,3.5788,3.6003,3.6252,3.637,3.6417,3.6417,3.6417,3.6417,3.6417,3.6394,3.6334,3.6252,3.6203,3.5592,3.5455,3.5396,3.4844,3.445,3.3801,3.3466,3.3048,3.2255,3.189,3.1819,3.1827,3.1827,3.1893,3.1915,3.1871,3.1827,3.1783,3.1783,3.1739,3.1705,3.1705,3.1705,3.1705,3.1705,3.1705,3.1693,3.1594,3.1461,3.1097,3.0721,2.9959,2.9071,2.8217,2.7313,2.6647,2.6226,2.5921,2.5793,2.5662,2.5491,2.508,2.4651,2.4389,2.4189,2.4254,2.4342,2.4508,2.4674,2.4912,2.5146,2.5279,2.5445,2.5689,2.5698,2.5669,2.5679,2.5698,2.5728,2.5757,2.5737,2.5757,2.5952,2.6269,2.6494,2.6754,2.6943,2.709,2.9629,3.0191,3.072,3.1308,3.1681,3.1705,3.1705,3.1705,3.1705,3.1705,3.1705,3.1705,3.1705,3.1705,3.1705,3.1705,3.1705,3.1705,3.1825,3.1791,3.2418,3.2959,3.3441,3.3862,3.4487,3.4872,3.5005,3.4957,3.5126,3.5151,3.5126,3.5199,3.5488,3.562,3.5668,3.5979,3.6264,3.637,3.6417,3.6417,3.6417,3.6417,3.6394,3.637,3.6193,3.6039,3.5992,3.5785,3.5542,3.5373,3.5195,3.4936,3.4188,3.3502,3.293,3.2717,3.2381,3.2253,3.2269,3.2266,3.2242,3.224,3.2169,3.2038,3.1937,3.1783,3.1717,3.1705,3.1705,3.1705,3.1705,3.1705,3.1705,3.1705,3.1651,3.1429,3.1092,3.0607,2.9908,2.9057,2.8284,2.7462,2.7121,2.6704,2.6313,2.6217,2.6074,2.5969,2.5561,2.5069,2.4861,2.4648,2.4762,2.4889,2.4996,2.5152,2.5289,2.5484,2.5601,2.565,2.5698,2.5708,2.5708,2.5708,2.5708,2.5786,2.5825,2.5874,2.605,2.6377,2.666,2.6949,2.7203,2.7448,2.7588,2.9625,3.0191,3.1105,3.1587,3.1683,3.1705,3.1705,3.1705,3.1705,3.1705,3.1705,3.1705,3.1705,3.1705,3.1705,3.1705,3.1705,3.1741,3.196,3.2321,3.2791,3.3248,3.3814,3.427,3.4679,3.4787,3.4848,3.4908,3.5078,3.5054,3.503,3.5199,3.5452,3.5596,3.5644,3.6003,3.6323,3.6417,3.6417,3.6417,3.6417,3.6417,3.6394,3.6323,3.6169,3.6122,3.6098,3.6038,3.6023,3.6064,3.5888,3.533,3.4427,3.3751,3.3438,3.3343,3.332,3.3118,3.2977,3.2889,3.2845,3.2584,3.242,3.2206,3.2016,3.1827,3.1729,3.1729,3.1705,3.1705,3.1705,3.1705,3.1705,3.1705,3.1683,3.1374,3.1051,3.042,2.976,2.9073,2.8315,2.7876,2.752,2.7191,2.6825,2.6594,2.6468,2.6256,2.5851,2.543,2.5405,2.5249,2.5367,2.5484,2.5503,2.5474,2.5542,2.5581,2.5659,2.5689,2.5708,2.5684,2.5684,2.5708,2.5728,2.5913,2.6098,2.623,2.6445,2.6777,2.7066,2.733,2.7585,2.7829,2.7949,2.9605,3.0215,3.1238,3.1539,3.1406,3.1575,3.1705,3.1705,3.1705,3.1705,3.1705,3.1705,3.1705,3.1705,3.1705,3.1705,3.1705,3.1705,3.202,3.2503,3.3044,3.3525,3.4042,3.4547,3.4703,3.4799,3.4799,3.4884,3.5005,3.4932,3.4932,3.5078,3.5356,3.562,3.5668,3.6086,3.6394,3.6417,3.6394,3.6394,3.6394,3.6394,3.6417,3.6323,3.6217,3.6181,3.6204,3.6169,3.6217,3.6181,3.5989,3.5653,3.4914,3.4345,3.4078,3.406,3.4015,3.3929,3.3777,3.3664,3.3598,3.3326,3.3121,3.3099,3.3024,3.2807,3.2114,3.2044,3.1753,3.1705,3.1705,3.1705,3.1705,3.1705,3.1639,3.1451,3.0893,3.0227,2.9669,2.9141,2.8437,2.79,2.7586,2.735,2.6982,2.6587,2.65,2.6279,2.5927,2.5708,2.5708,2.5708,2.5708,2.5708,2.564,2.562,2.565,2.5698,2.5708,2.5728,2.5737,2.5703,2.5693,2.5903,2.6079,2.6245,2.6435,2.6611,2.691,2.7242,2.7487,2.7702,2.7946,2.8122,2.8154,2.9491,3.0194,3.1165,3.137,3.1127,3.149,3.1705,3.1705,3.1705,3.1705,3.1705,3.1705,3.1705,3.1705,3.1705,3.1705,3.1705,3.1705,3.2044,3.2527,3.3056,3.3549,3.403,3.4498,3.4703,3.4799,3.4799,3.4799,3.4848,3.4799,3.4848,3.4932,3.5223,3.5596,3.5704,3.6014,3.631,3.6299,3.6299,3.6334,3.6358,3.637,3.637,3.6288,3.6169,3.6133,3.6204,3.6181,3.6146,3.6051,3.5895,3.5583,3.5401,3.4927,3.4935,3.4857,3.4811,3.4654,3.4512,3.4475,3.4479,3.4404,3.4183,3.3964,3.3848,3.3422,3.2747,3.2357,3.2066,3.1813,3.1813,3.1753,3.1753,3.1663,3.1596,3.1473,3.0792,3.0091,2.9577,2.9094,2.8536,2.7951,2.762,2.7394,2.7085,2.6664,2.6376,2.612,2.5912,2.5757,2.5708,2.5708,2.5708,2.5708,2.5708,2.5708,2.5708,2.5708,2.5708,2.5737,2.5796,2.5913,2.6089,2.6377,2.6553,2.668,2.6885,2.708,2.7399,2.7663,2.7829,2.7995,2.8066,2.8213,2.8252,2.8925,3.0146,3.0804,3.1235,3.149,3.1657,3.1705,3.1705,3.1705,3.1705,3.1705,3.1705,3.1705,3.1705,3.1705,3.1705,3.1705,3.1717,3.2044,3.2527,3.3044,3.3525,3.403,3.4535,3.4739,3.4799,3.4799,3.4799,3.4799,3.4799,3.4799,3.4823,3.532,3.55,3.5392,3.5728,3.6074,3.6074,3.6098,3.6109,3.6252,3.6252,3.6241,3.6122,3.5943,3.6086,3.6133,3.5908,3.5908,3.5884,3.5788,3.5572,3.5487,3.5497,3.5566,3.5621,3.5552,3.547,3.5355,3.5128,3.5075,3.4659,3.4371,3.4081,3.3941,3.3801,3.3302,3.3043,3.2694,3.2224,3.2116,3.1948,3.1887,3.1694,3.1547,3.1333,3.0883,3.008,2.9393,2.8897,2.8386,2.788,2.7452,2.7238,2.7071,2.6712,2.6496,2.6217,2.583,2.5757,2.5728,2.5728,2.5728,2.5708,2.5708,2.5708,2.5708,2.5708,2.5796,2.5962,2.6108,2.625,2.6455,2.6787,2.6953,2.708,2.7285,2.7539,2.7725,2.7985,2.8105,2.8232,2.8291,2.8301,2.8301]},{"header":{"parameterUnit":"m.s-1","parameterCategory":1,"la1":31.0,"la2":29.5877,"lo1":-88.7671,"lo2":-86.6584,"dy":0.0162,"dx":0.0185,"nx":115,"ny":88,"refTime":"2023-09-20T06:00:00:Z","depth":0,"parameterNumber":3,"parameterNumberName":"V-component_of_WINDS"},"data":[0.0,0.0,0.0,0.0,0.0,0.0,0.0,0.0,0.0,0.0,0.0,0.0,0.0,0.0,0.0,0.0,0.0,0.0,0.0,0.0,0.0,0.0,0.0,0.0,0.0,0.0,0.0,0.0,0.0,0.0,0.0,0.0,0.0,0.0,0.0,0.0,0.0,0.0,0.0,0.0,0.0,0.0,0.0,0.0,0.0,0.0,0.0,0.0,0.0,0.0,0.0,0.0,0.0,0.0,0.0,0.0,0.0,0.0,0.0,0.0,0.0,0.0,0.0,0.0,0.0,0.0,0.0,0.0,0.0,0.0,0.0,0.0,0.0,0.0,0.0,0.0,0.0,0.0,0.0,0.0,0.0,0.0,0.0,0.0,0.0,0.0,0.0,0.0,0.0,0.0,0.0,0.0,0.0,0.0,0.0,0.0,0.0,0.0,0.0,0.0,0.0,0.0,0.0,0.0,0.0,0.0,0.0,0.0,0.0,0.0,0.0,0.0,0.0,0.0,0.0,0.0,0.0,0.0,0.0,0.0,0.0,0.0,0.0,0.0,0.0,0.0,0.0,0.0,0.0,0.0,0.0,0.0,0.0,0.0,0.0,0.0,0.0,0.0,0.0,0.0,0.0,0.0,0.0,0.0,0.0,0.0,0.0,0.0,0.0,0.0,0.0,0.0,0.0,0.0,0.0,0.0,0.0,0.0,0.0,0.0,0.0,0.0,0.0,0.0,0.0,0.0,0.0,0.0,0.0,0.0,0.0,0.0,0.0,0.0,0.0,0.0,0.0,0.0,0.0,0.0,0.0,0.0,0.0,0.0,0.0,0.0,0.0,0.0,0.0,0.0,0.0,0.0,0.0,0.0,0.0,0.0,0.0,0.0,0.0,0.0,0.0,0.0,0.0,0.0,0.0,0.0,0.0,0.0,0.0,0.0,0.0,0.0,0.0,0.0,0.0,0.0,0.0,0.0,0.0,0.0,0.0,0.0,0.0,0.0,0.0,0.0,0.0,0.0,0.0,0.0,0.0,0.0,0.0,0.0,0.0,0.0,0.0,0.0,0.0,0.0,0.0,0.0,0.0,0.0,0.0,0.0,0.0,0.0,0.0,0.0,0.0,0.0,0.0,0.0,0.0,0.0,0.0,0.0,0.0,0.0,0.0,0.0,0.0,0.0,0.0,0.0,0.0,0.0,0.0,0.0,0.0,0.0,0.0,0.0,0.0,0.0,0.0,0.0,0.0,0.0,0.0,0.0,0.0,0.0,0.0,0.0,0.0,0.0,0.0,0.0,0.0,0.0,0.0,0.0,0.0,0.0,0.0,0.0,0.0,0.0,0.0,0.0,0.0,0.0,0.0,0.0,0.0,0.0,0.0,0.0,0.0,0.0,0.0,0.0,0.0,0.0,0.0,0.0,0.0,0.0,0.0,0.0,0.0,0.0,0.0,0.0,0.0,0.0,0.0,0.0,0.0,0.0,0.0,0.0,0.0,0.0,0.0,0.0,0.0,0.0,0.0,0.0,0.0,0.0,0.0,0.0,0.0,0.0,0.0,0.0,0.0,0.0,0.0,0.0,0.0,0.0,0.0,0.0,0.0,0.0,0.0,0.0,0.0,0.0,0.0,0.0,0.0,0.0,0.0,0.0,0.0,0.0,0.0,0.0,0.0,0.0,0.0,0.0,0.0,0.0,0.0,0.0,0.0,0.0,0.0,0.0,0.0,0.0,0.0,0.0,0.0,0.0,0.0,0.0,0.0,0.0,0.0,0.0,0.0,0.0,0.0,0.0,0.0,0.0,0.0,0.0,0.0,0.0,0.0,0.0,0.0,0.0,0.0,0.0,0.0,0.0,0.0,0.0,0.0,0.0,0.0,0.0,0.0,0.0,0.0,0.0,0.0,0.0,0.0,0.0,0.0,0.0,0.0,0.0,0.0,0.0,0.0,0.0,0.0,0.0,0.0,0.0,0.0,0.0,0.0,0.0,0.0,0.0,0.0,0.0,0.0,0.0,0.0,0.0,0.0,0.0,0.0,0.0,0.0,0.0,0.0,0.0,0.0,0.0,0.0,0.0,0.0,0.0,0.0,0.0,0.0,0.0,0.0,0.0,0.0,0.0,0.0,0.0,0.0,0.0,0.0,0.0,0.0,0.0,0.0,0.0,0.0,0.0,0.0,0.0,0.0,0.0,0.0,0.0,0.0,0.0,0.0,0.0,0.0,0.0,0.0,0.0,0.0,0.0,0.0,0.0,0.0,0.0,0.0,0.0,0.0,0.0,0.0,0.0,0.0,0.0,0.0,0.0,0.0,0.0,0.0,0.0,0.0,0.0,0.0,0.0,0.0,0.0,0.0,0.0,0.0,0.0,0.0,0.0,0.0,0.0,0.0,0.0,0.0,0.0,0.0,0.0,0.0,0.0,0.0,0.0,0.0,0.0,0.0,0.0,0.0,0.0,0.0,0.0,0.0,0.0,0.0,0.0,0.0,0.0,0.0,0.0,0.0,0.0,0.0,0.0,0.0,0.0,0.0,0.0,0.0,0.0,0.0,0.0,0.0,0.0,0.0,0.0,0.0,0.0,0.0,0.0,0.0,0.0,0.0,0.0,0.0,0.0,0.0,0.0,0.0,0.0,0.0,0.0,0.0,0.0,0.0,0.0,0.0,0.0,0.0,0.0,0.0,0.0,0.0,0.0,0.0,0.0,0.0,0.0,0.0,0.0,0.0,0.0,0.0,0.0,0.0,0.0,0.0,0.0,0.0,0.0,0.0,0.0,0.0,0.0,0.0,0.0,0.0,0.0,0.0,0.0,0.0,0.0,0.0,0.0,0.0,0.0,0.0,0.0,0.0,0.0,0.0,0.0,0.0,0.0,0.0,0.0,0.0,0.0,0.0,0.0,0.0,0.0,0.0,0.0,0.0,0.0,0.0,0.0,0.0,0.0,0.0,0.0,0.0,0.0,0.0,0.0,0.0,0.0,0.0,0.0,0.0,0.0,0.0,0.0,0.0,0.0,0.0,0.0,0.0,0.0,0.0,0.0,0.0,0.0,0.0,0.0,0.0,0.0,0.0,0.0,0.0,0.0,0.0,0.0,0.0,0.0,0.0,0.0,0.0,0.0,0.0,0.0,0.0,0.0,0.0,0.0,0.0,0.0,0.0,0.0,0.0,0.0,0.0,0.0,0.0,0.0,0.0,0.0,0.0,0.0,0.0,0.0,0.0,0.0,0.0,0.0,0.0,0.0,0.0,0.0,0.0,0.0,0.0,0.0,0.0,0.0,0.0,0.0,0.0,0.0,0.0,0.0,0.0,0.0,0.0,0.0,0.0,0.0,0.0,0.0,0.0,0.0,0.0,0.0,0.0,0.0,0.0,0.0,0.0,0.0,0.0,0.0,0.0,0.0,0.0,0.0,0.0,0.0,0.0,0.0,0.0,0.0,0.0,0.0,0.0,0.0,0.0,0.0,0.0,0.0,0.0,0.0,0.0,0.0,0.0,0.0,0.0,0.0,0.0,0.0,0.0,0.0,0.0,0.0,0.0,0.0,0.0,0.0,0.0,0.0,0.0,0.0,0.0,0.0,0.0,0.0,0.0,0.0,0.0,0.0,0.0,0.0,0.0,0.0,0.0,0.0,0.0,0.0,0.0,0.0,0.0,0.0,0.0,0.0,0.0,0.0,0.0,0.0,0.0,0.0,0.0,0.0,0.0,0.0,0.0,0.0,0.0,0.0,0.0,0.0,0.0,0.0,0.0,0.0,0.0,0.0,0.0,0.0,0.0,0.0,0.0,0.0,0.0,0.0,0.0,0.0,0.0,0.0,0.0,0.0,0.0,0.0,0.0,0.0,0.0,0.0,0.0,0.0,0.0,0.0,0.0,0.0,0.0,0.0,0.0,0.0,0.0,0.0,0.0,0.0,0.0,0.0,0.0,0.0,0.0,0.0,0.0,0.0,0.0,0.0,0.0,0.0,0.0,0.0,0.0,0.0,0.0,0.0,0.0,0.0,0.0,0.0,0.0,0.0,0.0,0.0,0.0,0.0,0.0,0.0,0.0,0.0,0.0,0.0,0.0,0.0,0.0,0.0,0.0,0.0,0.0,0.0,0.0,0.0,0.0,0.0,0.0,0.0,0.0,0.0,0.0,0.0,0.0,0.0,0.0,0.0,0.0,0.0,0.0,0.0,0.0,0.0,0.0,0.0,0.0,0.0,0.0,0.0,0.0,0.0,0.0,0.0,0.0,0.0,0.0,0.0,0.0,0.0,0.0,0.0,0.0,0.0,0.0,0.0,1.5323,0.0,0.0,0.0,0.0,0.0,0.0,0.0,0.0,0.0,0.0,0.0,0.0,0.0,0.0,0.0,0.0,0.0,0.0,0.0,0.0,0.0,0.0,0.0,0.0,0.0,0.0,0.0,0.0,0.0,0.0,0.0,0.0,0.0,0.0,0.0,0.0,0.0,0.0,0.0,0.0,0.0,0.0,0.0,0.0,0.0,0.0,0.0,0.0,0.0,0.0,0.0,0.0,0.0,0.0,0.0,0.0,0.0,0.0,0.0,0.0,0.0,0.0,0.0,0.0,0.0,0.0,0.0,0.0,0.0,0.0,0.0,0.0,0.0,0.0,0.0,0.0,0.0,0.0,0.0,0.0,0.0,0.0,0.0,0.0,0.0,0.0,0.0,0.0,0.0,0.0,0.0,0.0,0.0,0.0,0.0,0.0,0.0,0.0,0.0,0.0,0.0,0.0,0.0,0.0,0.0,0.0,0.0,0.0,0.0,0.0,1.4222,1.4455,1.4892,1.5244,1.5503,0.0,0.0,0.0,0.0,0.0,0.0,0.0,0.0,0.0,0.0,0.0,0.0,0.0,0.0,0.0,0.0,0.0,0.0,0.0,0.0,0.0,0.0,0.0,0.0,0.0,0.0,0.0,0.0,0.0,0.0,0.0,0.0,0.0,0.0,0.0,0.0,0.0,0.0,0.0,0.0,0.0,0.0,0.0,0.0,0.0,0.0,0.0,0.0,0.0,0.0,0.0,0.0,0.0,0.0,0.0,0.0,0.0,0.0,0.0,0.0,0.0,0.0,0.0,0.0,0.0,0.0,0.0,0.0,0.0,0.0,0.0,0.0,0.0,0.0,0.0,0.0,0.0,0.0,0.0,0.0,0.0,0.0,0.0,0.0,0.0,0.0,0.0,0.0,0.0,0.0,0.0,0.0,0.0,0.0,0.0,0.0,0.0,0.0,0.0,0.0,0.0,0.0,0.0,0.0,0.0,0.0,0.0,0.0,0.0,0.0,0.0,0.0,1.5085,1.5424,1.5704,0.0,0.0,0.0,0.0,0.0,0.0,0.0,0.0,0.0,0.0,0.0,0.0,0.0,0.0,0.0,0.0,0.0,0.0,0.0,0.0,0.0,0.0,0.0,0.0,0.0,0.0,0.0,0.0,0.0,0.0,0.0,0.0,0.0,0.0,0.0,0.0,0.0,0.0,0.0,0.0,0.0,0.0,0.0,0.0,0.0,0.0,0.0,0.0,0.0,0.0,0.0,0.0,0.0,0.0,0.0,0.0,0.0,0.0,0.0,0.0,0.0,0.0,0.0,0.0,0.0,0.0,0.0,0.0,0.0,0.0,0.0,0.0,0.0,0.0,0.0,0.0,0.0,0.0,0.0,0.0,0.0,0.0,0.0,0.0,0.0,0.0,0.0,0.0,0.0,0.0,0.0,0.0,0.0,0.0,0.0,0.0,0.0,0.0,0.0,0.0,0.0,0.0,0.0,0.0,0.0,0.0,0.0,0.0,0.0,0.0,1.4362,1.4685,1.5097,0.0,1.5759,0.0,0.0,0.0,0.0,0.0,0.0,0.0,0.0,0.0,0.0,0.0,0.0,0.0,0.0,0.0,0.0,0.0,0.0,0.0,0.0,0.0,0.0,0.0,0.0,0.0,0.0,0.0,0.0,0.0,0.0,0.0,0.0,0.0,0.0,0.0,0.0,0.0,0.0,0.0,0.0,0.0,0.0,0.0,0.0,0.0,0.0,0.0,0.0,0.0,0.0,0.0,0.0,0.0,0.0,0.0,0.0,0.0,0.0,0.0,0.0,0.0,0.0,0.0,0.0,0.0,0.0,0.0,0.0,0.0,0.0,0.0,0.0,0.0,0.0,0.0,0.0,0.0,0.0,0.0,0.0,0.0,0.0,0.0,0.0,0.0,0.0,0.0,0.0,0.0,0.0,0.0,0.0,0.0,0.0,0.0,0.0,0.0,0.0,0.0,0.0,0.0,0.0,0.0,0.0,0.0,0.0,0.0,0.0,0.0,0.0,1.4443,1.4697,1.5176,1.5525,0.0,0.0,0.0,0.0,0.0,0.0,0.0,0.0,0.0,0.0,0.0,0.0,0.0,0.0,0.0,0.0,0.0,0.0,0.0,0.0,0.0,0.0,0.0,0.0,0.0,0.0,0.0,0.0,0.0,0.0,0.0,0.0,0.0,0.0,0.0,0.0,0.0,0.0,0.0,0.0,0.0,0.0,0.0,0.0,0.0,0.0,0.0,0.0,0.0,0.0,0.0,0.0,0.0,0.0,0.0,0.0,0.0,0.0,0.0,0.0,0.0,0.0,0.0,0.0,0.0,0.0,0.0,0.0,0.0,0.0,0.0,0.0,0.0,0.0,0.0,0.0,0.0,0.0,0.0,0.0,0.0,0.0,0.0,0.0,0.0,0.0,0.0,0.0,0.0,0.0,0.0,0.0,0.0,0.0,0.0,0.0,0.0,0.0,0.0,0.0,0.0,0.0,0.0,0.0,0.0,0.0,0.0,0.0,0.0,0.0,1.4232,1.4477,1.4766,1.5198,1.5513,1.5681,0.0,0.0,0.0,0.0,0.0,0.0,0.0,0.0,0.0,0.0,0.0,0.0,0.0,0.0,0.0,0.0,0.0,0.0,0.0,0.0,0.0,0.0,0.0,0.0,0.0,0.0,0.0,0.0,0.0,0.0,0.0,0.0,0.0,0.0,0.0,0.0,0.0,0.0,0.0,0.0,0.0,0.0,0.0,0.0,0.0,0.0,0.0,0.0,0.0,0.0,0.0,0.0,0.0,0.0,0.0,0.0,0.0,0.0,0.0,0.0,0.0,0.0,0.0,0.0,0.0,0.0,0.0,0.0,0.0,0.0,0.0,0.0,0.0,0.0,0.0,0.0,0.0,0.0,0.0,0.0,0.0,0.0,0.0,0.0,0.0,0.0,0.0,0.0,0.0,0.0,0.0,0.0,0.0,0.0,0.0,0.0,0.0,0.0,0.0,0.0,0.0,0.0,0.0,0.0,0.0,0.0,0.0,0.0,1.4008,1.414,1.4432,1.488,1.5165,1.5425,0.0,0.0,0.0,0.0,0.0,0.0,0.0,0.0,0.0,0.0,0.0,0.0,0.0,0.0,0.0,0.0,0.0,0.0,0.0,0.0,0.0,0.0,0.0,0.0,0.0,0.0,0.0,0.0,0.0,0.0,0.0,0.0,0.0,0.0,0.0,0.0,0.0,0.0,0.0,0.0,0.0,0.0,0.0,0.0,0.0,0.0,0.0,0.0,0.0,0.0,0.0,0.0,0.0,0.0,0.0,0.0,0.0,0.0,0.0,0.0,0.0,0.0,0.0,0.0,0.0,0.0,0.0,0.0,0.0,0.0,0.0,0.0,0.0,0.0,0.0,0.0,0.0,0.0,0.0,0.0,0.0,0.0,0.0,0.0,0.0,0.0,0.0,0.0,0.0,0.0,0.0,0.0,0.0,0.0,0.0,0.0,0.0,0.0,0.0,0.0,0.0,0.0,0.0,0.0,0.0,0.0,0.0,0.0,0.0,1.4116,1.4257,1.4524,1.4892,1.5074,1.5334,0.0,0.0,0.0,0.0,0.0,0.0,0.0,0.0,0.0,0.0,0.0,0.0,0.0,0.0,0.0,0.0,0.0,0.0,0.0,0.0,0.0,0.0,0.0,0.0,0.0,0.0,0.0,0.0,0.0,0.0,0.0,0.0,0.0,0.0,0.0,0.0,0.0,0.0,0.0,0.0,0.0,0.0,0.0,0.0,0.0,0.0,0.0,0.0,0.0,0.0,0.0,0.0,0.0,0.0,0.0,0.0,0.0,0.0,0.0,0.0,0.0,0.0,0.0,0.0,0.0,0.0,0.0,0.0,0.0,0.0,0.0,0.0,0.0,0.0,0.0,0.0,0.0,0.0,0.0,0.0,0.0,0.0,0.0,0.0,0.0,0.0,0.0,0.0,0.0,0.0,0.0,0.0,0.0,0.0,0.0,0.0,0.0,0.0,0.0,0.0,0.0,0.0,0.0,0.0,0.0,0.0,0.0,0.0,0.0,1.4257,0.0,1.457,1.488,1.4983,1.5255,0.0,0.0,0.0,0.0,0.0,0.0,0.0,0.0,0.0,0.0,0.0,0.0,0.0,0.0,0.0,0.0,0.0,0.0,0.0,0.0,0.0,0.0,0.0,0.0,0.0,0.0,0.0,0.0,0.0,0.0,0.0,0.0,0.0,0.0,0.0,0.0,0.0,0.0,0.0,0.0,0.0,0.0,0.0,0.0,0.0,0.0,0.0,0.0,0.0,0.0,0.0,0.0,0.0,0.0,0.0,0.0,0.0,0.0,0.0,0.0,0.0,0.0,0.0,0.0,0.0,0.0,0.0,0.0,0.0,0.0,0.0,0.0,0.0,0.0,0.0,0.0,0.0,0.0,0.0,0.0,0.0,0.0,0.0,0.0,0.0,0.0,0.0,0.0,0.0,0.0,0.0,0.0,0.0,0.0,0.0,0.0,0.0,0.0,0.0,0.0,0.0,0.0,0.0,0.0,0.0,0.0,0.0,0.0,1.4257,1.4385,1.4407,1.4581,1.488,1.4926,1.5198,0.0,0.0,0.0,0.0,0.0,0.0,0.0,0.0,0.0,0.0,0.0,0.0,0.0,0.0,0.0,0.0,0.0,0.0,0.0,0.0,0.0,0.0,0.0,0.0,0.0,0.0,0.0,0.0,0.0,0.0,0.0,0.0,0.0,0.0,0.0,0.0,0.0,0.0,0.0,0.0,0.0,0.0,0.0,0.0,0.0,0.0,0.0,0.0,0.0,0.0,0.0,0.0,0.0,0.0,0.0,0.0,0.0,0.0,0.0,0.0,0.0,0.0,0.0,0.0,0.0,0.0,0.0,0.0,0.0,0.0,0.0,0.0,0.0,0.0,0.0,0.0,0.0,0.0,0.0,0.0,0.0,0.0,0.0,0.0,0.0,0.0,0.0,0.0,0.0,0.0,0.0,0.0,0.0,0.0,0.0,0.0,0.0,0.0,0.0,0.0,0.0,0.0,0.0,0.0,0.0,0.0,0.0,0.0,0.0,1.4407,1.4488,1.4639,1.4903,1.5074,1.5356,0.0,0.0,0.0,0.0,0.0,0.0,0.0,0.0,0.0,0.0,0.0,0.0,0.0,0.0,0.0,0.0,0.0,0.0,0.0,0.0,0.0,0.0,0.0,0.0,0.0,0.0,0.0,0.0,0.0,0.0,0.0,0.0,0.0,0.0,0.0,0.0,0.0,0.0,0.0,0.0,0.0,0.0,0.0,0.0,0.0,0.0,0.0,0.0,0.0,0.0,0.0,0.0,0.0,0.0,0.0,0.0,0.0,0.0,0.0,0.0,0.0,0.0,0.0,0.0,0.0,0.0,0.0,0.0,0.0,0.0,0.0,0.0,0.0,0.0,0.0,0.0,0.0,0.0,0.0,0.0,0.0,0.0,0.0,0.0,0.0,0.0,0.0,0.0,0.0,0.0,0.0,0.0,0.0,0.0,0.0,0.0,0.0,0.0,0.0,0.0,0.0,0.0,0.0,0.0,0.0,0.0,0.0,0.0,0.0,1.48,1.4669,1.4719,1.4983,1.5176,1.548,1.587,0.0,0.0,0.0,0.0,0.0,0.0,0.0,0.0,0.0,0.0,0.0,0.0,0.0,0.0,0.0,0.0,0.0,0.0,0.0,0.0,0.0,0.0,0.0,0.0,0.0,0.0,0.0,0.0,0.0,0.0,0.0,0.0,0.0,0.0,0.0,0.0,0.0,0.0,0.0,0.0,0.0,0.0,0.0,0.0,0.0,0.0,0.0,0.0,0.0,0.0,0.0,0.0,0.0,0.0,0.0,0.0,0.0,0.0,0.0,0.0,0.0,0.0,0.0,0.0,0.0,0.0,0.0,0.0,0.0,0.0,0.0,0.0,0.0,0.0,0.0,0.0,0.0,0.0,0.0,0.0,0.0,0.0,0.0,0.0,0.0,0.0,0.0,0.0,0.0,0.0,0.0,0.0,0.0,0.0,0.0,0.0,0.0,0.0,0.0,0.0,0.0,0.0,0.0,0.0,0.0,0.0,0.0,0.0,1.5563,1.4996,1.4866,1.5165,1.5337,1.5608,0.0,0.0,0.0,0.0,0.0,0.0,0.0,0.0,0.0,0.0,0.0,0.0,0.0,0.0,0.0,0.0,0.0,0.0,0.0,0.0,0.0,0.0,0.0,0.0,0.0,0.0,0.0,0.0,0.0,0.0,0.0,0.0,0.0,0.0,0.0,0.0,0.0,0.0,0.0,0.0,0.0,0.0,0.0,0.0,0.0,0.0,0.0,0.0,0.0,0.0,0.0,0.0,0.0,0.0,0.0,0.0,0.0,0.0,0.0,0.0,0.0,0.0,0.0,0.0,0.0,0.0,0.0,0.0,0.0,0.0,0.0,0.0,0.0,0.0,0.0,0.0,0.0,0.0,0.0,0.0,0.0,0.0,0.0,0.0,0.0,0.0,0.0,0.0,0.0,0.0,0.0,0.0,0.0,0.0,0.0,0.0,0.0,0.0,0.0,0.0,0.0,0.0,0.0,0.0,0.0,0.0,0.0,0.0,0.0,1.6135,1.6009,1.5977,1.6064,1.6391,1.6515,0.0,0.0,0.0,0.0,0.0,0.0,0.0,0.0,0.0,0.0,0.0,0.0,0.0,0.0,0.0,0.0,0.0,0.0,0.0,0.0,0.0,0.0,0.0,0.0,0.0,0.0,0.0,0.0,0.0,0.0,0.0,0.0,0.0,0.0,0.0,0.0,0.0,0.0,0.0,0.0,0.0,0.0,0.0,0.0,0.0,0.0,0.0,0.0,0.0,0.0,0.0,0.0,0.0,0.0,0.0,0.0,0.0,0.0,0.0,0.0,0.0,0.0,0.0,0.0,0.0,0.0,0.0,0.0,0.0,0.0,0.0,0.0,0.0,0.0,0.0,0.0,0.0,0.0,0.0,0.0,0.0,0.0,0.0,0.0,0.0,0.0,0.0,0.0,0.0,0.0,0.0,0.0,0.0,0.0,0.0,0.0,0.0,0.0,0.0,0.0,0.0,0.0,0.0,0.0,0.0,0.0,0.0,0.0,1.6271,1.7113,1.7214,1.736,1.763,1.7274,1.6931,0.0,0.0,0.0,0.0,0.0,0.0,0.0,0.0,0.0,0.0,0.0,0.0,0.0,0.0,0.0,0.0,0.0,0.0,0.0,0.0,0.0,0.0,0.0,0.0,0.0,0.0,0.0,0.0,0.0,0.0,0.0,0.0,0.0,0.0,0.0,0.0,0.0,0.0,0.0,0.0,0.0,0.0,0.0,0.0,0.0,0.0,0.0,0.0,0.0,0.0,0.0,0.0,0.0,0.0,0.0,0.0,0.0,0.0,0.0,0.0,0.0,0.0,0.0,0.0,0.0,0.0,0.0,0.0,0.0,0.0,0.0,0.0,0.0,0.0,0.0,0.0,0.0,0.0,0.0,0.0,0.0,0.0,0.0,0.0,0.0,0.0,0.0,0.0,0.0,0.0,0.0,0.0,0.0,0.0,0.0,0.0,0.0,0.0,0.0,0.0,0.0,0.0,0.0,0.0,0.0,0.0,0.0,0.0,1.7015,1.8143,1.8342,1.8725,1.9195,1.8057,1.7206,0.0,0.0,0.0,0.0,0.0,0.0,0.0,0.0,0.0,0.0,0.0,0.0,0.0,0.0,0.0,0.0,0.0,0.0,0.0,0.0,0.0,0.0,0.0,0.0,0.0,0.0,0.0,0.0,0.0,0.0,0.0,0.0,0.0,0.0,0.0,0.0,0.0,0.0,0.0,0.0,0.0,0.0,0.0,0.0,0.0,0.0,0.0,0.0,0.0,0.0,0.0,0.0,0.0,0.0,0.0,0.0,0.0,0.0,0.0,0.0,0.0,0.0,0.0,0.0,0.0,0.0,0.0,0.0,0.0,0.0,0.0,0.0,0.0,0.0,0.0,0.0,0.0,0.0,0.0,0.0,0.0,0.0,0.0,0.0,0.0,0.0,0.0,0.0,0.0,0.0,0.0,0.0,0.0,0.0,0.0,0.0,0.0,0.0,0.0,0.0,0.0,0.0,0.0,0.0,0.0,0.0,0.0,0.0,1.7324,1.8602,1.8677,1.8832,1.9049,1.8778,1.8462,0.0,0.0,0.0,0.0,0.0,0.0,0.0,0.0,0.0,0.0,0.0,0.0,0.0,0.0,0.0,0.0,0.0,0.0,0.0,0.0,0.0,0.0,0.0,0.0,0.0,0.0,0.0,0.0,0.0,0.0,0.0,0.0,0.0,0.0,0.0,0.0,0.0,0.0,0.0,0.0,0.0,0.0,0.0,0.0,0.0,0.0,0.0,0.0,1.7423,0.0,0.0,0.0,0.0,0.0,0.0,0.0,0.0,0.0,0.0,0.0,0.0,0.0,0.0,0.0,0.0,0.0,0.0,0.0,0.0,0.0,0.0,0.0,0.0,0.0,0.0,0.0,0.0,0.0,0.0,0.0,0.0,0.0,0.0,0.0,0.0,0.0,0.0,0.0,0.0,0.0,0.0,0.0,0.0,0.0,0.0,0.0,0.0,0.0,0.0,0.0,0.0,0.0,0.0,0.0,0.0,0.0,0.0,0.0,1.7944,1.9068,1.8959,1.9106,1.9524,1.9319,1.9019,0.0,0.0,0.0,0.0,0.0,0.0,0.0,0.0,0.0,0.0,0.0,0.0,0.0,0.0,0.0,0.0,0.0,0.0,0.0,0.0,0.0,0.0,0.0,0.0,0.0,0.0,0.0,0.0,0.0,0.0,0.0,0.0,0.0,0.0,0.0,0.0,0.0,0.0,0.0,0.0,0.0,0.0,0.0,0.0,0.0,0.0,0.0,0.0,0.0,0.0,0.0,0.0,0.0,0.0,0.0,0.0,0.0,0.0,0.0,0.0,0.0,0.0,0.0,0.0,0.0,0.0,0.0,0.0,0.0,0.0,0.0,0.0,0.0,0.0,0.0,0.0,0.0,0.0,0.0,0.0,0.0,0.0,0.0,0.0,0.0,0.0,0.0,0.0,0.0,0.0,0.0,0.0,0.0,0.0,0.0,0.0,0.0,0.0,0.0,0.0,0.0,0.0,0.0,0.0,0.0,0.0,0.0,1.7678,1.848,1.9425,1.92,1.9377,2.0084,1.9667,1.9237,1.8807,0.0,0.0,0.0,0.0,0.0,0.0,0.0,0.0,0.0,0.0,0.0,0.0,0.0,0.0,0.0,0.0,0.0,0.0,0.0,0.0,0.0,0.0,0.0,0.0,0.0,0.0,0.0,0.0,0.0,0.0,0.0,0.0,0.0,0.0,0.0,0.0,0.0,0.0,1.5257,1.5998,0.0,0.0,0.0,0.0,0.0,0.0,0.0,0.0,1.9319,0.0,0.0,0.0,0.0,0.0,0.0,0.0,0.0,0.0,0.0,0.0,0.0,0.0,0.0,0.0,0.0,0.0,0.0,0.0,0.0,0.0,0.0,0.0,0.0,0.0,0.0,0.0,0.0,0.0,0.0,0.0,0.0,0.0,0.0,0.0,0.0,0.0,0.0,0.0,0.0,0.0,0.0,0.0,0.0,0.0,0.0,0.0,0.0,0.0,0.0,0.0,0.0,0.0,0.0,0.0,0.0,1.7326,1.7779,1.8468,1.9399,1.9258,1.9338,1.9675,1.9614,1.958,1.9583,0.0,0.0,0.0,0.0,0.0,0.0,0.0,0.0,0.0,0.0,0.0,0.0,0.0,0.0,0.0,0.0,0.0,0.0,0.0,0.0,0.0,0.0,0.0,0.0,0.0,0.0,0.0,0.0,0.0,0.0,0.0,0.0,0.0,0.0,0.0,0.0,0.0,0.0,0.0,1.6681,1.7313,0.0,0.0,0.0,0.0,0.0,0.0,0.0,0.0,1.971,0.0,0.0,0.0,0.0,0.0,0.0,0.0,0.0,0.0,0.0,0.0,0.0,0.0,0.0,0.0,0.0,0.0,0.0,0.0,0.0,0.0,0.0,0.0,0.0,0.0,0.0,0.0,0.0,0.0,0.0,0.0,0.0,0.0,0.0,0.0,0.0,0.0,0.0,0.0,0.0,0.0,0.0,0.0,0.0,0.0,0.0,0.0,0.0,0.0,0.0,0.0,0.0,0.0,0.0,0.0,1.7521,1.8371,1.9047,1.9474,1.9447,1.9486,1.9695,1.9643,1.9656,0.0,0.0,0.0,0.0,0.0,0.0,0.0,0.0,0.0,0.0,0.0,0.0,0.0,0.0,0.0,0.0,0.0,0.0,0.0,0.0,0.0,0.0,0.0,0.0,0.0,0.0,0.0,0.0,0.0,0.0,0.0,0.0,0.0,0.0,0.0,0.0,0.0,0.0,0.0,0.0,1.7566,1.7951,1.8632,0.0,0.0,0.0,0.0,0.0,0.0,2.0237,2.0364,0.0,0.0,0.0,0.0,0.0,0.0,0.0,0.0,0.0,0.0,0.0,0.0,0.0,0.0,0.0,0.0,0.0,0.0,0.0,0.0,0.0,0.0,0.0,0.0,0.0,0.0,0.0,0.0,0.0,0.0,0.0,0.0,0.0,0.0,0.0,0.0,0.0,0.0,0.0,0.0,0.0,0.0,0.0,0.0,0.0,0.0,0.0,0.0,0.0,0.0,0.0,0.0,0.0,0.0,0.0,1.7849,1.8942,1.9526,1.9552,1.9539,1.9591,1.9721,1.9617,1.963,0.0,0.0,0.0,0.0,0.0,0.0,0.0,0.0,0.0,0.0,0.0,0.0,0.0,0.0,0.0,0.0,0.0,0.0,0.0,0.0,0.0,0.0,0.0,0.0,0.0,0.0,0.0,0.0,0.0,0.0,0.0,0.0,0.0,0.0,0.0,0.0,0.0,0.0,0.0,0.0,0.0,1.8595,1.9162,1.9361,0.0,0.0,0.0,0.0,2.0765,2.0855,0.0,0.0,0.0,0.0,0.0,0.0,0.0,0.0,0.0,0.0,0.0,0.0,0.0,0.0,0.0,0.0,0.0,0.0,0.0,0.0,0.0,0.0,0.0,0.0,0.0,0.0,0.0,0.0,0.0,0.0,0.0,0.0,0.0,0.0,0.0,0.0,0.0,0.0,0.0,0.0,0.0,0.0,0.0,0.0,0.0,0.0,0.0,0.0,0.0,0.0,0.0,0.0,0.0,0.0,0.0,0.0,1.8461,1.8996,1.9315,1.9407,1.9315,1.9302,1.9447,1.9433,1.9539,0.0,0.0,0.0,0.0,0.0,0.0,0.0,0.0,0.0,0.0,0.0,0.0,0.0,0.0,0.0,0.0,0.0,0.0,0.0,0.0,0.0,0.0,0.0,0.0,0.0,0.0,0.0,0.0,0.0,0.0,0.0,0.0,0.0,0.0,0.0,0.0,0.0,0.0,0.0,0.0,0.0,1.9162,1.9342,1.9932,2.0348,0.0,0.0,2.1291,2.1393,2.1407,0.0,0.0,0.0,0.0,0.0,0.0,0.0,0.0,0.0,0.0,0.0,0.0,0.0,0.0,0.0,0.0,0.0,0.0,0.0,0.0,0.0,0.0,0.0,0.0,0.0,0.0,0.0,0.0,0.0,0.0,0.0,0.0,0.0,0.0,0.0,0.0,0.0,0.0,0.0,0.0,0.0,0.0,0.0,0.0,0.0,0.0,0.0,0.0,0.0,0.0,0.0,0.0,0.0,0.0,0.0,1.8437,1.8734,1.9254,1.9565,1.9617,1.9486,1.9473,1.9604,1.9499,1.9526,0.0,0.0,0.0,0.0,0.0,0.0,0.0,0.0,0.0,0.0,0.0,0.0,0.0,0.0,0.0,0.0,0.0,0.0,0.0,0.0,0.0,0.0,0.0,0.0,0.0,0.0,0.0,0.0,0.0,0.0,0.0,0.0,0.0,0.0,0.0,0.0,0.0,0.0,0.0,0.0,0.0,0.0,1.9994,2.0573,0.0,0.0,0.0,2.1636,2.2048,0.0,0.0,0.0,0.0,0.0,0.0,0.0,0.0,0.0,0.0,0.0,0.0,0.0,0.0,0.0,0.0,0.0,0.0,0.0,0.0,0.0,0.0,0.0,0.0,0.0,0.0,0.0,0.0,0.0,0.0,0.0,0.0,0.0,0.0,0.0,0.0,0.0,0.0,0.0,0.0,0.0,0.0,0.0,0.0,0.0,0.0,0.0,0.0,0.0,0.0,0.0,0.0,0.0,0.0,0.0,0.0,0.0,1.8945,1.9431,1.9695,1.9643,1.9552,1.9565,1.9682,1.9512,0.0,0.0,0.0,0.0,0.0,0.0,0.0,0.0,0.0,0.0,0.0,0.0,0.0,0.0,0.0,0.0,0.0,0.0,0.0,0.0,0.0,0.0,0.0,0.0,0.0,0.0,0.0,1.5626,0.0,0.0,0.0,0.0,0.0,0.0,0.0,0.0,0.0,0.0,0.0,0.0,0.0,0.0,2.0593,2.0769,2.1299,2.1721,0.0,0.0,2.2287,2.2834,2.3044,2.3272,0.0,0.0,0.0,0.0,0.0,0.0,0.0,0.0,0.0,0.0,0.0,0.0,0.0,0.0,0.0,0.0,0.0,0.0,0.0,0.0,0.0,0.0,0.0,0.0,0.0,0.0,0.0,0.0,0.0,0.0,0.0,0.0,0.0,0.0,0.0,0.0,0.0,0.0,0.0,0.0,0.0,0.0,0.0,0.0,0.0,0.0,0.0,0.0,0.0,0.0,0.0,0.0,0.0,0.0,1.8741,1.9347,1.9409,1.9393,1.9249,1.9223,1.9302,1.942,1.9407,1.9538,0.0,0.0,0.0,0.0,0.0,0.0,0.0,0.0,0.0,0.0,0.0,0.0,0.0,0.0,0.0,0.0,0.0,0.0,0.0,0.0,0.0,0.0,0.0,0.0,0.0,0.0,0.0,0.0,0.0,0.0,0.0,0.0,0.0,0.0,0.0,0.0,0.0,0.0,0.0,0.0,0.0,2.1472,2.1598,2.2233,2.2717,0.0,2.3281,2.3771,2.3811,2.393,2.4021,2.4088,0.0,0.0,0.0,0.0,0.0,0.0,0.0,0.0,0.0,0.0,0.0,0.0,0.0,0.0,0.0,0.0,0.0,0.0,0.0,0.0,0.0,0.0,0.0,0.0,0.0,0.0,0.0,0.0,0.0,0.0,0.0,0.0,0.0,0.0,0.0,0.0,0.0,0.0,0.0,0.0,0.0,0.0,0.0,0.0,0.0,0.0,0.0,0.0,0.0,0.0,0.0,0.0,0.0,1.9277,1.9513,1.9964,2.0178,2.0137,2.0352,2.0552,2.069,2.0552,2.0418,0.0,0.0,0.0,0.0,0.0,0.0,0.0,0.0,0.0,0.0,0.0,0.0,0.0,0.0,0.0,0.0,0.0,0.0,0.0,0.0,0.0,0.0,0.0,0.0,0.0,0.0,0.0,0.0,1.7983,1.835,1.8681,0.0,0.0,0.0,0.0,0.0,0.0,0.0,0.0,0.0,0.0,2.2946,2.3163,2.3939,0.0,0.0,2.5016,2.5283,2.5431,2.5628,2.5779,2.5821,2.6017,0.0,0.0,0.0,0.0,0.0,0.0,0.0,0.0,0.0,0.0,0.0,0.0,0.0,0.0,0.0,0.0,0.0,0.0,0.0,0.0,0.0,0.0,0.0,0.0,0.0,0.0,0.0,0.0,0.0,0.0,0.0,0.0,0.0,0.0,0.0,0.0,0.0,0.0,0.0,0.0,0.0,0.0,0.0,0.0,0.0,0.0,0.0,0.0,0.0,0.0,0.0,0.0,1.9851,1.9786,2.0493,2.0848,2.082,2.1109,2.1295,2.1423,2.1253,2.1093,0.0,0.0,0.0,0.0,0.0,0.0,0.0,0.0,0.0,0.0,0.0,0.0,0.0,0.0,0.0,0.0,0.0,0.0,0.0,0.0,0.0,0.0,0.0,0.0,0.0,0.0,0.0,0.0,1.8684,1.9192,1.9789,0.0,0.0,0.0,0.0,0.0,0.0,0.0,0.0,0.0,0.0,2.4094,2.4528,2.521,2.5805,2.6142,2.631,2.6449,2.6585,2.6797,2.695,2.7021,0.0,0.0,0.0,0.0,0.0,0.0,0.0,0.0,0.0,0.0,0.0,0.0,0.0,0.0,0.0,0.0,0.0,0.0,0.0,0.0,0.0,0.0,0.0,0.0,0.0,0.0,0.0,1.4773,0.0,0.0,1.5399,0.0,0.0,0.0,0.0,0.0,0.0,0.0,0.0,0.0,0.0,0.0,0.0,0.0,0.0,0.0,0.0,0.0,0.0,0.0,0.0,0.0,0.0,2.0382,2.0219,2.0927,2.1241,2.1098,2.1108,2.1205,2.1333,2.1308,2.1366,2.1482,0.0,0.0,0.0,0.0,0.0,0.0,0.0,0.0,0.0,0.0,0.0,0.0,0.0,0.0,0.0,0.0,0.0,0.0,0.0,0.0,0.0,0.0,0.0,0.0,0.0,0.0,1.9371,1.9618,2.0064,0.0,0.0,0.0,0.0,0.0,0.0,0.0,0.0,0.0,2.3169,2.3937,2.4779,2.5572,2.5811,2.6211,2.6828,2.7016,2.7122,2.7135,2.7244,2.7293,0.0,0.0,0.0,0.0,0.0,0.0,0.0,0.0,0.0,0.0,0.0,0.0,0.0,0.0,0.0,0.0,0.0,0.0,0.0,0.0,0.0,0.0,0.0,0.0,0.0,0.0,0.0,1.5159,1.5169,0.0,0.0,0.0,0.0,0.0,0.0,0.0,0.0,0.0,0.0,0.0,1.9166,1.9152,0.0,0.0,0.0,0.0,0.0,0.0,0.0,0.0,0.0,0.0,0.0,0.0,2.0994,2.0965,2.1628,2.1933,2.1914,2.2234,2.2451,2.2482,2.2497,2.2349,2.2046,0.0,0.0,0.0,0.0,0.0,0.0,0.0,0.0,0.0,0.0,0.0,0.0,0.0,0.0,0.0,0.0,0.0,0.0,0.0,0.0,0.0,0.0,0.0,0.0,0.0,1.9858,0.0,0.0,0.0,0.0,0.0,0.0,0.0,0.0,0.0,0.0,2.3344,2.3818,2.4443,2.5388,2.624,2.6814,2.7528,2.8195,0.0,0.0,0.0,0.0,0.0,0.0,0.0,0.0,0.0,0.0,0.0,0.0,0.0,0.0,2.8808,2.7696,2.7468,2.7379,2.7159,0.0,0.0,0.0,0.0,0.0,0.0,0.0,0.0,0.0,0.0,0.0,0.0,0.0,0.0,1.6533,1.6519,1.6885,0.0,0.0,0.0,0.0,0.0,0.0,0.0,0.0,2.0003,2.0246,2.0302,2.0477,2.0637,0.0,2.0715,2.0447,0.0,0.0,0.0,0.0,0.0,0.0,0.0,0.0,2.1638,2.1608,2.2235,2.2583,2.2596,2.292,2.3095,2.3095,2.3095,2.2932,2.2596,2.2245,2.2071,0.0,0.0,0.0,0.0,0.0,0.0,0.0,0.0,0.0,0.0,0.0,0.0,0.0,0.0,0.0,0.0,0.0,0.0,0.0,0.0,0.0,0.0,0.0,2.0673,0.0,0.0,0.0,0.0,0.0,0.0,0.0,0.0,0.0,2.4061,2.4459,2.5024,2.5673,2.6612,2.7435,2.8014,0.0,0.0,0.0,0.0,0.0,0.0,0.0,3.008,3.008,3.0127,3.0189,3.0265,3.0279,3.0337,3.0537,0.0,0.0,2.874,2.8453,2.8438,2.8305,2.8275,2.826,2.8186,2.8157,2.8101,0.0,0.0,0.0,0.0,0.0,0.0,0.0,0.0,1.857,1.8695,0.0,1.8992,0.0,0.0,0.0,0.0,2.0202,2.0267,0.0,0.0,2.1042,2.1344,2.1509,2.2005,2.2311,2.2414,2.1943,2.1819,2.1938,2.1459,0.0,0.0,0.0,0.0,0.0,0.0,2.2272,2.219,2.2835,2.3158,2.3155,2.317,2.3158,2.3145,2.3133,2.3133,2.3093,2.307,2.3083,2.3095,2.3083,0.0,0.0,0.0,0.0,0.0,0.0,0.0,0.0,0.0,0.0,0.0,0.0,0.0,0.0,0.0,0.0,0.0,0.0,0.0,0.0,2.1646,0.0,0.0,0.0,0.0,0.0,0.0,0.0,0.0,0.0,2.5592,2.5214,2.5864,2.6523,2.6806,0.0,0.0,0.0,0.0,2.9468,3.0025,3.0154,3.0183,3.0154,3.0183,3.0197,3.0212,0.0,0.0,3.064,3.0655,3.0872,3.1423,3.1524,3.1258,3.0329,3.0153,3.0153,3.0138,3.0122,3.0091,2.991,2.9849,2.9663,1.9845,0.0,0.0,0.0,0.0,1.8862,1.9112,1.9158,1.949,1.969,1.9752,1.9624,0.0,0.0,0.0,0.0,0.0,0.0,2.1853,2.2271,2.2803,2.3059,2.3103,2.3361,2.3515,2.3563,2.3673,2.3786,2.3821,2.3782,2.2912,2.1333,0.0,0.0,0.0,0.0,2.3512,2.3491,2.4023,2.4311,2.4311,2.4299,2.4126,2.375,2.3738,2.3537,2.312,2.3095,2.3095,2.3095,2.3095,0.0,0.0,0.0,0.0,0.0,0.0,0.0,0.0,0.0,0.0,0.0,0.0,0.0,0.0,0.0,0.0,0.0,0.0,0.0,2.1853,2.224,2.2596,0.0,0.0,0.0,0.0,0.0,0.0,0.0,0.0,0.0,2.7229,2.7145,2.7216,0.0,0.0,2.8954,2.9288,3.0107,3.0641,3.0475,3.1241,0.0,3.1168,3.15,3.1804,3.1804,3.1851,3.1898,3.1945,3.1961,3.2019,3.2192,3.2206,3.2101,3.1893,3.174,3.1629,3.1487,3.144,3.144,3.1377,3.1347,3.1304,2.2182,2.104,1.9981,1.9754,2.0112,2.0638,2.1019,2.1313,2.1574,2.1675,2.1615,2.1464,2.1366,2.1349,2.1542,0.0,0.0,0.0,2.345,2.3772,2.4599,2.4973,2.5015,2.5254,2.5421,2.5495,2.5317,2.5269,2.534,2.4968,2.4108,2.2755,0.0,2.3298,2.3311,2.3963,2.4315,2.433,2.4628,2.4816,2.4816,2.4816,2.4653,2.4327,2.433,2.4039,2.3487,2.3446,2.3346,2.312,2.3095,2.3095,0.0,0.0,0.0,0.0,0.0,0.0,0.0,0.0,0.0,0.0,0.0,2.2133,2.2146,0.0,0.0,0.0,2.239,2.2546,2.2814,2.3124,0.0,0.0,0.0,0.0,0.0,0.0,0.0,2.6708,2.7271,2.7939,2.8642,2.844,2.8354,2.8699,2.9547,3.0153,3.0229,0.0,3.1707,3.1502,3.2129,3.2509,3.2149,3.2427,3.2705,3.269,3.2705,3.2705,3.2705,3.2705,3.2792,3.3026,3.3084,3.3187,3.3404,3.3383,3.3048,3.2342,3.2193,3.2193,3.2193,3.2177,3.2177,2.4585,2.4446,2.2735,2.2379,2.2999,2.3068,2.3476,2.4132,2.4332,2.4287,2.4015,2.4084,2.3968,2.3714,2.3926,0.0,2.4111,2.4789,2.5101,2.5186,2.6346,2.6848,2.6885,2.7293,2.7631,2.7754,2.6815,2.6429,2.657,2.5586,2.5026,2.4992,2.5005,2.4929,2.4816,2.4825,2.4867,2.485,2.4917,2.4958,2.4942,2.4929,2.4917,2.485,2.4867,2.4616,2.4092,2.4067,2.38,2.3271,2.3246,2.3233,2.3233,0.0,0.0,0.0,0.0,0.0,0.0,0.0,0.0,0.0,0.0,0.0,0.0,0.0,0.0,2.3484,2.3684,0.0,2.4241,2.43,0.0,0.0,0.0,2.6377,2.652,2.7426,2.8096,2.8297,0.0,0.0,2.961,2.9697,2.9711,2.974,3.0771,3.1526,3.1541,3.2152,3.2665,3.2723,3.2901,3.2992,3.3046,3.3152,3.324,3.3254,3.3169,3.3196,3.3211,3.3196,3.3433,3.3947,3.4066,3.4198,3.4784,3.478,3.4451,3.3,3.2748,3.2748,3.2777,3.2806,3.2804,2.6201,2.612,2.5662,2.4903,2.4021,2.4505,2.492,2.5238,2.5604,2.5787,2.5834,2.5453,2.5338,2.5419,2.5761,2.6152,2.6534,2.6561,2.6806,2.7172,2.7298,2.7324,2.7354,2.7619,2.7754,2.7785,2.7688,2.7654,2.7726,2.7457,2.7105,2.6716,2.6721,2.6063,2.485,2.5193,2.541,2.5394,2.5866,2.6092,2.6097,2.6109,2.5866,2.541,2.5423,2.5155,2.4641,2.4632,2.4553,2.4399,2.4387,2.4387,2.4387,2.4399,0.0,0.0,0.0,0.0,0.0,0.0,0.0,0.0,0.0,2.3495,2.348,0.0,2.3735,0.0,2.4935,2.5364,2.559,2.5942,0.0,0.0,2.6987,2.7407,2.7725,2.7997,2.844,2.9175,2.945,2.9813,3.0426,3.0646,3.0749,3.0764,3.1319,3.1757,3.1894,3.2909,3.3468,3.3164,3.3781,3.4237,3.3891,3.4153,3.4402,3.4447,3.4432,3.4447,3.4448,3.4432,3.4489,3.4653,3.4682,3.4756,3.4874,3.4918,3.4797,3.4405,3.433,3.433,3.433,3.4316,3.4301,2.7953,2.7972,2.7833,2.7355,2.6688,2.6573,2.6759,2.7183,2.7491,2.7619,2.7575,2.7061,2.6866,2.6985,2.7211,2.744,2.7652,2.7927,2.8197,2.8393,2.8581,2.8662,2.8675,2.8687,2.87,2.8706,2.8531,2.8473,2.8442,2.8204,2.7946,2.7645,2.7663,2.7193,2.6297,2.6088,2.6005,2.5992,2.6323,2.6487,2.6487,2.6487,2.6348,2.6005,2.5992,2.5741,2.518,2.5155,2.5042,2.4813,2.4816,2.4816,2.4816,2.4901,2.492,0.0,0.0,0.0,0.0,0.0,0.0,0.0,0.0,0.0,0.0,0.0,2.4686,2.515,2.5788,2.6265,2.6522,2.6828,2.7158,2.7469,2.8001,2.845,2.8684,2.9059,2.9478,3.0075,3.0236,3.0456,3.0881,3.1043,3.1117,3.1176,3.1663,3.2134,3.2473,3.3344,3.3966,3.4015,3.4577,3.4978,3.4676,3.4943,3.5164,3.5164,3.5164,3.5164,3.5164,3.5164,3.5164,3.5164,3.5164,3.5164,3.5164,3.5179,3.5164,3.5164,3.5164,3.5098,3.4951,3.4918,3.4918,2.974,2.9898,2.9603,2.9689,2.9938,2.8985,2.8823,2.9248,2.945,2.9389,2.9151,2.8733,2.853,2.8506,2.853,2.847,2.8373,2.9124,2.9389,2.9271,2.9828,3.0126,3.0133,2.9946,2.985,2.9863,2.9353,2.9076,2.9045,2.8567,2.8303,2.821,2.8204,2.8172,2.8072,2.7173,2.6713,2.67,2.6713,2.6675,2.66,2.6612,2.6562,2.6499,2.6487,2.626,2.5753,2.5699,2.5515,2.5087,2.5034,2.5034,2.5082,2.5235,2.5364,0.0,2.5509,0.0,0.0,0.0,0.0,0.0,0.0,0.0,0.0,2.5822,2.5937,2.6015,2.6576,2.7028,2.7299,2.7526,2.7825,2.8236,2.8926,2.9417,2.9593,3.0219,3.0687,3.0821,3.0851,3.094,3.1087,3.1146,3.1205,3.1352,3.1901,3.248,3.3009,3.3644,3.4345,3.5124,3.5245,3.5264,3.5379,3.5458,3.5472,3.5473,3.5457,3.5489,3.5473,3.5488,3.5473,3.5473,3.5457,3.5488,3.5488,3.5473,3.5473,3.5457,3.5457,3.5359,3.5098,3.5032,3.4999,3.1425,3.1627,3.1552,3.1587,3.1641,3.1572,3.0916,2.9921,3.0139,3.019,3.0164,3.0381,3.0286,3.0029,3.0311,3.0455,3.0417,3.0421,3.0417,3.0373,3.0177,3.019,3.0311,3.0133,3.012,3.026,3.0158,3.0044,2.9872,2.977,2.9397,2.8769,2.8737,2.853,2.8122,0.0,0.0,0.0,2.7795,2.7582,2.7173,2.7148,2.6934,2.6512,2.6487,0.0,2.6336,2.6323,2.6337,2.6337,2.6236,0.0,0.0,0.0,0.0,0.0,0.0,0.0,0.0,0.0,0.0,0.0,2.8157,2.7676,2.6541,2.7049,2.7392,2.7214,2.8057,2.8583,2.8492,2.9145,2.9588,2.9693,3.0066,3.0378,3.0527,3.0674,3.0821,3.1028,3.1132,3.1219,3.1263,3.1351,3.1424,3.1512,3.2049,3.2691,3.3333,3.3989,3.4647,3.5306,3.5424,3.5455,3.5488,3.5489,3.5489,3.5489,3.5489,3.5489,3.5489,3.5504,3.5489,3.5489,3.5489,3.5504,3.5489,3.5489,3.5489,3.5489,3.5489,3.5472,3.5407,3.539,3.5375,3.2457,3.2627,3.2364,3.2307,0.0,3.252,3.2116,3.1351,3.1177,3.0944,3.0723,3.0898,3.0892,3.0691,3.0911,3.093,3.0849,3.0849,3.0792,3.0698,3.0489,3.0438,3.0546,3.0349,3.0305,3.0387,3.0387,3.0336,3.0254,3.0247,3.0056,2.9644,2.9644,2.951,2.9244,2.915,2.8773,2.8122,2.8109,2.7971,2.7708,2.7695,2.7431,2.6927,2.6884,0.0,0.0,0.0,0.0,0.0,0.0,0.0,0.0,2.7235,0.0,2.754,2.7772,2.799,2.8183,2.8303,2.8546,2.8912,2.9166,2.8874,2.7921,2.8247,2.8459,2.8396,2.9047,2.9448,2.9463,2.9898,3.0234,3.0341,3.0567,3.0732,3.0791,3.0895,3.1014,3.1161,3.1249,3.1336,3.1394,3.1453,3.1645,3.1944,3.2288,3.2871,3.3799,3.4278,3.4727,3.5385,3.5489,3.5489,3.5489,3.5489,3.5489,3.5489,3.5489,3.5489,3.5489,3.5539,3.5589,3.5605,3.5668,3.5717,3.5605,3.5589,3.5604,3.5604,3.5604,3.5636,3.5701,3.5668,3.5636,3.3261,3.3392,3.2946,3.2839,3.2986,3.2986,3.2947,3.2816,3.2208,0.0,0.0,3.1306,3.1287,3.1306,3.1306,3.1211,3.1072,3.1211,3.1211,3.1053,3.1015,3.1015,3.1053,3.0849,3.0778,3.0817,3.0797,3.0778,3.0759,3.0759,3.0669,3.0548,3.056,3.0496,3.0387,3.0235,2.9618,2.8559,2.8472,2.8403,2.8297,2.8284,2.8038,2.7503,2.7503,2.7291,2.6869,2.6793,2.6845,2.7075,2.6897,2.7002,2.7403,2.7553,2.7742,2.81,2.8413,2.8698,2.9032,2.918,2.9423,2.9757,3.0039,2.9923,2.9332,2.9287,2.9306,2.9375,2.97,2.9946,3.0096,3.0249,3.0432,3.0627,3.0732,3.0821,3.0881,3.1028,3.119,3.1292,3.1336,3.138,3.1482,3.1616,3.1869,3.2392,3.2766,3.3275,3.4337,3.4712,3.4922,3.5385,3.5489,3.5489,3.5489,3.5489,3.5489,3.5489,3.5522,3.5538,3.5539,3.5653,3.5752,3.5767,3.5894,3.5926,3.5799,3.5767,3.5752,3.5752,3.5752,3.58,3.5973,3.591,3.5847,3.4184,3.4238,3.4147,3.4128,3.4162,3.4149,3.3908,3.3417,3.2849,3.2529,3.245,3.245,3.247,3.247,3.2437,3.2463,3.2411,3.245,3.245,3.2391,3.2246,3.2246,3.2411,3.2227,3.2207,3.2352,3.2371,3.2293,3.2128,3.2095,3.177,3.1157,3.1086,3.0862,3.0445,3.0368,3.0272,3.0068,2.991,2.9555,2.9042,2.9061,2.8782,2.8281,2.8243,2.7989,2.75,2.7637,2.7601,2.7429,2.7285,2.7453,2.7947,2.8023,2.8405,2.9193,2.9492,2.9945,3.0757,3.1025,3.1258,3.1582,3.1663,3.1204,3.0087,2.9958,2.9897,2.9776,3.0095,3.0175,3.0142,3.0415,3.0656,3.0761,3.0806,3.0895,3.1175,3.1278,3.1366,3.1482,3.1482,3.1526,3.1645,3.2034,3.2407,3.2677,3.3484,3.4473,3.5055,3.537,3.54,3.5474,3.5489,3.5489,3.5506,3.5489,3.5506,3.5489,3.562,3.5671,3.5671,3.5815,3.5942,3.5973,3.6005,3.6005,3.5957,3.5957,3.5957,3.5957,3.5942,3.6021,3.6148,3.6148,3.6101,3.4397,3.4397,3.4397,3.4397,3.4397,3.4397,3.4274,3.4005,3.3744,3.326,3.2698,3.2672,3.2672,3.2672,3.2672,3.2672,3.2672,3.2672,3.2672,3.2685,3.2619,3.2619,3.2698,3.2599,3.2599,3.2685,3.2672,3.2659,3.256,3.2579,3.239,3.2031,3.2019,3.1694,3.1035,3.0997,3.0797,3.0419,3.0324,3.0126,2.9871,2.9858,2.9571,2.901,2.8992,2.8833,2.8539,2.8513,2.8582,2.8803,2.8649,2.8786,2.9312,2.9363,2.9622,3.0216,3.056,3.0903,3.1315,3.1723,3.2015,3.2161,3.2225,3.2041,3.1465,3.133,3.1283,3.1269,3.1424,3.1503,3.1534,3.1369,3.1303,3.1424,3.1249,3.1132,3.1322,3.1737,3.1975,3.2049,3.2377,3.2587,3.2587,3.2841,3.3215,3.3559,3.4473,3.516,3.5443,3.5504,3.5489,3.5489,3.5489,3.5553,3.5588,3.562,3.5652,3.5733,3.5814,3.5847,3.5863,3.6006,3.6085,3.6116,3.6179,3.621,3.6147,3.6116,3.6101,3.6101,3.6116,3.6179,3.632,3.6367,3.6336,3.4397,3.4397,3.4397,3.4397,3.4397,3.4397,3.4397,3.4397,3.4384,3.3901,3.3143,3.3077,3.3097,3.3097,3.3077,3.3077,3.3097,3.3097,3.3077,3.3097,3.3097,3.3091,3.3097,3.3097,3.3077,3.3077,3.3097,3.3097,3.3097,3.3077,3.3032,3.2914,3.2784,3.2384,3.1785,3.1772,3.1423,3.0771,3.0714,3.063,3.0463,3.0463,3.0226,2.9822,2.9821,2.9722,2.9492,2.9409,2.9574,2.9963,2.9876,3.0019,3.0484,3.0552,3.0794,3.1192,3.1573,3.186,3.2101,3.2512,3.2771,3.2771,3.2916,3.2996,3.2996,3.2932,3.2771,3.2633,3.2517,3.258,3.2681,3.2376,3.213,3.2254,3.199,3.1827,3.1871,3.2363,3.2721,3.2796,3.3185,3.3469,3.3514,3.3634,3.3978,3.4622,3.519,3.5474,3.5489,3.5537,3.5554,3.5554,3.5538,3.5588,3.5688,3.5736,3.5831,3.6004,3.6021,3.6022,3.6053,3.6164,3.6258,3.6289,3.6414,3.6461,3.6367,3.6383,3.6367,3.6367,3.6336,3.6352,3.646,3.6492,3.6492,3.4397,3.4397,3.4397,3.4397,3.4397,3.4397,3.4397,3.4397,3.4397,3.4358,3.4188,3.4228,3.4201,3.4241,3.4214,3.4188,3.4188,3.4241,3.4214,3.4188,3.4241,3.4241,3.4188,3.4214,3.4254,3.4201,3.4188,3.4136,3.4136,3.4175,3.3979,3.3496,3.296,3.2698,3.2587,3.26,3.2293,3.1674,3.1674,3.1337,3.0718,3.0679,3.0634,3.0595,3.0777,3.0583,3.01,3.0345,3.0481,3.0367,3.0357,3.0515,3.0838,3.1057,3.1478,3.2213,3.2475,3.2953,3.3736,3.4057,3.4148,3.4223,3.4316,3.4432,3.4432,3.4532,3.4095,3.3179,3.284,3.2948,3.2959,3.2931,3.2964,3.3133,3.306,3.3151,3.3199,3.335,3.3425,3.3395,3.3575,3.3514,3.3709,3.4099,3.4652,3.5222,3.5401,3.5537,3.5554,3.5604,3.5671,3.5687,3.5688,3.5688,3.5767,3.5863,3.5974,3.6021,3.6101,3.6179,3.6242,3.6352,3.6476,3.6538,3.6585,3.6662,3.6708,3.6785,3.6831,3.6677,3.6631,3.6631,3.6538,3.6538,3.6538,3.4397,3.4397,3.4397,3.4397,3.4397,3.4397,3.4397,3.4397,3.4397,3.4397,3.4397,3.4397,3.4397,3.4397,3.4397,3.4397,3.4397,3.4397,3.4397,3.4397,3.4397,3.4397,3.4397,3.4397,3.4397,3.4397,3.4397,3.4397,3.4397,3.4397,3.428,3.4071,3.3822,3.3548,3.326,3.3221,3.2934,3.2339,3.1967,3.1641,3.1349,3.1037,3.093,3.1061,3.1142,3.1199,3.1194,3.1441,3.1591,3.1595,3.1695,3.1919,3.2312,3.2415,3.2686,3.3232,3.3434,3.3738,3.4232,3.4465,3.458,3.4597,3.4733,3.4802,3.4817,3.4868,3.4668,3.4319,3.412,3.4105,3.424,3.3946,3.3787,3.3929,3.3676,3.3453,3.3499,3.3874,3.4099,3.4113,3.4458,3.4666,3.4711,3.4906,3.5223,3.5527,3.5555,3.5569,3.5749,3.5751,3.5736,3.5863,3.5958,3.599,3.599,3.6069,3.6164,3.6273,3.6336,3.6398,3.6492,3.6554,3.6647,3.6785,3.6847,3.6877,3.6892,3.6923,3.6954,3.6877,3.6892,3.6862,3.6785,3.6801,3.6801,3.4397,3.4397,3.4397,3.4397,3.4397,3.4397,3.4397,3.4397,3.4397,3.4397,3.4397,3.4397,3.4397,3.4397,3.4397,3.4397,3.4397,3.4397,3.4397,3.4397,3.4397,3.4397,3.4397,3.4397,3.4397,3.4397,3.4397,3.4397,3.4397,3.4397,3.4397,3.4397,3.4397,3.4201,3.3862,3.3809,3.3535,3.2947,3.2509,3.2163,3.1874,3.1507,3.1294,3.1317,3.1416,3.1619,3.1963,3.215,3.2359,3.2628,3.2775,3.3051,3.3448,3.3501,3.3675,3.4003,3.4125,3.4264,3.4465,3.4614,3.4714,3.4765,3.4885,3.4984,3.4999,3.5032,3.5131,3.5185,3.5133,3.5103,3.5187,3.4847,3.466,3.4726,3.4292,3.4038,3.4113,3.4533,3.4772,3.4832,3.5115,3.5489,3.5489,3.5459,3.5524,3.5638,3.5621,3.5667,3.591,3.591,3.5911,3.6037,3.6179,3.6242,3.6227,3.6258,3.6352,3.6461,3.6554,3.6616,3.6739,3.677,3.6785,3.6908,3.703,3.712,3.715,3.7134,3.7165,3.7105,3.7075,3.703,3.6954,3.6984,3.6984,3.4397,3.4397,3.4397,3.4397,3.4397,3.4397,3.4397,3.4397,3.4397,3.4397,3.4397,3.4397,3.4397,3.4397,3.4397,3.4397,3.4397,3.4397,3.4397,3.4397,3.4424,3.441,3.4397,3.4397,3.441,3.441,3.4397,3.4397,3.4397,3.4397,3.4397,3.4397,3.4397,3.4384,3.4319,3.4306,3.4084,3.3587,3.3443,3.304,3.2251,3.2073,3.1794,3.1458,3.1688,3.1963,3.2169,3.2336,3.2664,3.3224,3.3259,3.3466,3.3813,3.3971,3.4128,3.4332,3.4397,3.4465,3.4647,3.47,3.4767,3.49,3.5082,3.5195,3.5212,3.5326,3.5424,3.5473,3.5424,3.5455,3.5472,3.5351,3.5322,3.5368,3.5385,3.531,3.534,3.5265,3.5429,3.54,3.5444,3.5506,3.5489,3.5489,3.5588,3.5687,3.5704,3.5783,3.6005,3.6116,3.6148,3.6211,3.6336,3.6429,3.6274,3.6352,3.6523,3.6616,3.6677,3.6754,3.6877,3.6984,3.6999,3.7075,3.7285,3.7403,3.7432,3.7491,3.7551,3.7478,3.724,3.715,3.721,3.706,3.709,3.4397,3.4397,3.4397,3.4397,3.4397,3.4397,3.4397,3.4397,3.4397,3.4397,3.4397,3.4397,3.4397,3.4397,3.4397,3.4397,3.4397,3.4397,3.4397,3.445,3.4789,3.4776,3.445,3.4763,3.475,3.4437,3.4397,3.4397,3.4397,3.4397,3.4397,3.4397,3.4397,3.4397,3.4397,3.4397,3.4314,3.4084,3.3783,3.3479,3.3212,3.2623,3.2315,3.2364,3.2194,3.2169,3.2304,3.2735,3.3086,3.3276,3.3536,3.381,3.4005,3.421,3.4397,3.4563,3.4582,3.4666,3.4817,3.4949,3.5032,3.5098,3.5277,3.5375,3.5392,3.5441,3.5489,3.5489,3.5489,3.5489,3.5489,3.5489,3.5489,3.5489,3.5489,3.5489,3.5489,3.5489,3.5489,3.5489,3.5489,3.5522,3.5589,3.5622,3.5735,3.5943,3.5927,3.6037,3.6226,3.6258,3.6242,3.6367,3.646,3.6507,3.6538,3.6569,3.6662,3.6708,3.68,3.6998,3.715,3.724,3.7285,3.7493,3.7654,3.7727,3.7786,3.7784,3.7858,3.7816,3.7567,3.7538,3.7583,3.7479,3.7509,3.4397,3.4397,3.4397,3.4397,3.4397,3.4397,3.4397,3.4397,3.4397,3.4397,3.4397,3.4397,3.4397,3.4397,3.4397,3.4397,3.4437,3.4593,3.4685,3.4724,3.5116,3.5168,3.5025,3.5195,3.509,3.4711,3.4476,3.4397,3.4397,3.4397,3.4397,3.4397,3.4397,3.4397,3.4397,3.4397,3.4418,3.4436,3.4181,3.4048,3.4,3.3499,3.3125,3.3079,3.2937,3.2785,3.2696,3.31,3.3399,3.3588,3.3816,3.4071,3.4264,3.4414,3.4566,3.4733,3.4767,3.4833,3.4983,3.5131,3.5228,3.5294,3.5423,3.5489,3.5489,3.5489,3.5489,3.5489,3.5489,3.5489,3.5489,3.5489,3.5489,3.5489,3.5489,3.5489,3.5489,3.5489,3.5489,3.5504,3.5554,3.5605,3.5703,3.5752,3.591,3.6179,3.6132,3.6195,3.6398,3.6398,3.6336,3.6476,3.6538,3.66,3.6677,3.6785,3.6876,3.6953,3.7029,3.7224,3.7418,3.7507,3.7638,3.7887,3.8033,3.8091,3.8119,3.8134,3.8119,3.8105,3.8033,3.7961,3.7961,3.7932,3.7903,3.4397,3.4397,3.4397,3.4397,3.4397,3.4397,3.4397,3.4397,3.4397,3.4397,3.4397,3.4397,3.4397,3.4397,3.4397,3.4397,3.4489,3.4946,3.5168,3.5129,3.5268,3.5508,3.5757,3.5443,3.5234,3.509,3.4659,3.441,3.4397,3.4397,3.4397,3.4397,3.4397,3.4397,3.4397,3.4452,3.4556,3.4701,3.4724,3.4677,3.4566,3.4569,3.4207,3.3568,3.3825,3.3806,3.3304,3.3329,3.3574,3.3974,3.4094,3.4295,3.4582,3.4681,3.475,3.4885,3.4902,3.5001,3.5164,3.5228,3.531,3.5424,3.5488,3.5489,3.5489,3.5489,3.5489,3.5489,3.5489,3.5489,3.5489,3.5489,3.5489,3.5489,3.5489,3.5489,3.5489,3.5489,3.5504,3.5537,3.5605,3.5688,3.5752,3.5879,3.6053,3.6179,3.6227,3.6274,3.646,3.6476,3.6507,3.6538,3.6631,3.6754,3.6861,3.6968,3.7104,3.7224,3.7298,3.7447,3.7714,3.786,3.7972,3.8189,3.8317,3.8403,3.8472,3.8486,3.8472,3.8458,3.8418,3.8347,3.8288,3.8246,3.8146,3.4397,3.4397,3.4397,3.4397,3.4397,3.4397,3.4397,3.4397,3.4397,3.4397,3.4397,3.4397,3.4397,3.4397,3.4397,3.4397,3.445,3.4999,3.509,3.4816,3.5103,3.5182,3.5051,3.5195,3.5077,3.4711,3.4502,3.441,3.4424,3.4424,3.4397,3.4397,3.441,3.4397,3.4444,3.4577,3.4735,3.4797,3.4942,3.5088,3.5251,3.4972,3.4719,3.4543,3.4331,3.4062,3.3862,3.3868,3.394,3.4094,3.423,3.4431,3.4664,3.4783,3.4902,3.5082,3.5115,3.5195,3.5359,3.5423,3.5408,3.5473,3.5489,3.5489,3.5489,3.5489,3.5489,3.5489,3.5489,3.5489,3.5489,3.5489,3.5489,3.5489,3.5489,3.5489,3.5489,3.5489,3.5554,3.5621,3.5687,3.5799,3.5975,3.6116,3.6195,3.6352,3.6398,3.6445,3.6492,3.6585,3.6631,3.6647,3.6785,3.6938,3.7059,3.7209,3.7404,3.7536,3.7639,3.7742,3.7976,3.8177,3.8317,3.8472,3.8597,3.8694,3.8791,3.8819,3.8791,3.8764,3.8681,3.8639,3.8581,3.8525,3.8444,3.4397,3.4397,3.4397,3.4397,3.4397,3.4397,3.4397,3.4397,3.4397,3.4397,3.4397,3.4397,3.4397,3.4397,3.4397,3.4397,3.4457,3.4803,3.4763,3.4528,3.5025,3.5155,3.5012,3.5182,3.526,3.5038,3.4829,3.4842,3.5038,3.5038,3.5051,3.5025,3.4829,3.4792,3.4824,3.482,3.4859,3.5024,3.5236,3.5501,3.5736,3.5681,3.5585,3.5428,3.5058,3.4754,3.4514,3.4309,3.4196,3.4247,3.4414,3.4631,3.485,3.4983,3.5115,3.5261,3.531,3.5374,3.5473,3.5473,3.5489,3.5489,3.5489,3.5489,3.5489,3.5489,3.5489,3.5489,3.5489,3.5489,3.5489,3.5489,3.5489,3.5489,3.5489,3.5489,3.5489,3.5554,3.5605,3.5704,3.5816,3.5975,3.6133,3.6274,3.6336,3.6476,3.6492,3.6538,3.6569,3.6647,3.6708,3.6815,3.7013,3.7149,3.7269,3.7462,3.7699,3.7845,3.7976,3.8092,3.825,3.8432,3.8583,3.875,3.8903,3.8985,3.9067,3.9037,3.901,3.8983,3.8955,3.8914,3.8873,3.8832,3.8764,3.4418,3.4439,3.4397,3.4397,3.4397,3.4397,3.4397,3.4397,3.4397,3.4397,3.4397,3.4397,3.4397,3.4397,3.4397,3.4397,3.441,3.4437,3.4489,3.4554,3.4933,3.5325,3.5691,3.5443,3.5508,3.5822,3.5534,3.5587,3.5887,3.5913,3.6083,3.5809,3.5512,3.5362,3.5347,3.5061,3.5145,3.5392,3.5602,3.5858,3.6172,3.6626,3.668,3.617,3.5931,3.559,3.5076,3.465,3.4414,3.4448,3.4631,3.4881,3.5129,3.5197,3.5294,3.5455,3.5488,3.5488,3.5489,3.5489,3.5489,3.5489,3.5489,3.5489,3.5489,3.5489,3.5489,3.5489,3.5489,3.5489,3.5489,3.5489,3.5489,3.5506,3.5522,3.5522,3.5522,3.5637,3.5751,3.58,3.599,3.6211,3.6227,3.6383,3.6476,3.6507,3.6507,3.6585,3.6662,3.6739,3.6846,3.7014,3.7239,3.7433,3.7581,3.7801,3.802,3.816,3.8319,3.8462,3.8546,3.8711,3.8846,3.9013,3.9148,3.9245,3.9299,3.9269,3.9255,3.9245,3.9202,3.9175,3.9134,3.9067,3.904,3.4618,3.4867,3.4543,3.4397,3.4397,3.4397,3.4397,3.4397,3.4397,3.4397,3.4397,3.4397,3.4397,3.4397,3.4397,3.4397,3.4397,3.4397,3.4397,3.4424,3.4528,3.4959,3.5404,3.5391,3.5587,3.6018,3.5992,3.5966,3.6096,3.6201,3.5992,3.5534,3.6035,3.5761,3.5167,3.5626,3.5782,3.5676,3.5878,3.6258,3.6713,3.6915,3.6929,3.6766,3.6287,3.583,3.5334,3.4882,3.4614,3.4647,3.4914,3.5113,3.5212,3.5326,3.5424,3.5488,3.5489,3.5489,3.5489,3.5489,3.5489,3.5489,3.5489,3.5489,3.5489,3.5489,3.5489,3.5489,3.5489,3.5489,3.5489,3.5489,3.5538,3.5637,3.5669,3.5654,3.5671,3.5814,3.5958,3.6054,3.6133,3.6258,3.6383,3.6445,3.6507,3.6523,3.6569,3.6662,3.677,3.6937,3.7074,3.7269,3.7461,3.7698,3.7902,3.8135,3.8335,3.8486,3.8639,3.8835,3.8903,3.9013,3.9121,3.9245,3.9339,3.9432,3.9484,3.9481,3.9484,3.9445,3.9418,3.9362,3.9299,3.9215,3.9245,3.4997,3.5093,3.4977,3.4867,3.4688,3.4688,3.4688,3.4647,3.4481,3.4397,3.4397,3.4397,3.4397,3.4397,3.4397,3.4397,3.4397,3.4397,3.4397,3.445,3.4685,3.5012,3.526,3.5299,3.5704,3.6423,3.6488,3.6632,3.6841,3.6832,3.6703,3.6665,3.6757,3.6474,3.5999,3.611,3.6238,3.6007,3.6238,3.6679,3.6993,3.7264,3.7358,3.7287,3.6804,3.6258,3.5569,3.5104,3.4914,3.4964,3.5113,3.5245,3.5326,3.5424,3.5489,3.5489,3.5489,3.5489,3.5489,3.5489,3.5489,3.5489,3.5489,3.5489,3.5489,3.5489,3.5489,3.5489,3.5489,3.5522,3.5588,3.5652,3.5733,3.5815,3.5894,3.5879,3.5816,3.599,3.6101,3.6195,3.6274,3.6367,3.6492,3.6492,3.6538,3.6585,3.6647,3.6785,3.6922,3.7133,3.7358,3.7551,3.7771,3.8003,3.8189,3.8389,3.8602,3.8764,3.8931,3.9107,3.9188,3.9255,3.9309,3.9405,3.9511,3.959,3.9629,3.9625,3.9599,3.9573,3.959,3.9563,3.9468,3.9418,3.9418,3.5534,3.527,3.5548,3.5501,3.5175,3.5113,3.5065,3.499,3.4585,3.4397,3.4397,3.4397,3.4397,3.4397,3.4397,3.4397,3.4397,3.4397,3.4489,3.4672,3.4999,3.5365,3.5652,3.5691,3.6214,3.6972,3.7103,3.7351,3.7586,3.7792,3.7916,3.7746,3.7558,3.7421,3.7031,3.6874,3.6614,3.6506,3.6715,3.6993,3.7226,3.7572,3.7777,3.7765,3.7243,3.6589,3.5852,3.5385,3.5195,3.5245,3.5228,3.5326,3.5472,3.5504,3.5489,3.5489,3.5489,3.5489,3.5489,3.5489,3.5489,3.5489,3.5489,3.5489,3.5489,3.5489,3.5489,3.5489,3.5489,3.557,3.5671,3.5863,3.5989,3.6053,3.6132,3.6164,3.6116,3.6163,3.6227,3.6227,3.6398,3.6476,3.6492,3.6523,3.6569,3.6647,3.677,3.6952,3.7119,3.7329,3.7566,3.7816,3.8062,3.8349,3.8502,3.8669,3.8849,3.904,3.9161,3.9312,3.9349,3.9415,3.9471,3.955,3.9655,3.9707,3.9733,3.9746,3.9742,3.9716,3.9703,3.9703,3.9677,3.9599,3.9603,3.5844,3.6098,3.5824,3.5642,3.5521,3.5236,3.5093,3.5052,3.4618,3.4397,3.4397,3.4397,3.4397,3.4397,3.4397,3.4397,3.4397,3.4424,3.4633,3.5116,3.5229,3.5874,3.6423,3.6606,3.7011,3.756,3.7704,3.7782,3.791,3.8018,3.7943,3.7704,3.8247,3.8209,3.7551,3.7616,3.7559,3.7438,3.7254,3.7307,3.7591,3.7796,3.7986,3.8021,3.7314,3.6617,3.6066,3.5505,3.5292,3.539,3.5439,3.5455,3.5473,3.5489,3.5489,3.5489,3.5489,3.5489,3.5489,3.5489,3.5489,3.5489,3.5489,3.5489,3.5489,3.5489,3.5489,3.5489,3.5489,3.5587,3.5751,3.5975,3.6132,3.6211,3.632,3.6414,3.6383,3.6414,3.6414,3.643,3.6476,3.6492,3.6507,3.6585,3.6662,3.6739,3.6907,3.7118,3.7344,3.7522,3.7801,3.8078,3.8319,3.8572,3.8738,3.889,3.9067,3.9228,3.9365,3.9498,3.955,3.9563,3.9603,3.9681,3.9785,3.9836,3.9875,3.9939,3.9961,3.9897,3.9845,3.982,3.9807,3.9755,3.9906,3.6344,3.6391,3.6324,3.6071,3.569,3.548,3.5256,3.5031,3.4605,3.4397,3.4397,3.4397,3.4397,3.4397,3.4397,3.4397,3.4397,3.4424,3.4881,3.5495,3.573,3.6332,3.722,3.7429,3.7625,3.7887,3.7887,3.7933,3.8057,3.8154,3.8181,3.8163,3.8765,3.8702,3.8314,3.8475,3.8366,3.7984,3.7946,3.7939,3.7911,3.8005,3.8156,3.8221,3.7655,3.7115,3.6617,3.6112,3.5733,3.5561,3.5504,3.5489,3.5489,3.5489,3.5489,3.5489,3.5489,3.5489,3.5489,3.5489,3.5489,3.5489,3.5489,3.5489,3.5489,3.5489,3.5489,3.5506,3.557,3.5686,3.5911,3.6164,3.632,3.6367,3.6445,3.6492,3.6492,3.6492,3.6492,3.6492,3.6492,3.6492,3.6538,3.6647,3.677,3.6862,3.7119,3.7328,3.7596,3.7817,3.8048,3.8305,3.8558,3.8764,3.8942,3.9121,3.9285,3.9418,3.9511,3.9642,3.9746,3.9733,3.972,3.9811,3.9901,3.9961,4.0011,4.0087,4.01,4.0037,3.9973,3.9948,3.9952,3.9969,4.0255,3.6836,3.6569,3.6875,3.6567,3.5951,3.575,3.5548,3.529,3.4729,3.4564,3.4543,3.4564,3.4688,3.4535,3.4543,3.4522,3.4501,3.4484,3.4967,3.6087,3.6027,3.6755,3.7615,3.7887,3.7959,3.7979,3.7979,3.808,3.8213,3.8313,3.8545,3.8917,3.9211,3.9297,3.9255,3.9305,3.9246,3.8722,3.8501,3.8452,3.8203,3.8262,3.8366,3.8513,3.817,3.7789,3.7285,3.6749,3.6222,3.5699,3.5564,3.5504,3.5489,3.5489,3.5489,3.5489,3.5489,3.5489,3.5489,3.5489,3.5489,3.5489,3.5489,3.5489,3.5489,3.5489,3.5537,3.5604,3.5702,3.5895,3.618,3.6352,3.646,3.6492,3.6492,3.6492,3.6492,3.6492,3.6492,3.6492,3.6507,3.6507,3.6585,3.6693,3.6846,3.7014,3.7285,3.7551,3.7801,3.8064,3.8307,3.853,3.875,3.8985,3.9161,3.9255,3.9448,3.959,3.9681,3.9785,3.9901,3.9914,3.9897,3.9922,3.9999,4.0062,4.0087,4.01,4.01,4.0113,4.0087,4.0037,4.0083,4.0185,4.0582,3.722,3.7148,3.7051,3.69,3.6665,3.6011,3.5864,3.6012,3.5277,3.497,3.5031,3.5318,3.5223,3.5052,3.497,3.497,3.4908,3.4827,3.5318,3.6391,3.6428,3.6949,3.7951,3.8158,3.8272,3.8376,3.833,3.834,3.8544,3.8711,3.8944,3.9225,3.954,3.9776,3.9897,3.9648,3.9697,3.969,3.9037,3.8568,3.8759,3.8648,3.8627,3.8859,3.8471,3.8192,3.7931,3.7133,3.6432,3.6282,3.5804,3.5564,3.5489,3.5489,3.5489,3.5489,3.5489,3.5489,3.5489,3.5489,3.5489,3.5489,3.5489,3.5489,3.5489,3.5506,3.5587,3.5734,3.5926,3.6133,3.618,3.6383,3.6476,3.6492,3.6492,3.6492,3.6492,3.6492,3.6492,3.6492,3.6507,3.6554,3.6647,3.677,3.6953,3.718,3.7449,3.7727,3.8003,3.8262,3.8518,3.8738,3.8942,3.9175,3.9392,3.9445,3.9567,3.9733,3.9849,3.9897,3.9999,4.0062,4.0087,4.0049,4.0049,4.0087,4.01,4.0113,4.0113,4.0113,4.0113,4.0113,4.032,4.0557,4.1001,3.738,3.7303,3.7206,3.6973,3.664,3.6258,3.6038,3.5965,3.5602,3.5419,3.548,3.5622,3.5602,3.544,3.5399,3.5399,3.5385,3.5473,3.6018,3.6802,3.7011,3.7396,3.8342,3.8408,3.8553,3.8711,3.8756,3.88,3.8971,3.9047,3.9336,3.9703,4.0023,4.04,4.0625,4.0561,4.0432,4.0565,3.9684,3.9093,3.9308,3.8983,3.8966,3.8946,3.8883,3.8674,3.8282,3.7943,3.7152,3.6598,3.6209,3.5848,3.5624,3.5489,3.5489,3.5489,3.5489,3.5489,3.5489,3.5489,3.5489,3.5489,3.5489,3.5489,3.5506,3.5555,3.5687,3.5926,3.6038,3.6242,3.6352,3.6445,3.6492,3.6492,3.6492,3.6492,3.6492,3.6492,3.6507,3.6507,3.6523,3.6585,3.6693,3.6846,3.7075,3.7315,3.7611,3.7918,3.8203,3.8458,3.8711,3.8917,3.9134,3.9309,3.9511,3.9633,3.9698,3.9849,3.9965,4.0024,4.0062,4.01,4.0113,4.01,4.0113,4.0113,4.0113,4.0113,4.0113,4.0113,4.0163,4.0286,4.0641,4.0984,4.1512,3.7629,3.7476,3.7399,3.7065,3.6628,3.647,3.6284,3.5991,3.5884,3.5844,3.5864,3.5931,3.5965,3.5851,3.5858,3.5878,3.6014,3.6264,3.6705,3.744,3.7574,3.8012,3.8577,3.8769,3.8904,3.9211,3.9314,3.9402,3.9372,3.9491,3.9777,4.0126,4.0573,4.0851,4.0972,4.1059,4.1186,4.1047,4.0441,3.9989,3.9652,3.931,3.9123,3.9174,3.9301,3.9107,3.8721,3.8362,3.7838,3.715,3.6626,3.6254,3.5789,3.5563,3.5488,3.5489,3.5489,3.5489,3.5489,3.5489,3.5489,3.5489,3.5489,3.5506,3.5604,3.5719,3.5911,3.6133,3.6258,3.6336,3.6445,3.6492,3.6492,3.6492,3.6492,3.6492,3.6492,3.6507,3.6554,3.6554,3.6538,3.6647,3.68,3.7013,3.7239,3.7508,3.7801,3.8119,3.8418,3.8653,3.8903,3.9107,3.9295,3.9458,3.9616,3.9759,3.9836,3.9952,4.0024,4.0075,4.0087,4.0113,4.0113,4.0113,4.0113,4.0113,4.0113,4.0113,4.0113,4.0146,4.0235,4.0489,4.0865,4.1593,4.229,3.8127,3.8052,3.7706,3.7433,3.7148,3.6836,3.6758,3.6783,3.6457,3.6331,3.6318,3.662,3.6581,3.6377,3.6331,3.6621,3.6831,3.6783,3.7264,3.824,3.8148,3.8424,3.9091,3.9216,3.9447,3.9719,3.9865,3.9826,3.9826,4.0047,4.0329,4.0623,4.0866,4.1142,4.1408,4.1309,4.1287,4.1616,4.0966,4.0338,3.9983,3.9472,3.9314,3.9319,3.9373,3.9346,3.9107,3.8766,3.8272,3.805,3.7062,3.6553,3.6299,3.5772,3.5564,3.5489,3.5489,3.5489,3.5489,3.5489,3.5489,3.5489,3.5521,3.5572,3.5734,3.5927,3.6117,3.6164,3.6336,3.6445,3.6492,3.6492,3.6492,3.6492,3.6492,3.6492,3.6492,3.6507,3.6538,3.6647,3.6662,3.68,3.6968,3.7194,3.7432,3.7728,3.802,3.8305,3.8614,3.8876,3.9067,3.9255,3.9455,3.9629,3.972,3.9862,3.9952,4.0054,4.0075,4.0113,4.0113,4.0113,4.0113,4.0113,4.0113,4.0202,4.032,4.0303,4.018,4.0286,4.0561,4.0832,4.1119,4.1986,4.2949,3.8778,3.8348,3.8047,3.7825,3.7615,3.7341,3.7206,3.7134,3.6993,3.685,3.6772,3.6915,3.6895,3.6772,3.685,3.7166,3.7557,3.7634,3.8151,3.8979,3.9035,3.9218,3.9577,3.9711,3.9908,4.0156,4.0343,4.0459,4.0451,4.0508,4.0709,4.1086,4.129,4.1479,4.1765,4.1602,4.1825,4.1968,4.1635,4.0937,4.0293,3.9913,3.9692,3.9436,3.9421,3.9406,3.9316,3.92,3.8736,3.8469,3.7734,3.7389,3.6971,3.6462,3.6074,3.6028,3.5699,3.5534,3.5489,3.5519,3.5489,3.5522,3.5603,3.5734,3.5927,3.6101,3.6258,3.6352,3.6445,3.6492,3.6492,3.6492,3.6492,3.6492,3.6492,3.6492,3.6507,3.6507,3.6523,3.6677,3.6816,3.6999,3.718,3.7388,3.7638,3.7931,3.8205,3.8474,3.8807,3.9151,3.9299,3.9418,3.9603,3.9785,3.9862,3.9965,4.0011,4.0075,4.0075,4.0113,4.0113,4.0113,4.0113,4.0113,4.0113,4.0252,4.0506,4.0489,4.0337,4.0629,4.0971,4.1444,4.1918,4.2493,4.3389,3.9466,3.8848,3.8557,3.8281,3.8052,3.7839,3.7629,3.7462,3.738,3.7284,3.7187,3.7167,3.7153,3.7167,3.7307,3.7545,3.7994,3.8599,3.9136,3.9578,3.9973,4.0215,4.0343,4.0386,4.0473,4.0574,4.088,4.1008,4.1057,4.1078,4.117,4.1486,4.1654,4.1827,4.191,4.2026,4.226,4.2478,4.2149,4.1525,4.0896,4.0487,4.0106,3.975,3.9511,3.9406,3.9406,3.9376,3.9065,3.8796,3.8409,3.8035,3.7629,3.709,3.6731,3.6641,3.6357,3.6161,3.5982,3.5833,3.5595,3.5588,3.5734,3.5943,3.6132,3.6242,3.6336,3.6461,3.6492,3.6492,3.6492,3.6492,3.6492,3.6492,3.6492,3.6492,3.6507,3.6538,3.6631,3.6831,3.7014,3.7225,3.7419,3.7579,3.7828,3.8132,3.8401,3.8669,3.8985,3.9325,3.9458,3.955,3.9707,3.9875,3.9961,4.0037,4.0087,4.0113,4.0113,4.0113,4.0113,4.0113,4.0113,4.0113,4.0163,4.0197,4.0371,4.0455,4.0608,4.1221,4.1847,4.2374,4.2882,4.3355,4.3727,4.0119,3.9854,3.9268,3.883,3.846,3.824,3.8052,3.7848,3.7668,3.7591,3.7567,3.7572,3.7553,3.7572,3.7648,3.7857,3.8232,3.8815,3.9414,3.9954,4.0428,4.0696,4.088,4.102,4.1191,4.1268,4.1444,4.1598,4.164,4.1604,4.164,4.1723,4.1939,4.2166,4.229,4.2357,4.2581,4.2726,4.2431,4.2241,4.1697,4.119,4.0472,4.0217,3.975,3.9406,3.9406,3.9406,3.9361,3.9167,3.8796,3.8559,3.8257,3.7704,3.7389,3.73,3.7139,3.6989,3.687,3.6302,3.5752,3.5779,3.6064,3.6423,3.6625,3.6537,3.6522,3.6722,3.6892,3.6707,3.663,3.6507,3.6645,3.6492,3.6492,3.6492,3.6538,3.6616,3.6739,3.6953,3.718,3.7389,3.767,3.7844,3.803,3.8317,3.8653,3.8931,3.9151,3.9432,3.9563,3.9681,3.9794,3.9935,4.0062,4.0113,4.0113,4.0113,4.0113,4.0113,4.0113,4.0113,4.0113,4.0303,4.0388,4.0316,4.0451,4.1098,4.1694,4.2198,4.2675,4.3047,4.3453,4.3876,4.4161,4.0314,4.0154,3.9927,3.952,3.9028,3.8848,3.8575,3.8277,3.8198,3.8066,3.7972,3.7976,3.7957,3.801,3.8133,3.8361,3.875,3.9092,3.9634,3.9972,4.0293,4.0481,4.0784,4.1218,4.1378,4.1488,4.1822,4.2042,4.1953,4.2049,4.211,4.2172,4.2248,4.229,4.2433,4.2642,4.287,4.2911,4.2847,4.2762,4.2282,4.1991,4.1239,4.0382,4.0247,3.975,3.9496,3.9421,3.9406,3.9331,3.911,3.9005,3.8903,3.8317,3.808,3.7975,3.7803,3.7691,3.7648,3.7171,3.7002,3.7251,3.7446,3.7452,3.7441,3.7645,3.7707,3.7754,3.763,3.7461,3.7153,3.7107,3.7046,3.6676,3.6522,3.6553,3.6615,3.6755,3.6816,3.7029,3.7255,3.7492,3.7816,3.8135,3.8319,3.853,3.886,3.9175,3.9352,3.9511,3.9642,3.9768,3.9884,3.9973,4.0087,4.0113,4.0113,4.0113,4.0113,4.018,4.0214,4.0113,4.018,4.0422,4.0895,4.1149,4.1559,4.2205,4.2611,4.2777,4.3115,4.3504,4.3944,4.4347,4.455,4.0453,4.0366,4.0349,4.0051,3.9586,3.9358,3.9108,3.8867,3.8738,3.8557,3.8389,3.8389,3.8427,3.8497,3.8604,3.8784,3.9134,3.9488,3.9859,4.0183,4.0412,4.0524,4.089,4.1298,4.1744,4.1718,4.2214,4.2561,4.231,4.2418,4.25,4.2561,4.2596,4.2602,4.2668,4.289,4.3081,4.3135,4.315,4.316,4.2705,4.2391,4.2092,4.1029,4.0651,4.0187,3.9765,3.9586,3.9406,3.9424,3.94,3.943,3.9266,3.9041,3.8789,3.8615,3.8474,3.828,3.8252,3.8026,3.8022,3.8041,3.8188,3.8285,3.8475,3.8523,3.8308,3.8369,3.84,3.8308,3.7815,3.7784,3.7723,3.7461,3.7015,3.6969,3.694,3.7002,3.7016,3.709,3.7374,3.7698,3.8001,3.8347,3.86,3.878,3.8985,3.9242,3.9418,3.9577,3.9703,3.9845,3.9986,4.0049,4.0113,4.0113,4.0113,4.0113,4.0163,4.0354,4.0371,4.0367,4.0688,4.1251,4.1728,4.21,4.2391,4.2679,4.2929,4.3149,4.3555,4.3995,4.4161,4.4516,4.4787,4.0489,4.0505,4.0505,4.0279,3.9978,3.9768,3.9679,3.952,3.9265,3.8998,3.887,3.8837,3.8943,3.9068,3.9123,3.9193,3.9345,3.9872,4.0226,4.0342,4.0599,4.1126,4.1603,4.1933,4.213,4.2061,4.2594,4.297,4.2703,4.2703,4.2809,4.293,4.293,4.2955,4.3016,4.3175,4.3255,4.329,4.3305,4.323,4.31,4.2735,4.2391,4.1897,4.1224,4.0715,4.0367,3.9895,3.97,3.9637,3.9616,3.9568,3.9382,3.946,3.9388,3.9284,3.9444,3.9536,3.9554,3.8793,3.858,3.863,3.8884,3.8858,3.8661,3.8631,3.8785,3.9031,3.8799,3.8661,3.8507,3.8477,3.8399,3.8108,3.7646,3.751,3.7497,3.7313,3.7358,3.7446,3.7692,3.7961,3.8244,3.8539,3.8832,3.904,3.9175,3.9339,3.9498,3.9655,3.9794,3.991,4.0033,4.0058,4.0113,4.0113,4.0113,4.0113,4.0316,4.0641,4.0946,4.1132,4.1555,4.2117,4.2422,4.2675,4.2811,4.2946,4.3352,4.3789,4.411,4.4448,4.4567,4.4651,4.4888,4.0489,4.0489,4.0489,4.042,4.0298,4.0156,4.0031,3.9907,3.9765,3.9658,3.9607,3.9589,3.9625,3.9694,3.9679,3.9676,3.9757,3.9805,4.0133,4.0175,4.0462,4.0846,4.1395,4.2063,4.2429,4.2668,4.3171,4.3389,4.309,4.301,4.303,4.315,4.321,4.319,4.321,4.327,4.329,4.3305,4.3305,4.329,4.3275,4.307,4.2806,4.2455,4.1901,4.1467,4.1078,4.0537,4.0211,4.0021,3.9956,3.9667,3.9475,3.9517,3.9553,3.9622,3.9785,3.9998,4.0126,3.9879,3.9806,3.9716,3.9656,3.9691,3.9799,3.9814,3.983,3.9768,3.9645,3.9507,3.9291,3.9184,3.9014,3.8507,3.8185,3.8283,3.8241,3.7919,3.7794,3.7944,3.8146,3.8357,3.8613,3.8801,3.9062,3.9354,3.9524,3.9508,3.9633,3.9759,3.9884,3.9999,4.0087,4.01,4.013,4.0269,4.0608,4.0844,4.0997,4.1234,4.1508,4.1863,4.2337,4.2878,4.3031,4.3183,4.3453,4.3755,4.411,4.4482,4.455,4.4598,4.4615,4.4702,4.4905,3.9953,4.0151,4.0168,4.029,4.0474,4.0418,4.0261,4.0119,4.0101,4.0066,3.9993,3.9993,4.0028,4.0081,4.0117,4.0154,4.0172,4.0172,4.0189,4.0172,4.0187,4.0748,4.1418,4.208,4.2472,4.2952,4.3466,4.3723,4.3394,4.329,4.3344,4.3404,4.3438,4.3458,4.3423,4.3384,4.3305,4.3305,4.3305,4.3305,4.329,4.3235,4.31,4.2776,4.2455,4.2175,4.1802,4.1366,4.088,4.0584,4.0272,3.9887,3.9634,3.9565,3.9622,3.9765,3.9978,4.0191,4.0372,4.0441,4.0303,4.0351,4.0489,4.0489,4.0489,4.0351,4.0366,4.0397,4.0489,4.0259,3.9907,3.9814,3.9599,3.9091,3.894,3.9023,3.9035,3.873,3.8513,3.865,3.8854,3.8988,3.904,3.9079,3.9277,3.9577,3.9877,3.986,3.9858,4.0005,4.0167,4.0269,4.0337,4.0388,4.0489,4.0641,4.1001,4.1508,4.1711,4.1863,4.232,4.2696,4.3169,4.3589,4.3724,4.3941,4.4279,4.4567,4.455,4.4533,4.4567,4.4598,4.4615,4.4787,4.5024,3.8938,3.9444,3.9522,3.9936,4.0428,4.0472,4.0418,4.0296,4.0312,4.0191,4.0046,4.0064,4.0137,4.0277,4.0294,4.0349,4.0436,4.0453,4.0453,4.0532,4.0572,4.1087,4.1704,4.2378,4.2845,4.3183,4.3593,4.3996,4.3669,4.368,4.3714,4.369,4.3651,4.367,4.3601,4.3463,4.3344,4.3305,4.3305,4.3305,4.3305,4.329,4.3245,4.3025,4.2791,4.2663,4.238,4.2055,4.1471,4.1132,4.091,4.0326,3.9977,3.9828,3.9831,3.9907,4.0121,4.0316,4.0455,4.0489,4.0489,4.0489,4.0489,4.0489,4.0489,4.0489,4.0489,4.0489,4.0489,4.0489,4.0397,4.0366,4.0336,3.9997,3.9721,3.9767,3.9863,3.9685,3.9487,3.9549,3.9822,3.9936,3.9883,3.9869,3.9924,4.0309,4.0611,4.0595,4.0594,4.0527,4.0661,4.0688,4.0743,4.076,4.0912,4.12,4.1644,4.2219,4.2371,4.2557,4.3034,4.344,4.3775,4.4093,4.4398,4.4584,4.4584,4.4584,4.4584,4.4601,4.4702,4.4905,4.5024,4.5041,4.5294,3.9322,3.9537,4.003,4.0337,4.0474,4.0489,4.0487,4.0453,4.0453,4.0401,4.0351,4.0349,4.0366,4.0437,4.0437,4.0455,4.0472,4.0489,4.0505,4.0645,4.0968,4.1663,4.2294,4.2925,4.3453,4.3868,4.4178,4.4301,4.4266,4.42,4.4007,4.3929,4.3788,4.3793,4.3734,4.3522,4.3404,4.3305,4.3305,4.3305,4.3305,4.3305,4.3305,4.3205,4.3155,4.3049,4.2938,4.2638,4.2175,4.1964,4.1625,4.1076,4.048,4.0429,4.0408,4.0167,4.0331,4.0472,4.0489,4.0489,4.0487,4.047,4.0472,4.0489,4.0489,4.0489,4.0505,4.0489,4.0489,4.0489,4.0489,4.0489,4.0489,4.0336,4.017,4.0262,4.0329,4.0246,4.0099,4.0467,4.0728,4.0701,4.0652,4.0682,4.0793,4.1178,4.1399,4.1418,4.1352,4.132,4.1197,4.1255,4.1369,4.1437,4.1707,4.1995,4.2439,4.2865,4.3047,4.3301,4.3775,4.4161,4.4364,4.4479,4.455,4.4584,4.4584,4.4584,4.4601,4.4838,4.4973,4.5213,4.5432,4.5602,4.5838,3.8876,3.9184,3.983,4.0243,4.0489,4.0489,4.0489,4.0489,4.0489,4.0489,4.0489,4.0489,4.0489,4.0489,4.0489,4.0489,4.0489,4.0489,4.0505,4.0691,4.1307,4.1909,4.2602,4.3313,4.3838,4.4262,4.4473,4.4435,4.4473,4.4396,4.4205,4.4108,4.391,4.389,4.3851,4.3675,4.3443,4.3344,4.3305,4.3305,4.3305,4.3305,4.3305,4.3324,4.3349,4.3443,4.3433,4.3128,4.2962,4.2606,4.2175,4.1791,4.1187,4.1007,4.0994,4.0778,4.0543,4.0499,4.0418,4.0418,4.0366,4.0349,4.0383,4.0418,4.0453,4.0453,4.0487,4.0489,4.0489,4.0489,4.0489,4.0489,4.0489,4.0474,4.0576,4.0679,4.0664,4.063,4.0906,4.1326,4.1442,4.1413,4.1428,4.1465,4.1633,4.1988,4.2342,4.2582,4.2418,4.2217,4.203,4.1897,4.2063,4.2215,4.2503,4.279,4.3149,4.3555,4.3839,4.4127,4.455,4.4567,4.4516,4.4533,4.4567,4.4618,4.4668,4.4635,4.4668,4.5007,4.55,4.5889,4.628,4.6667,4.6921,3.7923,3.8599,3.9276,3.9982,4.0459,4.0489,4.0489,4.0489,4.0489,4.0489,4.0489,4.0489,4.0489,4.0489,4.0489,4.0489,4.0489,4.0489,4.0643,4.0645,4.1494,4.2186,4.2851,4.339,4.4042,4.4335,4.4454,4.4492,4.4358,4.4339,4.4358,4.4301,4.4069,4.3988,4.3949,4.3695,4.3458,4.3344,4.3305,4.3305,4.3305,4.3305,4.3324,4.3344,4.3518,4.367,4.371,4.3652,4.3598,4.3055,4.2695,4.2428,4.2031,4.1556,4.1538,4.1408,4.1076,4.0729,4.0567,4.0519,4.0263,4.0215,4.0172,4.0277,4.0331,4.0453,4.0505,4.0489,4.0489,4.0489,4.0489,4.0489,4.0489,4.0489,4.0557,4.0729,4.0888,4.1034,4.145,4.1837,4.2081,4.2087,4.2214,4.2272,4.247,4.2782,4.3075,4.3434,4.3449,4.3148,4.2953,4.2692,4.2943,4.3163,4.3349,4.3619,4.3856,4.4195,4.4398,4.4482,4.4567,4.4584,4.4584,4.4584,4.4584,4.4719,4.4787,4.4871,4.5176,4.5686,4.6177,4.6619,4.7058,4.7481,4.7784,3.7876,3.8599,3.9768,4.0384,4.0507,4.0489,4.0489,4.0489,4.0489,4.0489,4.0489,4.0489,4.0489,4.0489,4.0489,4.0489,4.0489,4.0536,4.0861,4.1322,4.1971,4.2556,4.3328,4.3913,4.4337,4.4476,4.4553,4.453,4.4396,4.4416,4.4435,4.4301,4.4123,4.4007,4.3968,4.3675,4.3384,4.3305,4.3305,4.3305,4.3305,4.3305,4.3324,4.3384,4.3537,4.3577,4.3596,4.3621,4.3506,4.3218,4.339,4.3242,4.2943,4.2383,4.2132,4.2059,4.1702,4.1264,4.0951,4.0796,4.0605,4.0238,4.017,4.0217,4.0294,4.0418,4.052,4.052,4.0489,4.0489,4.0489,4.0489,4.0489,4.0489,4.0507,4.0796,4.1066,4.1488,4.1916,4.2253,4.2577,4.2772,4.2887,4.3096,4.3348,4.3558,4.3726,4.3968,4.4162,4.4045,4.3947,4.3789,4.3992,4.4195,4.4228,4.4178,4.4296,4.4364,4.4499,4.455,4.4584,4.4598,4.4598,4.4584,4.4618,4.4939,4.5261,4.5432,4.5805,4.638,4.6822,4.7278,4.7718,4.814,4.8409,3.7892,3.863,3.9937,4.0322,4.0153,4.0368,4.0489,4.0489,4.0489,4.0489,4.0489,4.0489,4.0489,4.0489,4.0489,4.0489,4.0489,4.0489,4.0937,4.1601,4.2294,4.291,4.3621,4.4267,4.4468,4.4591,4.4591,4.4549,4.4454,4.4511,4.4511,4.4396,4.42,4.3988,4.3949,4.3581,4.3324,4.3305,4.3324,4.3324,4.3324,4.3324,4.3305,4.3384,4.3498,4.3503,4.3483,4.3537,4.3498,4.3503,4.361,4.3735,4.3453,4.3033,4.2746,4.2486,4.2146,4.1713,4.1434,4.1249,4.1076,4.0743,4.081,4.1103,4.1239,4.1337,4.1012,4.0968,4.0551,4.0489,4.0489,4.0489,4.0489,4.0489,4.0541,4.0712,4.1137,4.1604,4.198,4.2301,4.266,4.3013,4.3146,4.3296,4.3549,4.3814,4.4049,4.4227,4.4457,4.4584,4.4584,4.4584,4.4584,4.4584,4.4465,4.4432,4.4482,4.4567,4.4584,4.4618,4.4635,4.4632,4.4615,4.4922,4.5227,4.5514,4.5788,4.6092,4.6551,4.7126,4.7549,4.7921,4.8343,4.8648,4.8765,3.7832,3.8646,3.9845,4.0107,3.9751,4.0261,4.0489,4.0489,4.0489,4.0489,4.0489,4.0489,4.0489,4.0489,4.0489,4.0489,4.0489,4.0489,4.0968,4.1632,4.2309,4.294,4.3605,4.4255,4.4468,4.4591,4.4591,4.4591,4.4553,4.4591,4.4553,4.4511,4.4281,4.4007,4.3895,4.364,4.3369,4.3404,4.3404,4.3349,4.3329,4.3344,4.3344,4.3438,4.3537,4.3542,4.3483,4.3503,4.3557,4.3636,4.3738,4.3892,4.3863,4.3518,4.3286,4.2997,4.2607,4.218,4.1867,4.1821,4.1641,4.155,4.1884,4.2036,4.208,4.197,4.1633,4.1368,4.0951,4.0628,4.0628,4.0551,4.0551,4.0572,4.0624,4.0694,4.1188,4.1703,4.2045,4.2381,4.2758,4.3143,4.3355,4.3522,4.3715,4.3996,4.4169,4.4344,4.4488,4.4556,4.4584,4.4584,4.4584,4.4584,4.4584,4.4584,4.4584,4.4584,4.4584,4.4635,4.4736,4.4939,4.5244,4.5686,4.5991,4.621,4.6566,4.6904,4.7396,4.7853,4.814,4.8428,4.8612,4.8866,4.8934,3.7653,3.8585,3.9384,3.989,4.0261,4.0428,4.0489,4.0489,4.0489,4.0489,4.0489,4.0489,4.0489,4.0489,4.0489,4.0489,4.0489,4.0505,4.0968,4.1632,4.2294,4.2959,4.3605,4.4252,4.4514,4.4591,4.4591,4.4591,4.4591,4.4591,4.4591,4.4572,4.4205,4.4085,4.4147,4.3875,4.3616,4.3616,4.3596,4.3562,4.3443,4.3443,4.3478,4.3577,4.3699,4.3581,4.3542,4.3754,4.3754,4.3773,4.3851,4.4026,4.397,4.3786,4.3579,4.3357,4.2984,4.2696,4.2462,4.2472,4.2314,4.1998,4.2209,4.2369,4.2431,4.2493,4.229,4.2245,4.1799,4.1199,4.1061,4.0845,4.0768,4.0795,4.0835,4.0926,4.1217,4.1735,4.2174,4.2491,4.2835,4.3189,4.3509,4.3643,4.3747,4.3967,4.4097,4.4286,4.4514,4.4556,4.4618,4.4618,4.4618,4.4584,4.4584,4.4584,4.4584,4.4584,4.4736,4.5024,4.5277,4.5466,4.5821,4.6397,4.6684,4.6904,4.7259,4.7699,4.802,4.8411,4.868,4.89,4.9001,4.9018,4.9018]}]]